[[{"header":{"parameterUnit":"m.s-1","parameterCategory":1,"la1":30.6,"la2":28.766,"lo1":-90.7593,"lo2":-88.6598,"dy":0.0162,"dx":0.0183,"nx":116,"ny":114,"refTime":"2023-04-25T00:00:00:Z","depth":0,"parameterNumber":2,"parameterNumberName":"U-component_of_WINDS"},"data":[0.0,0.0,0.0,0.0,0.0,0.0,0.0,0.0,0.0,0.0,0.0,0.0,0.0,0.0,0.0,0.0,0.0,0.0,0.0,0.0,0.0,0.0,0.0,0.0,0.0,0.0,0.0,0.0,0.0,0.0,0.0,0.0,0.0,0.0,0.0,0.0,0.0,0.0,0.0,0.0,0.0,0.0,0.0,0.0,0.0,0.0,0.0,0.0,0.0,0.0,0.0,0.0,0.0,0.0,0.0,0.0,0.0,0.0,0.0,0.0,0.0,0.0,0.0,0.0,0.0,0.0,0.0,0.0,0.0,0.0,0.0,0.0,0.0,0.0,0.0,0.0,0.0,0.0,0.0,0.0,0.0,0.0,0.0,0.0,0.0,0.0,0.0,0.0,0.0,0.0,0.0,0.0,0.0,0.0,0.0,0.0,0.0,0.0,0.0,0.0,0.0,0.0,0.0,0.0,0.0,0.0,0.0,0.0,0.0,0.0,0.0,0.0,0.0,0.0,0.0,0.0,0.0,0.0,0.0,0.0,0.0,0.0,0.0,0.0,0.0,0.0,0.0,0.0,0.0,0.0,0.0,0.0,0.0,0.0,0.0,0.0,0.0,0.0,0.0,0.0,0.0,0.0,0.0,0.0,0.0,0.0,0.0,0.0,0.0,0.0,0.0,0.0,0.0,0.0,0.0,0.0,0.0,0.0,0.0,0.0,0.0,0.0,0.0,0.0,0.0,0.0,0.0,0.0,0.0,0.0,0.0,0.0,0.0,0.0,0.0,0.0,0.0,0.0,0.0,0.0,0.0,0.0,0.0,0.0,0.0,0.0,0.0,0.0,0.0,0.0,0.0,0.0,0.0,0.0,0.0,0.0,0.0,0.0,0.0,0.0,0.0,0.0,0.0,0.0,0.0,0.0,0.0,0.0,0.0,0.0,0.0,0.0,0.0,0.0,0.0,0.0,0.0,0.0,0.0,0.0,0.0,0.0,0.0,0.0,0.0,0.0,0.0,0.0,0.0,0.0,0.0,0.0,0.0,0.0,0.0,0.0,0.0,0.0,0.0,0.0,0.0,0.0,0.0,0.0,0.0,0.0,0.0,0.0,0.0,0.0,0.0,0.0,0.0,0.0,0.0,0.0,0.0,0.0,0.0,0.0,0.0,0.0,0.0,0.0,0.0,0.0,0.0,0.0,0.0,0.0,0.0,0.0,0.0,0.0,0.0,0.0,0.0,0.0,0.0,0.0,0.0,0.0,0.0,0.0,0.0,0.0,0.0,0.0,0.0,0.0,0.0,0.0,0.0,0.0,0.0,0.0,0.0,0.0,0.0,0.0,0.0,0.0,0.0,0.0,0.0,0.0,0.0,0.0,0.0,0.0,0.0,0.0,0.0,0.0,0.0,0.0,0.0,0.0,0.0,0.0,0.0,0.0,0.0,0.0,0.0,0.0,0.0,0.0,0.0,0.0,0.0,0.0,0.0,0.0,0.0,0.0,0.0,0.0,0.0,0.0,0.0,0.0,0.0,0.0,0.0,0.0,0.0,0.0,0.0,0.0,0.0,0.0,0.0,0.0,0.0,0.0,0.0,0.0,0.0,0.0,0.0,0.0,0.0,0.0,0.0,0.0,0.0,0.0,0.0,0.0,0.0,0.0,0.0,0.0,0.0,0.0,0.0,0.0,0.0,0.0,0.0,0.0,0.0,0.0,0.0,0.0,0.0,0.0,0.0,0.0,0.0,0.0,0.0,0.0,0.0,0.0,0.0,0.0,0.0,0.0,0.0,0.0,0.0,0.0,0.0,0.0,0.0,0.0,0.0,0.0,0.0,0.0,0.0,0.0,0.0,0.0,0.0,0.0,0.0,0.0,0.0,0.0,0.0,0.0,0.0,0.0,0.0,0.0,0.0,0.0,0.0,0.0,0.0,0.0,0.0,0.0,0.0,0.0,0.0,0.0,0.0,0.0,0.0,0.0,0.0,0.0,0.0,0.0,0.0,0.0,0.0,0.0,0.0,0.0,0.0,0.0,0.0,0.0,0.0,0.0,0.0,0.0,0.0,0.0,0.0,0.0,0.0,0.0,0.0,0.0,0.0,0.0,0.0,0.0,0.0,0.0,0.0,0.0,0.0,0.0,0.0,0.0,0.0,0.0,0.0,0.0,0.0,0.0,0.0,0.0,0.0,0.0,0.0,0.0,0.0,0.0,0.0,0.0,0.0,0.0,0.0,0.0,0.0,0.0,0.0,0.0,0.0,0.0,0.0,0.0,0.0,0.0,0.0,0.0,0.0,0.0,0.0,0.0,0.0,0.0,0.0,0.0,0.0,0.0,0.0,0.0,0.0,0.0,0.0,0.0,0.0,0.0,0.0,0.0,0.0,0.0,0.0,0.0,0.0,0.0,0.0,0.0,0.0,0.0,0.0,0.0,0.0,0.0,0.0,0.0,0.0,0.0,0.0,0.0,0.0,0.0,0.0,0.0,0.0,0.0,0.0,0.0,0.0,0.0,0.0,0.0,0.0,0.0,0.0,0.0,0.0,0.0,0.0,0.0,0.0,0.0,0.0,0.0,0.0,0.0,0.0,0.0,0.0,0.0,0.0,0.0,0.0,0.0,0.0,0.0,0.0,0.0,0.0,0.0,0.0,0.0,0.0,0.0,0.0,0.0,0.0,0.0,0.0,0.0,0.0,0.0,0.0,0.0,0.0,0.0,0.0,0.0,0.0,0.0,0.0,0.0,0.0,0.0,0.0,0.0,0.0,0.0,0.0,0.0,0.0,0.0,0.0,0.0,0.0,0.0,0.0,0.0,0.0,0.0,0.0,0.0,0.0,0.0,0.0,0.0,0.0,0.0,0.0,0.0,0.0,0.0,0.0,0.0,0.0,0.0,0.0,0.0,0.0,0.0,0.0,0.0,0.0,0.0,0.0,0.0,0.0,0.0,0.0,0.0,0.0,0.0,0.0,0.0,0.0,0.0,0.0,0.0,0.0,0.0,0.0,0.0,0.0,0.0,0.0,0.0,0.0,0.0,0.0,0.0,0.0,0.0,0.0,0.0,0.0,0.0,0.0,0.0,0.0,0.0,0.0,0.0,0.0,0.0,0.0,0.0,0.0,0.0,0.0,0.0,0.0,0.0,0.0,0.0,0.0,0.0,0.0,0.0,0.0,0.0,0.0,0.0,0.0,0.0,0.0,0.0,0.0,0.0,0.0,0.0,0.0,0.0,0.0,0.0,0.0,0.0,0.0,0.0,0.0,0.0,0.0,0.0,0.0,0.0,0.0,0.0,0.0,0.0,0.0,0.0,0.0,0.0,0.0,0.0,0.0,0.0,0.0,0.0,0.0,0.0,0.0,0.0,0.0,0.0,0.0,0.0,0.0,0.0,0.0,0.0,0.0,0.0,0.0,0.0,0.0,0.0,0.0,0.0,0.0,0.0,0.0,0.0,0.0,0.0,0.0,0.0,0.0,0.0,0.0,0.0,0.0,0.0,0.0,0.0,0.0,0.0,0.0,0.0,0.0,0.0,0.0,0.0,0.0,0.0,0.0,0.0,0.0,0.0,0.0,0.0,0.0,0.0,0.0,0.0,0.0,0.0,0.0,0.0,0.0,0.0,0.0,0.0,0.0,0.0,0.0,0.0,0.0,0.0,0.0,0.0,0.0,0.0,0.0,0.0,0.0,0.0,0.0,0.0,0.0,0.0,0.0,0.0,0.0,0.0,0.0,0.0,0.0,0.0,0.0,0.0,0.0,0.0,0.0,0.0,0.0,0.0,0.0,0.0,0.0,0.0,0.0,0.0,0.0,0.0,0.0,0.0,0.0,0.0,0.0,0.0,0.0,0.0,0.0,0.0,0.0,0.0,0.0,0.0,0.0,0.0,0.0,0.0,0.0,0.0,0.0,0.0,0.0,0.0,0.0,0.0,0.0,0.0,0.0,0.0,0.0,0.0,0.0,0.0,0.0,0.0,0.0,0.0,0.0,0.0,0.0,0.0,0.0,0.0,0.0,0.0,0.0,0.0,0.0,0.0,0.0,0.0,0.0,0.0,0.0,0.0,0.0,0.0,0.0,0.0,0.0,0.0,0.0,0.0,0.0,0.0,0.0,0.0,0.0,0.0,0.0,0.0,0.0,0.0,0.0,0.0,0.0,0.0,0.0,0.0,0.0,0.0,0.0,0.0,0.0,0.0,0.0,0.0,0.0,0.0,0.0,0.0,0.0,0.0,0.0,0.0,0.0,0.0,0.0,0.0,0.0,0.0,0.0,0.0,0.0,0.0,0.0,0.0,0.0,0.0,0.0,0.0,0.0,0.0,0.0,0.0,0.0,0.0,0.0,0.0,0.0,0.0,0.0,0.0,0.0,0.0,0.0,0.0,0.0,0.0,0.0,0.0,0.0,0.0,0.0,0.0,0.0,0.0,0.0,0.0,0.0,0.0,0.0,0.0,0.0,0.0,0.0,0.0,0.0,0.0,0.0,0.0,0.0,0.0,0.0,0.0,0.0,0.0,0.0,0.0,0.0,0.0,0.0,0.0,0.0,0.0,0.0,0.0,0.0,0.0,0.0,0.0,0.0,0.0,0.0,0.0,0.0,0.0,0.0,0.0,0.0,0.0,0.0,0.0,0.0,0.0,0.0,0.0,0.0,0.0,0.0,0.0,0.0,0.0,0.0,0.0,0.0,0.0,0.0,0.0,0.0,0.0,0.0,0.0,0.0,0.0,0.0,0.0,0.0,0.0,0.0,0.0,0.0,0.0,0.0,0.0,0.0,0.0,0.0,0.0,0.0,0.0,0.0,0.0,0.0,0.0,0.0,0.0,0.0,0.0,0.0,0.0,0.0,0.0,0.0,0.0,0.0,0.0,0.0,0.0,0.0,0.0,0.0,0.0,0.0,0.0,0.0,0.0,0.0,0.0,0.0,0.0,0.0,0.0,0.0,0.0,0.0,0.0,0.0,0.0,0.0,0.0,0.0,0.0,0.0,0.0,0.0,0.0,0.0,0.0,0.0,0.0,0.0,0.0,0.0,0.0,0.0,0.0,0.0,0.0,0.0,0.0,0.0,0.0,0.0,0.0,0.0,0.0,0.0,0.0,0.0,0.0,0.0,0.0,0.0,0.0,0.0,0.0,0.0,0.0,0.0,0.0,0.0,0.0,0.0,0.0,0.0,0.0,0.0,0.0,0.0,0.0,0.0,0.0,0.0,0.0,0.0,0.0,0.0,0.0,0.0,0.0,0.0,0.0,0.0,0.0,0.0,0.0,0.0,0.0,0.0,0.0,0.0,0.0,0.0,0.0,0.0,0.0,0.0,0.0,0.0,0.0,0.0,0.0,0.0,0.0,0.0,0.0,0.0,0.0,0.0,0.0,0.0,0.0,0.0,0.0,0.0,0.0,0.0,0.0,0.0,0.0,0.0,0.0,0.0,0.0,0.0,0.0,0.0,0.0,0.0,0.0,0.0,0.0,0.0,0.0,0.0,0.0,0.0,0.0,0.0,0.0,0.0,0.0,0.0,0.0,0.0,0.0,0.0,0.0,0.0,0.0,0.0,0.0,0.0,0.0,0.0,0.0,0.0,0.0,0.0,0.0,0.0,0.0,0.0,0.0,0.0,0.0,0.0,0.0,0.0,0.0,0.0,0.0,0.0,0.0,0.0,0.0,0.0,0.0,0.0,0.0,0.0,0.0,0.0,0.0,0.0,0.0,0.0,0.0,0.0,0.0,0.0,0.0,0.0,0.0,0.0,0.0,0.0,0.0,0.0,0.0,0.0,0.0,0.0,0.0,0.0,0.0,0.0,0.0,0.0,0.0,0.0,0.0,0.0,0.0,0.0,0.0,0.0,0.0,0.0,0.0,0.0,0.0,0.0,0.0,0.0,0.0,0.0,0.0,0.0,0.0,0.0,0.0,0.0,0.0,0.0,0.0,0.0,0.0,0.0,0.0,0.0,0.0,0.0,0.0,0.0,0.0,0.0,0.0,0.0,0.0,0.0,0.0,0.0,0.0,0.0,0.0,0.0,0.0,0.0,0.0,0.0,0.0,0.0,0.0,0.0,0.0,0.0,0.0,0.0,0.0,0.0,0.0,0.0,0.0,0.0,0.0,0.0,0.0,0.0,0.0,-3.6304,-3.5718,0.0,0.0,0.0,0.0,0.0,0.0,0.0,0.0,0.0,0.0,0.0,0.0,0.0,0.0,0.0,0.0,0.0,0.0,0.0,0.0,0.0,0.0,0.0,0.0,0.0,0.0,0.0,0.0,0.0,0.0,0.0,0.0,0.0,0.0,0.0,0.0,0.0,0.0,-0.7769,-0.9319,-1.1146,-1.1291,-1.1083,-1.0663,0.0,0.0,0.0,0.0,0.0,0.0,0.0,0.0,0.0,0.0,0.0,0.0,0.0,0.0,0.0,0.0,0.0,0.0,0.0,0.0,0.0,0.0,0.0,0.0,0.0,0.0,0.0,0.0,0.0,0.0,0.0,0.0,0.0,0.0,0.0,0.0,0.0,0.0,0.0,0.0,0.0,0.0,0.0,0.0,0.0,0.0,0.0,0.0,0.0,0.0,0.0,0.0,0.0,0.0,0.0,0.0,0.0,0.0,0.0,0.0,0.0,0.0,0.0,0.0,0.0,0.0,0.0,0.0,0.0,0.0,-3.6881,-3.6791,0.0,0.0,0.0,0.0,0.0,0.0,0.0,0.0,0.0,0.0,0.0,0.0,0.0,0.0,0.0,0.0,0.0,0.0,0.0,0.0,0.0,0.0,0.0,0.0,-0.0,-0.0,-0.0,-0.1549,0.0,0.0,0.0,0.0,0.0,0.0,0.0,0.0,0.0,0.0,-0.9548,-1.206,-1.4587,-1.4649,-1.394,-1.2606,-1.3304,0.0,0.0,0.0,0.0,0.0,0.0,0.0,0.0,0.0,0.0,0.0,0.0,0.0,0.0,0.0,0.0,0.0,0.0,0.0,0.0,0.0,0.0,0.0,0.0,0.0,0.0,0.0,0.0,0.0,0.0,0.0,0.0,0.0,0.0,0.0,0.0,0.0,0.0,0.0,0.0,0.0,0.0,0.0,0.0,0.0,0.0,0.0,0.0,0.0,0.0,0.0,0.0,0.0,0.0,0.0,0.0,0.0,0.0,0.0,0.0,0.0,0.0,0.0,-3.0635,-3.1724,-3.3228,-3.3589,-3.4977,-3.7015,-3.7285,-3.7778,-3.8302,-3.7135,0.0,0.0,0.0,0.0,0.0,0.0,0.0,0.0,0.0,0.0,0.0,0.0,0.0,0.0,0.0,0.0,0.0,0.0,0.0,0.0,0.0,0.1205,-0.0,-0.0,-0.0,-0.1549,0.0,0.0,0.0,0.0,0.0,0.0,0.0,-0.6268,-0.7279,-0.8528,-1.1779,-1.4094,-1.5451,-1.5696,-1.5642,-1.5503,-1.625,-1.639,-1.6078,0.0,0.0,0.0,0.0,0.0,0.0,0.0,0.0,0.0,0.0,0.0,0.0,0.0,0.0,0.0,0.0,0.0,0.0,0.0,0.0,0.0,0.0,0.0,0.0,0.0,0.0,0.0,0.0,0.0,0.0,0.0,0.0,0.0,0.0,0.0,0.0,0.0,0.0,0.0,0.0,0.0,-2.2715,-2.3018,0.0,0.0,0.0,0.0,0.0,0.0,0.0,0.0,0.0,0.0,0.0,0.0,0.0,-2.9578,-2.9578,-3.0645,-3.1185,-3.1185,-3.3993,-3.5494,-3.5806,-3.7636,-3.8716,-3.8975,-3.7883,0.0,-3.8332,-3.7584,0.0,0.0,0.0,0.0,0.0,0.0,0.0,0.0,0.0,0.0,0.0,0.0,0.0,0.0,0.0,0.0,0.0,0.0,0.0,0.0,0.0,0.1727,-0.0,-0.0,-0.0,-0.0654,-0.2253,-0.4297,0.0,0.0,0.0,0.0,-0.5428,-0.6728,-0.8498,-1.0743,-1.3216,-1.5161,-1.6538,-1.732,-1.8136,-1.892,-1.9279,-1.8765,-1.7635,-1.7854,0.0,0.0,0.0,0.0,0.0,0.0,0.0,0.0,0.0,0.0,0.0,0.0,0.0,0.0,0.0,0.0,0.0,0.0,0.0,0.0,0.0,0.0,0.0,0.0,0.0,0.0,0.0,0.0,0.0,0.0,0.0,0.0,0.0,0.0,0.0,0.0,0.0,0.0,0.0,-2.248,-2.3027,-2.3457,-2.4017,-2.4063,0.0,0.0,0.0,0.0,0.0,0.0,0.0,0.0,0.0,-2.9779,-3.0369,-3.0696,-3.0696,-3.1788,-3.234,-3.234,-3.4413,-3.5668,-3.6277,-3.7814,-3.8855,-3.9394,-3.8796,-3.8706,-3.8886,-3.7838,-3.7404,-3.73,0.0,0.0,0.0,0.0,-3.4128,-3.4681,0.0,0.0,0.0,0.0,0.0,0.0,0.0,0.0,0.0,0.0,0.0,0.0,0.4778,0.2316,0.052,0.0074,-0.0,-0.0,-0.0,-0.2982,0.0,0.0,0.0,-0.5428,-0.5428,-0.7382,-0.9939,-1.2968,-1.465,-1.6253,-1.7738,-1.8877,-2.0014,-2.1064,-2.1182,-2.0464,-1.9242,-1.9557,-1.9667,-1.959,0.0,0.0,0.0,0.0,0.0,0.0,0.0,0.0,0.0,0.0,0.0,0.0,0.0,0.0,0.0,0.0,0.0,0.0,0.0,0.0,0.0,0.0,0.0,0.0,0.0,0.0,0.0,0.0,0.0,0.0,0.0,0.0,0.0,0.0,0.0,0.0,0.0,-2.2812,-2.3428,-2.4317,-2.5286,-2.562,0.0,0.0,0.0,0.0,0.0,0.0,-3.0181,-3.0206,-3.0331,-3.0633,-3.1411,-3.1813,-3.1813,-3.2654,-3.3081,-3.3081,-3.4191,-3.521,-3.6212,-3.7343,-3.8383,-3.9424,-3.9424,-3.9424,-3.9334,-3.8332,-3.7913,-3.7898,-3.7539,-3.6821,-3.5953,-3.5624,-3.5714,-3.6073,0.0,0.0,0.0,0.0,0.0,0.0,0.0,0.0,0.0,0.0,0.0,0.5405,0.3085,0.2683,0.1869,0.0156,-0.0,-0.0,-0.0,-0.1814,-0.3619,-0.5322,-0.5369,-0.5428,-0.5428,-0.8136,-1.1256,-1.4665,-1.6373,-1.7785,-1.8957,-2.0001,-2.0576,-2.0615,-2.1045,-2.1131,-2.1092,-2.1111,-2.0849,-2.043,-1.9609,0.0,0.0,0.0,0.0,0.0,0.0,0.0,0.0,0.0,0.0,0.0,0.0,0.0,0.0,0.0,0.0,0.0,0.0,0.0,0.0,0.0,0.0,0.0,0.0,0.0,0.0,0.0,0.0,0.0,0.0,0.0,0.0,0.0,0.0,0.0,0.0,0.0,0.0,-2.5947,-2.6938,0.0,0.0,0.0,0.0,-2.9624,-2.9754,-3.0231,-3.126,-3.1311,-3.18,-3.288,-3.2968,-3.2993,-3.2993,-3.3056,-3.3081,-3.3081,-3.4191,-3.521,-3.6212,-3.7343,-3.8383,-3.9424,-3.9424,-3.9424,-3.9409,-3.9349,-3.932,-3.9185,-3.7913,-3.7375,-3.7165,-3.5953,-3.6267,-3.7315,0.0,0.0,0.0,0.0,0.0,0.0,0.0,0.0,0.0,0.6002,0.6273,0.6266,0.559,0.2829,0.0736,0.0082,-0.0,-0.1262,-0.4343,-0.3418,-0.3653,-0.5677,-0.5538,-0.6112,-0.756,-0.9932,-1.2311,-1.4794,-1.6501,-1.7908,-1.9036,-2.0079,-2.0566,-2.0576,-2.0732,-2.0967,-2.1269,-2.1826,-2.1641,-2.0996,-2.0977,-2.0283,0.0,0.0,0.0,0.0,0.0,0.0,0.0,0.0,0.0,0.0,0.0,0.0,0.0,0.0,0.0,0.0,0.0,0.0,0.0,0.0,0.0,0.0,0.0,0.0,0.0,0.0,0.0,0.0,0.0,0.0,0.0,0.0,0.0,0.0,0.0,0.0,0.0,-2.6396,-2.728,0.0,-2.9435,-3.0264,-3.0803,-3.0846,-3.1499,-3.2077,-3.2453,-3.2478,-3.2667,-3.3068,-3.3081,-3.3081,-3.3081,-3.3081,-3.3081,-3.3081,-3.4191,-3.521,-3.6212,-3.7343,-3.8383,-3.9424,-3.9424,-3.9424,-3.9424,-3.9424,-3.9424,-3.9364,-3.8886,-3.8706,-3.8646,-3.8197,-3.8317,-3.8706,0.0,0.0,0.0,0.0,0.0,0.0,0.0,0.0,0.6287,0.6211,0.6423,0.6702,0.6979,0.3546,0.0857,0.0086,-0.0,-0.1924,-0.6498,-0.502,-0.4478,-0.5762,-0.5614,-0.6736,-0.9201,-1.059,-1.2603,-1.5125,-1.6621,-1.7908,-1.9036,-2.0079,-2.0566,-2.0566,-2.0566,-2.0732,-2.1055,-2.1777,-2.1924,-2.167,-2.167,-2.0889,-1.9648,0.0,0.0,0.0,0.0,0.0,0.0,0.0,0.0,0.0,0.0,0.0,0.0,0.0,0.0,0.0,0.0,0.0,0.0,0.0,0.0,0.0,0.0,0.0,0.0,0.0,0.0,0.0,0.0,0.0,0.0,0.0,0.0,0.0,0.0,-2.3037,-2.4317,-2.6449,-2.7619,-2.8763,-3.0016,-3.1245,-3.1951,-3.1951,-3.2654,-3.3081,-3.3081,-3.3081,-3.3081,-3.3081,-3.3081,-3.3081,-3.3081,-3.3081,-3.3081,-3.3081,-3.3797,-3.4733,-3.5734,-3.6774,-3.7584,-3.8235,-3.9071,-3.9155,-3.8781,-3.923,-3.9424,-3.9424,-3.9424,-3.9424,-3.9424,-3.9424,-3.9424,-3.9424,0.0,0.0,0.0,0.0,0.0,0.0,0.0,0.6338,0.6308,0.6441,0.66,0.6682,0.6681,0.4856,0.2592,0.018,-0.0,-0.1719,-0.5867,-0.624,-0.6043,-0.5413,-0.5728,-0.7206,-1.01,-1.0217,-1.2062,-1.5696,-1.6764,-1.7908,-1.8957,-2.0079,-2.0566,-2.0557,-2.0566,-2.0566,-2.0596,-2.0946,-2.1617,-2.2308,-2.152,-2.0996,-2.0498,0.0,0.0,0.0,0.0,0.0,0.0,0.0,0.0,0.0,0.0,0.0,0.0,0.0,0.0,0.0,0.0,0.0,0.0,0.0,0.0,0.0,0.0,0.0,0.0,0.0,0.0,0.0,0.0,0.0,0.0,0.0,0.0,0.0,-2.1963,-2.3379,-2.4864,-2.6214,-2.8181,-2.9863,-3.1134,-3.2339,-3.3081,-3.3081,-3.3081,-3.3081,-3.3081,-3.3043,-3.3031,-3.3031,-3.3031,-3.3031,-3.3031,-3.3056,-3.3081,-3.3081,-3.3081,-3.3628,-3.4746,-3.5734,-3.6129,-3.6086,-3.8396,-3.8676,-3.7569,-3.8871,-3.9424,-3.9424,-3.9424,-3.9424,-3.9424,-3.9424,-3.9424,-3.9409,0.0,0.0,0.0,0.0,0.0,0.0,0.0,0.6338,0.6234,0.6159,0.6471,0.6685,0.6641,0.4853,0.259,0.0179,-0.0,-0.0522,-0.168,-0.4436,-0.6033,-0.5855,-0.684,-0.83,-1.0186,-1.1183,-1.3015,-1.5696,-1.6764,-1.7496,-1.7827,-1.9678,-2.0167,-1.9441,-2.0245,-2.0167,-1.945,-1.9571,-1.9498,-1.9402,-2.1398,-2.1719,-2.0975,0.0,0.0,0.0,0.0,0.0,0.0,0.0,0.0,0.0,0.0,0.0,0.0,0.0,0.0,0.0,0.0,0.0,0.0,0.0,0.0,0.0,0.0,0.0,0.0,0.0,0.0,0.0,0.0,0.0,0.0,0.0,-2.2715,-2.3721,-2.3721,-2.4121,-2.5452,-2.8189,-2.9056,-3.0226,-3.2339,-3.2884,-3.3081,-3.3081,-3.3081,-3.3081,-3.3081,-3.2303,-3.1851,-3.1851,-3.1851,-3.1851,-3.1851,-3.2667,-3.3081,-3.3081,-3.3081,-3.3628,-3.4746,-3.5734,-3.6592,-3.7339,-3.8781,-3.9215,-3.8901,-3.9275,-3.9424,-3.9424,-3.9424,-3.9424,-3.9424,-3.9424,-3.9424,-3.913,0.0,0.0,0.0,0.0,0.0,0.0,0.0,0.6338,0.6251,0.622,0.6498,0.6698,0.6778,0.5745,0.4109,0.1696,0.0622,-0.0,-0.0,-0.2223,-0.4252,-0.5917,-0.6935,-0.8112,-0.9642,-1.0905,-1.2735,-1.5011,-1.6101,-1.6846,-1.7342,-1.863,-1.8868,-1.831,-1.8948,-1.8868,-1.831,-1.831,-1.8027,-1.7871,-1.9817,-2.0209,-1.9516,-1.9226,-1.8309,-1.7119,-1.653,-1.5696,-1.4837,-1.4476,0.0,0.0,0.0,0.0,0.0,0.0,0.0,0.0,0.0,0.0,0.0,0.0,0.0,0.0,0.0,0.0,0.0,0.0,0.0,0.0,0.0,0.0,0.0,0.0,-2.3262,-2.4551,-2.4912,-2.4971,-2.5883,-2.8337,-2.9131,-3.0135,-3.2152,-3.2797,-3.3081,-3.3081,-3.3081,-3.3081,-3.3081,-3.2453,-3.1876,-3.1411,-3.1851,-3.1863,-3.1399,-3.2516,-3.3081,-3.3081,-3.3081,-3.3398,-3.4024,-3.5129,-3.5871,-3.6453,-3.8001,-3.8705,-3.8616,-3.9185,-3.9424,-3.9424,0.0,0.0,0.0,0.0,-3.9104,-3.8517,0.0,0.0,0.0,0.0,0.0,0.0,0.0,0.6338,0.6312,0.6454,0.6607,0.6763,0.7018,0.7085,0.6266,0.4196,0.1918,0.0493,-0.0,-0.0,-0.1586,-0.5152,-0.613,-0.7278,-0.8703,-0.9831,-1.1536,-1.3814,-1.4928,-1.6018,-1.6935,-1.7172,-1.7261,-1.709,-1.7253,-1.7253,-1.709,-1.709,-1.7009,-1.696,-1.7266,-1.7391,-1.7441,-1.7638,-1.6747,-1.5316,-1.5438,-1.4993,-1.4275,-1.4031,0.0,0.0,0.0,0.0,0.0,0.0,0.0,0.0,0.0,0.0,0.0,0.0,0.0,0.0,0.0,0.0,0.0,0.0,0.0,0.0,0.0,0.0,0.0,0.0,-2.373,-2.4844,-2.5625,-2.5742,-2.6197,-2.7494,-2.868,-2.9863,-3.1033,-3.2326,-3.3081,-3.3081,-3.3081,-3.3081,-3.3081,-3.2955,0.0,0.0,0.0,-3.2403,-3.1399,-3.2516,-3.3081,-3.3081,-3.3081,-3.3081,-3.3154,-3.4191,-3.466,-3.463,-3.6874,-3.7726,-3.7734,-3.8931,-3.9424,-3.9424,-3.9424,-3.9424,-3.9394,-3.9245,-3.8576,-3.7814,0.0,0.0,0.0,0.0,0.0,0.0,0.0,0.6338,0.6312,0.6454,0.6607,0.6759,0.6915,0.7078,0.6903,0.645,0.536,0.3337,0.0219,-0.0,-0.0364,-0.1135,-0.4651,-0.6844,-0.7442,-0.8607,-1.0351,-1.2656,-1.3736,-1.4434,-1.4741,-1.6527,-1.6846,-1.6026,-1.6927,-1.6846,-1.6026,-1.6026,-1.5545,-1.4657,-1.3743,-1.5204,-1.7821,-1.7235,-1.6931,-1.6706,-1.5729,-1.5467,-1.5226,-1.3748,-1.3231,-1.3052,-1.1961,-1.2053,0.0,0.0,0.0,0.0,0.0,0.0,0.0,0.0,0.0,0.0,0.0,0.0,0.0,0.0,0.0,0.0,0.0,0.0,0.0,-2.3516,-2.4639,-2.5547,-2.5713,-2.5742,-2.6197,-2.7494,-2.868,-2.9863,-3.1033,-3.2326,-3.3081,-3.3081,-3.3081,-3.3081,-3.3081,-3.2215,-3.1612,-3.1399,-3.1599,-3.1612,-3.1386,-3.2516,-3.3081,-3.3081,-3.3081,0.0,-3.3154,-3.4191,-3.5076,-3.588,-3.7244,-3.8251,-3.905,-3.9305,-3.9424,-3.9424,-3.9424,-3.9424,-3.929,-3.8197,-3.7781,-3.7685,0.0,0.0,0.0,0.0,0.0,0.0,0.0,0.6338,0.6285,0.6359,0.6434,0.6566,0.679,0.6688,0.6579,0.681,0.6341,0.5211,0.3253,0.1205,-0.0,-0.0,-0.215,-0.4457,-0.7048,-0.7647,-0.8591,-0.9702,-1.1428,-1.2316,-1.2345,-1.349,-1.3646,-1.3153,-1.373,-1.3646,-1.3153,-1.3153,-1.2832,-1.226,-1.1729,-1.2552,-1.4307,-1.4005,-1.4034,-1.4103,-1.3674,-1.3673,-1.3572,-1.2786,-1.246,-1.2366,-1.1701,-1.1734,-1.1919,0.0,0.0,0.0,0.0,0.0,0.0,0.0,0.0,0.0,0.0,0.0,0.0,0.0,0.0,-2.0269,-2.0773,0.0,-2.3047,-2.3691,-2.4336,-2.499,-2.5644,-2.5742,-2.6197,-2.7494,-2.868,-2.9863,-3.1033,-3.2326,-3.3081,-3.3081,-3.3081,-3.3081,-3.3081,-3.2541,-3.1976,-3.1411,-3.1938,-3.1964,-3.1399,-3.2516,-3.3081,-3.3081,-3.3081,-3.3081,-3.3167,-3.3641,-3.4733,-3.6198,-3.6774,-3.789,-3.9424,-3.9424,-3.9424,-3.9424,-3.9424,-3.9424,-3.9334,-3.8661,-3.7813,-3.6922,0.0,0.0,0.0,0.0,0.0,0.0,0.0,0.0,0.6271,0.6298,0.6278,0.6363,0.6627,0.6308,0.6125,0.6247,0.6271,0.63,0.6287,0.3117,0.1088,0.071,0.0535,-0.1517,-0.5644,-0.6048,-0.6471,-0.7095,-0.903,-1.0178,-1.0626,-1.0626,-1.0626,-1.0626,-1.0626,-1.0529,-1.0346,-1.0346,-1.0433,-1.0611,-1.0351,-1.0269,-1.0284,-1.0284,-1.0637,-1.1169,-1.1441,-1.163,-1.1637,-1.153,-1.1521,-1.1463,-1.1263,-1.1361,-1.1404,-1.0532,-1.1442,0.0,0.0,0.0,0.0,0.0,0.0,0.0,0.0,-1.5527,-1.6443,-1.6374,-1.8105,-1.9834,-2.0447,-2.1451,-2.2689,-2.3994,-2.417,-2.4531,-2.5586,-2.5742,-2.6197,-2.7494,-2.868,-2.9761,-3.0765,-3.2239,-3.3081,-3.3081,-3.3081,-3.3081,-3.3081,-3.3081,-3.2654,-3.175,-3.2604,-3.2641,-3.1725,-3.2616,-3.3081,-3.3081,-3.3081,-3.3081,-3.3081,-3.3081,-3.4095,-3.5894,-3.6369,-3.7496,-3.9104,-3.9337,-3.9424,-3.9424,-3.9424,-3.9424,-3.9424,-3.9424,-3.8204,-3.6526,0.0,0.0,0.0,0.0,0.0,0.0,0.0,0.0,0.0,0.643,0.6339,0.6322,0.6481,0.6339,0.6034,0.5597,0.6005,0.6277,0.628,0.6,0.5034,0.3295,0.2493,0.1245,-0.0712,-0.2222,-0.4263,-0.7119,-0.7383,-0.8536,-1.0589,-1.0589,-1.0589,-1.0589,-1.0589,-1.0212,-0.9639,-0.9639,-0.9995,-1.0524,-0.9492,-0.9061,-0.8978,-0.7948,-0.9008,-1.1127,-1.1179,-1.1365,-1.1517,-1.0405,-1.0145,-0.9998,-0.8821,-0.9213,-1.0112,-0.9409,-1.0232,-1.1076,-1.0025,-0.9554,-0.9772,-1.1241,-1.2273,-1.3193,0.0,-1.5638,-1.6904,-1.7823,-1.8722,-2.013,-2.2726,-2.3392,-2.3943,-2.5295,-2.5518,-2.5576,-2.5713,-2.5742,-2.6197,-2.7494,-2.868,-2.9498,-2.959,-3.1701,-3.3081,-3.3081,-3.3081,-3.3081,-3.3081,-3.3081,-3.3018,-3.2893,-3.3006,-3.3018,-3.2893,-3.3018,-3.3081,-3.3081,-3.3081,-3.3081,-3.3081,-3.3081,-3.3713,-3.4979,-3.6802,-3.7753,-3.8069,-3.9017,-3.9424,-3.9424,-3.9424,-3.9424,-3.9424,-3.9424,-3.8634,-3.7587,0.0,0.0,0.0,0.0,0.0,0.0,0.0,0.0,0.0,0.0,0.6142,0.6084,0.6322,0.6064,0.5664,0.5148,0.5576,0.5967,0.6099,0.6607,0.6518,0.5714,0.5275,0.4825,0.4109,0.1689,-0.071,-0.2931,-0.3011,-0.4162,-0.6492,-0.6036,-0.6036,-0.6492,-0.6492,-0.631,-0.6125,-0.7485,-0.83,-0.8476,-0.8047,-0.7875,-0.7786,-0.7255,-0.7823,-0.8734,-0.8591,-0.8603,0.0,-0.8348,-0.8195,-0.8142,-0.8028,-0.8153,-0.8309,-0.8262,-0.8869,-0.9572,-0.9238,-0.9133,-0.9442,-1.0253,-1.2075,-1.3764,-1.4259,-1.5544,-1.6819,-1.7092,-1.8054,-1.9346,-2.078,-2.1707,-2.2808,-2.4254,-2.4603,-2.4863,-2.5635,-2.5742,-2.5917,-2.638,-2.7629,-2.8711,-2.9427,-3.1699,-3.2805,-3.2139,-3.2704,-3.3081,-3.3081,-3.3081,-3.3081,-3.3081,-3.3081,-3.3081,-3.3081,-3.3081,-3.3081,-3.3081,-3.3081,-3.3081,-3.3081,-3.3081,-3.4024,-3.5668,-3.719,-3.8144,-3.8782,-3.9192,-3.9424,-3.9424,-3.9424,-3.9017,-3.8472,-3.8472,-3.8234,-3.7753,0.0,0.0,0.0,0.0,0.0,0.0,0.0,0.0,0.0,0.0,0.5993,0.5926,0.636,0.635,0.6098,0.5678,0.5848,0.6108,0.6378,0.7023,0.7532,0.7591,0.7871,0.7782,0.7074,0.4893,0.3109,0.1959,0.133,0.0444,-0.0623,-0.0711,-0.1067,-0.1603,-0.1603,-0.1781,-0.2047,-0.3746,-0.5006,-0.5819,-0.5819,-0.5913,-0.6097,-0.6097,-0.6122,-0.618,-0.6652,-0.6678,-0.6472,-0.6642,-0.688,-0.7084,-0.6938,-0.7111,-0.735,-0.7356,-0.7673,-0.8048,-0.8233,-0.8392,-0.8703,-0.9449,-1.1263,-1.3017,-1.3515,-1.4801,-1.5914,-1.579,-1.7002,-1.8225,-1.8947,-1.9861,-2.118,-2.308,-2.3411,-2.3909,-2.5139,-2.5478,-2.5555,-2.568,-2.6679,-2.7704,-2.868,-3.1156,-3.2403,-3.1901,-3.2616,-3.3081,-3.3081,-3.3081,-3.3081,-3.3081,-3.3081,-3.3081,-3.3081,-3.3081,-3.3081,-3.3081,-3.3081,-3.3081,-3.3081,-3.3081,-3.394,-3.5426,-3.6788,-3.7814,-3.8531,-3.9177,-3.9424,-3.9424,-3.9424,-3.8943,-3.8234,-3.7919,-3.7587,-3.7266,0.0,0.0,0.0,0.0,0.0,0.0,0.0,0.0,0.0,0.0,0.0,0.0,0.0,0.7456,0.7871,0.7628,0.7288,0.7149,0.7253,0.7932,0.8493,0.8873,0.9923,0.9465,0.7179,0.7001,0.6943,0.6917,0.4648,0.4648,0.6735,0.4467,0.339,0.339,0.339,0.2939,0.2222,0.2133,0.0266,-0.2578,-0.2578,-0.3028,-0.3749,-0.3749,-0.3696,-0.3982,-0.6283,-0.6542,-0.5835,-0.5848,-0.6816,-0.7543,-0.4958,-0.5893,-0.7782,-0.6936,-0.6536,-0.651,-0.6976,-0.6757,-0.6864,-0.8861,-0.9362,-0.9884,-1.1616,-1.3028,-1.4063,-1.4305,-1.5464,-1.6856,-1.8415,-1.8739,-1.9595,-2.2245,-2.2614,-2.3074,-2.4258,-2.4824,-2.5222,-2.556,-2.5999,-2.6399,-2.6659,-2.9566,-3.1876,-3.2943,-3.3056,-3.3081,-3.3081,-3.3081,-3.3081,-3.3081,-3.3081,-3.3081,-3.3081,-3.3081,-3.3081,-3.3081,-3.3081,-3.3081,-3.3081,-3.3081,-3.3154,-3.3313,-3.5346,-3.629,-3.6448,-3.8531,-3.9424,-3.9424,-3.9424,-3.9352,-3.9265,-3.8144,-3.7175,-3.6277,0.0,0.0,0.0,0.0,0.0,0.0,0.0,0.0,0.0,0.0,0.0,0.0,0.0,0.0,0.0,0.0,0.779,0.7792,0.7989,0.8618,0.9156,0.9409,1.0198,1.0255,0.9461,0.9461,0.9213,0.8715,0.842,0.8611,0.9376,0.8082,0.7804,0.8181,0.6587,0.5786,0.5513,0.5536,0.4914,0.3746,0.2225,0.1424,0.0798,-0.2384,-0.3641,-0.3689,0.0,-0.4596,-0.425,-0.3644,-0.4448,-0.5476,-0.4367,-0.4631,-0.5143,-0.4284,-0.4397,-0.4973,-0.5786,-0.6397,-0.6987,-0.7681,-0.8804,-0.9957,-1.0538,-1.1648,-1.284,-1.379,-1.3884,-1.4343,-1.5941,-1.6462,-1.7265,-1.8902,-1.9869,-2.1148,-2.2954,-2.278,-2.3113,-2.4586,-2.5168,-2.598,-2.7364,-2.9249,-3.0569,-3.0922,-3.2252,-3.3081,-3.3081,-3.3081,-3.3081,-3.3081,-3.3081,-3.3081,-3.3081,-3.3081,-3.3081,-3.3081,-3.3081,-3.3081,-3.3081,-3.3081,-3.3471,-3.4191,-3.4897,-3.5588,-3.629,-3.7007,-3.7724,-3.8308,-3.8308,-3.8308,-3.8308,-3.7919,-3.7098,-3.6198,0.0,0.0,0.0,0.0,0.0,0.0,0.0,0.0,0.0,0.0,0.0,0.0,0.0,0.0,0.0,0.0,0.0,0.8546,0.8868,0.9331,0.9707,1.0011,1.0794,1.104,1.063,1.12,1.1098,1.0159,1.125,1.1775,1.1815,1.1332,1.1086,1.1144,0.963,0.8669,0.8348,0.838,0.822,0.7757,0.5472,0.4473,0.4018,0.0959,-0.0767,0.0,-0.2149,-0.2289,-0.2242,-0.1633,-0.2065,-0.2824,-0.2647,-0.2576,-0.2461,-0.1883,-0.2149,-0.2669,-0.3339,-0.4513,-0.5844,-0.7123,-0.8322,-0.9327,-0.9316,-1.0288,-1.1556,-1.2909,-1.3105,-1.3381,-1.4645,-1.5085,-1.5762,-1.7391,-1.8406,-1.985,-2.2462,-2.2379,-2.2549,-2.3603,-2.4462,-2.5473,-2.6713,-2.8385,-2.944,-2.9764,-3.1286,-3.2202,-3.2202,-3.2378,-3.2654,-3.3068,-3.3081,-3.3081,-3.3081,-3.3081,-3.3081,-3.3081,-3.3081,-3.3081,-3.3081,-3.3081,-3.3255,-3.3593,-3.4711,-3.5197,-3.5148,-3.6281,-3.693,-3.7266,-3.7266,-3.7266,-3.7266,-3.7266,-3.654,-3.5668,0.0,0.0,0.0,0.0,0.0,0.0,0.0,0.0,0.0,0.0,0.0,0.0,0.0,0.0,0.0,0.0,0.0,0.0,0.9748,1.0014,1.032,1.0662,1.1755,1.1848,1.0795,1.2325,1.2648,1.1587,1.3202,1.3953,1.3953,1.3939,1.3278,1.2218,1.2122,1.1556,1.0509,1.0509,1.0071,0.924,0.7204,0.6152,0.5887,0.5818,0.4357,0.2184,0.0769,0.0123,-0.0,-0.0,-0.0,-0.0,-0.0,-0.0,-0.0,-0.0,-0.0,-0.0,-0.0,-0.129,-0.3374,-0.6758,-0.7769,-0.7969,-0.8045,-0.9023,-1.0284,-1.1516,-1.2731,-1.3713,-1.4187,-1.4263,-1.5014,-1.753,-1.8004,-1.9129,-2.2399,-2.3271,-2.331,-2.2539,-2.3873,-2.4887,-2.5083,-2.7053,-2.8755,-2.9626,-3.0294,-3.067,-3.0696,-3.116,-3.1938,-3.3043,-3.3081,-3.3081,-3.3081,-3.3081,-3.3081,-3.3081,-3.3081,-3.3081,-3.3081,-3.3081,-3.2491,-3.1688,-3.4701,-3.4871,-3.3264,-3.6326,-3.7021,-3.6198,-3.6119,-3.6212,-3.629,-3.6198,-3.5588,-3.4746,0.0,0.0,0.0,0.0,0.0,0.0,0.0,0.0,0.0,0.0,0.0,0.0,0.0,0.0,0.0,0.0,0.0,0.0,1.0374,1.0779,1.1138,1.1211,1.249,1.3098,1.2792,1.3814,1.4248,1.3932,1.4393,1.4559,1.4551,1.4225,1.3601,1.2802,1.1601,1.0645,0.9876,0.905,0.8529,0.83,0.7175,0.6683,0.6561,0.5762,0.5123,0.4478,0.362,0.1907,-0.0,-0.0,-0.0,-0.0,-0.0,-0.0,-0.0,-0.0,-0.0,-0.0,-0.0,-0.0369,-0.0888,-0.1802,-0.5033,-0.7982,-0.7969,-0.8261,-0.8739,-0.9744,-0.9753,-0.9922,-1.1307,-1.1058,-1.148,-1.4101,-1.5161,-1.6488,-1.8699,-2.007,-2.1064,-2.1504,-2.3668,-2.5336,-2.6057,-2.8136,-2.9185,-2.8599,-3.0181,-3.1373,-3.1788,-3.1926,-3.234,-3.3056,-3.3081,-3.3081,-3.3081,-3.3081,-3.3081,-3.3081,-3.3081,-3.3081,-3.3081,-3.3081,-3.2918,-3.2739,-3.35,-3.3546,-3.3161,-3.3991,-3.5047,-3.6132,-3.5359,-3.6001,-3.7266,-3.6526,-3.6053,-3.5748,0.0,0.0,0.0,0.0,0.0,0.0,0.0,0.0,0.0,0.0,0.0,0.0,0.0,0.0,0.0,0.0,0.0,0.0,0.0,1.0868,1.1049,1.1049,1.1831,1.2416,1.2742,1.3763,1.4527,1.5104,1.5687,1.6,1.6228,1.5938,1.5257,1.4199,1.3005,1.1895,1.0842,0.9869,0.9463,0.0,0.0,0.7436,0.7301,0.5658,0.5057,0.5147,0.4687,0.2576,-0.0,-0.0,-0.0,-0.0,-0.0,-0.0,-0.0,-0.0,-0.0,-0.0,-0.0,-0.0,-0.0,-0.0,-0.3116,-0.6305,-0.6438,-0.7084,-0.8008,-0.8828,-0.8632,-0.872,-1.034,-1.0206,-1.0804,-1.3572,-1.5001,-1.6385,-1.8133,-1.9574,-2.082,-2.1857,-2.3664,-2.5529,-2.7082,-2.8791,-2.9528,-2.8888,-2.9754,-3.0444,-3.0758,-3.1248,-3.1876,-3.2667,-3.2943,-3.3081,-3.3081,-3.3081,-3.3081,-3.3081,-3.3081,-3.3081,-3.3081,-3.3081,-3.2805,-3.2449,-3.3423,-3.3275,-3.2462,-3.3423,-3.4178,-3.4802,-3.4191,-3.4979,-3.6411,-3.5748,-3.5814,-3.6132,0.0,0.0,0.0,0.0,0.0,0.0,0.0,0.0,0.0,0.0,0.0,0.0,0.0,0.0,0.0,0.0,0.0,0.0,0.0,0.0,0.0,0.0,1.0555,1.0975,1.1772,1.2931,1.4064,1.5168,1.6262,1.6967,1.7322,1.7398,1.659,1.5042,1.4537,1.3457,1.1978,1.1334,1.1009,1.0738,0.8675,0.7814,0.7608,0.0,0.0,0.4844,0.4389,0.2412,-0.0,-0.0,-0.0,-0.0,-0.0,-0.0,-0.0,-0.0,-0.0,-0.0,-0.0,-0.0,-0.0,-0.0,-0.2312,-0.4565,-0.4904,-0.6207,-0.751,-0.8201,-0.8269,-0.8699,-1.0171,-1.0419,-1.1395,-1.4322,-1.5871,-1.7235,-1.8541,-2.0179,-2.1551,-2.2489,-2.3721,-2.5509,-2.7862,-2.8971,-2.9628,-2.9779,-2.9327,-2.9076,-2.9151,-3.008,-3.111,-3.2177,-3.278,-3.3081,-3.3081,-3.3081,-3.3081,-3.3081,-3.3081,-3.3081,-3.3081,-3.3081,-3.2541,-3.1744,-3.3667,-3.3385,-3.1757,-3.3693,-3.4037,-3.3313,-3.3154,-3.3882,-3.4897,-3.4594,-3.5129,-3.5974,0.0,0.0,0.0,0.0,0.0,0.0,0.0,0.0,0.0,0.0,0.6297,0.6798,0.0,0.0,0.0,0.0,0.0,0.0,0.0,0.0,0.0,0.0,1.0135,1.094,1.1772,1.2637,1.3194,1.3437,1.3627,1.3819,1.3879,1.4234,1.3447,1.1725,1.1946,1.1075,0.9425,0.9314,0.8918,0.8279,0.725,0.6606,0.6073,0.5031,0.0,0.0,0.3143,0.1491,-0.0,-0.0,-0.0,-0.0,-0.0,-0.0,-0.0,-0.0,-0.0,-0.0,-0.0,-0.0,-0.0,-0.0,-0.3633,-0.7275,-0.7384,-0.7285,-0.7168,-0.7042,-0.6716,-0.7088,-0.9119,-0.9534,-1.0438,-1.3046,-1.5104,-1.6063,-1.5279,-1.8623,-2.1202,-2.125,-2.3338,-2.5665,-2.7897,-2.8282,-2.8787,-2.9729,-2.9691,-2.9842,-3.0294,-3.0507,-3.111,-3.2177,-3.278,-3.3081,-3.3081,-3.3081,-3.3081,-3.3081,-3.3081,-3.3081,-3.3081,-3.3081,-3.2968,-3.2792,-3.3237,-3.3126,-3.2792,-3.3237,-3.3797,-3.4345,-3.3484,-3.4249,-3.5734,-3.4024,-3.4024,-3.4815,0.0,0.0,0.0,0.0,0.0,0.0,0.0,0.62,0.6064,0.583,0.58,0.6172,0.7222,0.6981,0.7046,0.0,0.0,0.0,0.0,0.0,0.0,0.0,0.0,0.0,1.1128,1.1715,1.2329,1.3009,0.0,1.2767,1.3,1.3186,1.2731,1.1684,1.1502,1.0565,0.9108,0.8648,0.8055,0.7316,0.6519,0.6094,0.5924,0.0,0.0,0.0,0.0,0.2195,-0.0,-0.0,-0.0,-0.0,-0.0,-0.0,-0.0,-0.0,-0.0,-0.0,-0.0,-0.0,-0.0,-0.0,-0.3025,-0.6163,-0.7121,-0.7118,-0.6753,-0.6146,-0.6183,-0.6851,-0.8363,-0.8985,-1.0331,-1.3642,-1.5488,-1.664,-1.6918,-1.9907,-2.2278,-2.2684,-2.4403,-2.6111,-2.7541,-2.7667,-2.7908,-2.8448,-2.8486,-2.8988,-3.0131,-3.0457,-3.111,-3.2177,-3.2478,-3.2767,-3.3081,-3.3081,-3.3081,-3.3081,-3.3081,-3.3081,-3.3081,-3.3081,-3.3081,-3.3081,-3.3081,-3.2591,-3.1863,-3.2717,-3.2891,-3.2577,-3.2984,-3.4024,-3.5278,-3.4262,-3.4581,-3.5359,0.0,0.0,0.0,0.0,0.0,0.0,0.0,0.6203,0.6074,0.5833,0.5745,0.5891,0.6366,0.6396,0.6724,0.0,0.0,0.0,0.0,0.0,0.0,0.0,0.0,0.0,0.0,0.0,0.0,1.1935,1.1616,0.0,0.0,0.0,0.0,0.0,1.0892,1.0064,0.8854,0.8206,0.7549,0.0,0.0,0.5908,0.0,0.0,0.0,0.0,0.0,0.31,-0.0,-0.0,-0.0,-0.015,-0.0946,-0.0626,-0.0,-0.0,-0.0,-0.0,-0.0,-0.0,-0.0301,-0.1412,-0.2819,-0.4497,-0.6318,-0.6659,-0.6413,-0.5583,-0.6044,-0.6897,-0.7942,-0.8826,-1.0539,-1.4141,-1.5527,-1.677,-1.8699,-2.0896,-2.2886,-2.4326,-2.5554,-2.6651,-2.7723,-2.7595,-2.7557,-2.7808,-2.7821,-2.8398,-2.9729,-3.0319,-3.1009,-3.1838,-3.2129,-3.2541,-3.288,-3.3136,-3.3199,-3.3081,-3.3081,-3.3081,-3.3081,-3.3081,-3.3081,-3.3081,-3.3081,-3.2139,-3.0746,-3.2403,-3.2102,-3.0783,-3.2428,-3.3797,-3.4664,-3.4428,-3.4966,-3.5734,0.0,0.0,0.0,0.0,0.0,0.0,0.0,0.6023,0.5833,0.5803,0.5569,0.5459,0.5509,0.5498,0.5557,0.0,0.0,0.0,0.0,0.0,0.0,0.0,0.0,0.0,0.0,0.0,0.0,0.8468,0.8447,0.0,0.0,0.0,0.0,0.0,0.0,0.8314,0.7294,0.722,0.0,0.0,0.0,0.0,0.0,0.0,0.0,0.0,0.0,0.31,-0.0,-0.0,-0.0,-0.0589,-0.3847,-0.2636,-0.0,-0.0,-0.0,-0.0,-0.0,-0.0,-0.1186,-0.605,-0.5648,-0.4526,-0.6358,-0.6628,-0.6315,-0.5694,-0.5819,-0.6564,-0.8225,-0.9148,-1.0634,-1.3504,-1.3758,-1.4488,-1.718,-1.9294,-2.1528,-2.4157,-2.5657,-2.7276,-2.9376,-2.8624,-2.8461,-2.9478,-2.9566,-2.9628,-2.9779,-3.0319,-3.0658,-3.0758,-3.2042,-3.2571,-3.229,-3.3178,-3.3436,-3.3081,-3.3081,-3.3081,-3.3081,-3.3081,-3.3081,-3.3081,-3.3081,-3.2139,-3.0746,-3.2403,-3.2102,-3.0783,-3.2428,-3.3797,-3.4594,-3.3641,-3.3953,-3.4664,0.0,0.0,0.0,0.0,0.0,0.0,0.6338,0.6162,0.6023,0.5913,0.5722,0.5589,0.541,0.4428,0.422,0.5312,0.0,0.0,0.0,0.0,0.0,0.0,0.0,0.0,0.0,0.0,0.8027,0.8027,0.8027,0.0,0.0,0.0,0.0,0.0,0.0,0.7843,0.7098,0.6973,0.0,0.0,0.0,0.0,0.0,0.0,0.0,0.0,0.0,0.0,-0.0338,-0.2486,-0.3269,-0.334,-0.3635,-0.35,-0.2827,-0.067,-0.1051,-0.182,-0.0432,-0.1094,-0.299,-0.6551,-0.674,-0.6059,-0.6123,-0.6237,-0.6125,-0.5345,-0.6022,-0.7014,-0.7705,-0.9174,-1.1078,-1.3473,-1.4084,-1.5512,-1.9249,-2.1378,-2.339,-2.5849,-2.7577,-2.8435,-2.8335,-2.8421,-2.8869,-2.9877,-2.9437,-2.9823,-3.1422,-3.065,-3.0778,-3.2266,-3.2339,-3.2437,-3.2559,-3.3927,-3.3911,-3.2566,-3.4149,-3.4332,-3.3167,-3.3797,-3.3713,-3.3081,-3.3081,-3.1562,-2.9315,-3.1976,-3.1512,-2.9365,-3.2039,-3.3398,-3.3713,-3.324,-3.3398,-3.3713,0.0,0.0,0.0,0.0,0.0,0.6268,0.6271,0.6321,0.6046,0.5264,0.4994,0.5038,0.5359,0.4236,0.3763,0.4517,0.4573,0.0,0.0,0.0,0.0,0.0,0.0,0.0,0.0,0.0,0.726,0.726,0.726,0.726,0.0,0.0,0.726,0.726,0.0,0.0,0.0,0.0,0.0,0.0,0.0,0.0,0.0,0.0,0.0,0.0,0.0,0.0,0.0,0.0,0.0,-0.5179,-0.3931,-0.4367,-0.4872,-0.2252,-0.2502,-0.3399,-0.234,-0.2869,-0.415,-0.6584,-0.7156,-0.693,-0.5984,-0.594,-0.5834,-0.5189,-0.6173,-0.7155,-0.7386,-0.9091,-1.1107,-1.3164,-1.4309,-1.6249,-1.9983,-2.2065,-2.4014,-2.632,-2.8126,-2.9004,-2.8469,-2.9289,-3.0092,-3.0768,-3.0229,-3.0773,-3.2891,-3.1489,-3.1391,-3.3069,-3.2804,-3.2718,-3.2928,-3.4431,-3.4208,-3.2447,-3.4793,-3.4594,-3.221,-3.4183,-3.414,-3.2378,-3.3183,-3.1775,-2.9063,-3.1901,-3.1411,-2.9126,-3.1964,-3.3081,-3.3081,-3.3081,-3.3081,-3.3081,0.0,0.0,0.0,0.0,0.0,0.0,0.6295,0.6332,0.5569,0.3427,0.291,0.3391,0.5222,0.5413,0.4663,0.2905,0.2755,0.0,0.0,0.0,0.0,0.0,0.0,0.0,0.0,0.0,0.5396,0.5396,0.5396,0.5396,0.5396,0.5396,0.5396,0.5396,0.0,0.0,0.0,0.0,0.0,0.0,0.0,0.0,0.0,0.0,0.0,0.0,0.0,0.0,0.0,0.0,0.0,0.0,0.0,-0.5376,0.0,-0.4928,-0.4283,-0.4076,-0.6378,-0.5375,-0.4166,-0.672,-0.7005,-0.6531,-0.6093,-0.5688,-0.5453,-0.5478,-0.6095,-0.681,-0.7568,-0.883,-1.047,-1.248,-1.4148,-1.5934,-1.8049,-2.0109,-2.2267,-2.4555,-2.6663,-2.8783,-3.0929,-3.2006,-3.2566,-3.2566,-3.2566,-3.3003,-3.3945,-3.3101,-3.2593,-3.2607,-3.3533,-3.3761,-3.3431,-3.4427,-3.4217,-3.2843,-3.4526,-3.3362,-2.997,-3.4203,-3.4165,-3.0813,-3.3532,-3.3135,-3.0721,-3.239,-3.2089,-3.0758,-3.2428,-3.3081,-3.3081,-3.3081,-3.3081,-3.3081,0.0,0.0,0.0,0.0,0.0,0.0,0.0,0.5365,0.6067,0.5375,0.3778,0.3364,0.5179,0.5434,0.4148,0.1149,0.0873,0.0,0.0,0.0,0.0,0.0,0.0,0.0,0.0,0.0,0.173,0.173,0.173,0.173,0.173,0.173,0.173,0.173,0.173,0.2401,0.0,0.0,0.0,0.0,0.0,0.0,-0.0267,0.0,0.0,0.0,0.0,0.0,0.0,0.0,0.0,0.0,0.0,0.0,0.0,-0.6898,-0.5988,-0.5304,-0.6271,-0.598,-0.5606,-0.6069,-0.6192,-0.6156,-0.6162,-0.6013,-0.5984,-0.6235,-0.6853,-0.7551,-0.8277,-0.9526,-1.1368,-1.4033,-1.5314,-1.7253,-2.1049,-2.2969,-2.4823,-2.7067,-2.9169,-3.1172,-3.2905,-3.1762,-3.1889,-3.4389,-3.2912,-3.2804,-3.4912,-3.4773,-3.4558,-3.4558,-3.4177,-3.3977,-3.3817,-3.5288,-3.5022,-3.32,-3.5611,-3.4938,-3.1616,-3.5055,-3.4678,-3.1487,-3.375,-3.3148,-3.0746,-3.2403,-3.2102,-3.0783,-3.2428,-3.3081,-3.3081,-3.3081,-3.3081,-3.3081,0.0,0.0,0.0,0.0,0.0,0.0,0.0,0.3047,0.3952,0.3918,0.2654,0.212,0.3249,0.1909,0.0143,-0.188,-0.144,0.0,0.0,0.0,0.0,0.0,0.0,0.0,0.0,-0.2064,-0.2064,-0.2064,-0.2064,-0.2064,-0.2064,-0.2064,-0.2064,-0.2064,-0.2064,-0.1399,0.0,0.0,0.0,0.0,0.0,0.0,-0.4692,0.0,0.0,0.0,0.0,0.0,0.0,0.0,0.0,0.0,0.0,0.0,0.0,0.0,-0.7254,-0.666,-0.6932,-0.7167,-0.721,-0.6821,-0.6699,-0.663,-0.663,-0.6459,-0.6496,-0.6947,-0.799,-0.887,-0.9068,-1.0866,-1.272,-1.4064,-1.6332,-1.8711,-2.0923,-2.2896,-2.5069,-2.7536,-2.9716,-3.1938,-3.4345,-3.3122,-3.3064,-3.5335,-3.4006,-3.378,-3.5429,-3.5504,-3.5504,-3.5504,-3.4905,-3.4543,-3.4543,-3.5614,-3.5292,-3.3676,-3.5922,-3.5219,-3.1929,-3.5683,-3.5506,-3.2278,-3.4746,-3.4447,0.0,-3.329,-3.286,-3.165,-3.2679,-3.3081,-3.3081,-3.3081,-3.3081,-3.3081,0.0,0.0,0.0,0.0,0.0,0.0,0.0,-0.0,-0.0,-0.0,-0.0327,-0.0486,-0.0475,-0.3863,-0.5894,-0.5434,0.0,0.0,0.0,0.0,0.0,0.0,0.0,0.0,-0.5393,-0.5393,-0.5393,-0.5393,-0.5393,-0.5393,-0.5393,-0.5393,-0.5393,-0.5393,-0.5406,-0.548,0.0,0.0,0.0,0.0,0.0,0.0,0.0,0.0,0.0,0.0,0.0,0.0,0.0,0.0,0.0,0.0,0.0,0.0,0.0,0.0,0.0,0.0,0.0,-0.8588,-0.8777,-0.8413,-0.799,-0.7624,-0.7394,-0.7055,0.0,-0.7788,-0.9486,-1.0661,-1.0234,-1.2734,-1.4478,-1.3362,-1.7326,-2.0101,-1.8594,-2.091,-2.3756,-2.6585,-2.8957,-3.174,-3.5105,-3.5479,-3.5504,-3.5554,-3.5554,-3.5554,-3.5554,-3.5554,-3.5554,-3.5554,-3.5504,-3.5504,-3.5504,-3.5504,-3.4993,-3.3907,-3.56,-3.453,-3.1114,-3.606,-3.6251,-3.3002,-3.6205,-3.6512,-3.4762,-3.465,-3.4037,-3.324,-3.3154,-3.3081,-3.3081,-3.3081,-3.3081,-3.3081,0.0,0.0,0.0,0.0,0.0,0.0,0.0,0.0,0.0,0.0,-0.3205,-0.5453,-0.5416,-0.447,-0.4356,0.0,0.0,0.0,0.0,0.0,0.0,0.0,0.0,0.0,-0.5369,-0.5369,-0.5369,-0.5369,-0.5369,-0.5369,-0.5369,-0.5369,-0.5369,-0.5376,-0.5491,-0.6015,0.0,0.0,0.0,0.0,0.0,0.0,0.0,0.0,0.0,0.0,-0.8286,-0.8276,0.0,0.0,0.0,0.0,0.0,0.0,0.0,0.0,-0.997,-0.9989,-1.0053,0.0,-0.8153,-0.7927,-0.7815,-0.7721,0.0,0.0,0.0,0.0,0.0,0.0,0.0,-1.5216,-1.6674,-1.6849,-1.8981,-2.077,-2.1227,-2.4535,-2.7181,-2.7913,-3.1241,-3.3759,-3.4585,-3.5156,-3.5718,-3.6275,-3.6337,-3.6337,-3.6337,-3.6337,-3.6337,-3.6337,-3.5782,-3.5504,-3.5504,-3.5504,-3.4599,-3.2894,-3.4793,-3.394,-3.0764,-3.5031,-3.5472,-3.2965,-3.5022,-3.564,-3.5056,-3.3939,-3.3797,-3.4275,-3.3398,-3.3081,-3.3081,-3.3081,-3.3081,-3.3081,0.0,0.0,0.0,0.0,0.0,0.0,0.0,0.0,0.0,0.0,0.0,-0.5894,-0.6973,-0.5667,0.0,0.0,0.0,0.0,0.0,0.0,0.0,0.0,0.0,-0.5428,-0.5428,-0.5428,-0.5428,-0.5428,-0.5818,-0.6009,-0.6013,-0.6552,-0.6789,-0.6798,-0.6984,-0.7399,0.0,0.0,0.0,0.0,-0.8636,0.0,0.0,0.0,0.0,0.0,-0.9653,-0.9746,0.0,-1.0467,-1.0629,-1.0558,0.0,0.0,0.0,0.0,-1.0624,-1.0681,-1.1045,-1.0212,-0.9308,-0.9838,-0.9631,-0.9547,-1.0186,0.0,0.0,0.0,0.0,0.0,0.0,-1.593,-1.7164,-1.7981,-1.931,-2.1068,-2.3391,-2.5185,-2.6928,-2.8639,-3.0488,-3.2399,-3.4234,-3.5716,-3.6707,-3.71,-3.716,-3.716,-3.716,-3.716,-3.6964,-3.66,-3.6228,-3.5831,-3.5504,-3.5504,-3.4352,-3.2093,-3.4397,-3.3918,-3.1106,-3.4801,-3.5792,-3.4566,-3.4502,-3.5023,-3.5807,-3.3274,-3.3223,-3.4594,-3.3556,-3.3081,-3.3081,-3.3081,-3.3081,-3.3081,0.0,0.0,0.0,0.0,0.0,0.0,0.0,0.0,0.0,0.0,0.0,0.0,0.0,0.0,0.0,0.0,0.0,0.0,0.0,0.0,0.0,0.0,0.0,-0.5624,-0.5624,-0.5752,-0.583,-0.5855,-0.6544,-0.6929,-0.6964,-0.7932,-0.8461,-0.8533,-0.8687,-0.8936,0.0,0.0,-0.928,-0.9507,-0.9141,0.0,0.0,0.0,0.0,0.0,0.0,0.0,0.0,-1.1597,-1.157,-1.1456,-1.1256,0.0,0.0,0.0,0.0,0.0,-1.1779,-1.1476,-1.1262,-1.2508,-1.2212,-1.1763,-1.2664,0.0,0.0,0.0,0.0,0.0,0.0,-1.6837,-1.8007,-1.8367,-1.9723,-2.1819,-2.5027,-2.5242,-2.6184,-2.9227,-2.9572,-3.0955,-3.4426,-3.6614,-3.7879,-3.7978,-3.7978,-3.7978,-3.7978,-3.7978,-3.7674,-3.6948,-3.6722,-3.6275,-3.5668,-3.5554,-3.4218,-3.1661,-3.4277,-3.4158,-3.1735,-3.4921,-3.6342,-3.6252,-3.4509,-3.4883,-3.649,-3.3237,-3.3049,-3.4709,-3.3759,-3.324,-3.3081,-3.3081,-3.3081,-3.3081,0.0,0.0,0.0,0.0,0.0,0.0,0.0,0.0,0.0,0.0,0.0,0.0,0.0,0.0,0.0,0.0,0.0,0.0,0.0,0.0,0.0,-0.6465,-0.6527,-0.6527,-0.6527,-0.7242,-0.7724,-0.7971,-0.7856,-0.7921,-0.8168,-0.8337,-0.8631,-0.8995,-0.8826,-0.9394,-1.0501,-1.037,-1.0742,-1.1443,-1.1663,0.0,0.0,0.0,0.0,0.0,0.0,0.0,0.0,-1.2378,-1.2284,-1.1837,-1.2037,0.0,0.0,0.0,0.0,0.0,-1.2757,-1.2704,-1.2857,-1.3769,-1.3391,-1.2797,-1.3107,-1.2464,0.0,0.0,0.0,0.0,-1.8894,-2.1649,-2.2911,-2.0377,-2.2751,-2.5167,-2.5758,-2.8538,-3.0461,-3.0335,-3.3313,-3.5679,-3.6393,-3.7232,-3.8035,-3.869,-3.8745,-3.8745,-3.8745,-3.8745,-3.869,-3.8564,-3.7291,-3.6554,-3.6446,-3.5846,-3.4457,-3.2392,-3.4502,-3.4397,-3.2437,-3.4651,-3.5654,-3.5603,-3.4981,-3.5361,-3.6467,-3.5198,-3.4912,-3.5159,-3.4629,-3.3869,-3.3081,-3.3081,-3.3081,-3.3081,0.0,0.0,0.0,0.0,0.0,0.0,0.0,0.0,0.0,0.0,0.0,0.0,0.0,0.0,0.0,0.0,0.0,0.0,0.0,0.0,0.0,-0.7607,-0.7957,-0.7897,-0.7437,-0.7941,-0.8195,-0.8174,-0.8662,-0.8997,-0.9108,-0.9926,-1.0467,-1.0833,-1.0707,-1.101,-1.1613,-1.156,-1.1734,-1.2098,0.0,0.0,0.0,0.0,0.0,0.0,0.0,0.0,0.0,0.0,-1.345,-1.3207,-1.3818,0.0,0.0,0.0,0.0,0.0,-1.3606,-1.3674,-1.4188,-1.655,-1.5349,-1.424,-1.6443,-1.5233,0.0,0.0,0.0,-1.6786,-1.9859,-2.125,-2.2127,-2.2637,-2.6167,-2.8743,-2.8481,-2.9842,-3.1347,-3.2521,-3.3991,-3.5438,-3.6688,-3.817,-3.9172,-3.9542,-3.9542,-3.9542,-3.9542,-3.9542,-3.9368,-3.8908,-3.8213,-3.7467,-3.6615,-3.6275,-3.4682,-3.2018,-3.4382,-3.4277,-3.2063,-3.4427,-3.5504,-3.5444,-3.3755,-3.4401,-3.6268,-3.3368,-3.3526,-3.5456,-3.3951,-3.3405,-3.3373,-3.3212,-3.3081,-3.3081,0.0,0.0,0.0,0.0,0.0,0.0,0.0,0.0,0.0,0.0,0.0,0.0,0.0,0.0,0.0,0.0,0.0,0.0,0.0,0.0,-0.7803,-0.8779,-0.9213,-0.9154,-0.8435,-0.875,-0.8848,-0.8777,-0.952,-0.9959,-1.0086,-1.1344,-1.2024,-1.2305,-1.2305,-1.2305,-1.2305,-1.2305,-1.2445,-1.2572,0.0,0.0,0.0,0.0,0.0,0.0,0.0,0.0,0.0,0.0,0.0,0.0,0.0,0.0,0.0,-1.4275,-1.4179,-1.4231,-1.455,-1.4628,-1.5241,-1.8154,-1.6727,-1.5571,-1.9547,-1.7696,-1.644,0.0,-1.8995,-1.7502,-2.1169,-2.1277,-2.1863,-2.5081,-2.8839,-3.1384,-3.1515,-3.1511,-3.244,-3.5003,-3.481,-3.5284,-3.7347,-3.9089,-4.007,-4.007,-4.007,-4.007,-4.007,-4.007,-3.9833,-3.9193,-3.9016,-3.823,-3.6904,-3.6661,-3.5171,-3.2482,-3.4532,-3.4427,-3.2542,-3.4577,-3.5504,-3.54,-3.335,-3.3903,-3.597,-3.2568,-3.2913,-3.5496,-3.3502,-3.2959,-3.3329,-3.3195,-3.3081,-3.3081,0.0,0.0,0.0,0.0,0.0,0.0,0.0,0.0,0.0,0.0,0.0,0.0,0.0,0.0,0.0,0.0,0.0,0.0,0.0,0.0,-0.9251,-0.9944,-0.999,-0.9867,-0.9559,-1.0128,-1.0712,-1.1152,-1.0712,-1.0803,-1.1266,-1.1724,-1.2024,-1.2305,-1.2305,-1.2305,-1.2305,-1.2305,-1.2806,-1.3528,-1.2638,0.0,0.0,0.0,0.0,0.0,0.0,0.0,0.0,0.0,0.0,0.0,0.0,0.0,-1.582,-1.5766,-1.5826,-1.5933,-1.5965,-1.5768,-1.5873,-1.6901,-1.6358,-1.6612,-2.0571,-1.8272,0.0,-2.1918,-2.2101,-2.203,-2.4426,-2.499,-2.5708,-2.7712,-2.9879,-3.1994,-3.4034,-3.4831,-3.5847,-3.7466,-3.7618,-3.8176,-3.9681,-3.9986,-4.007,-4.007,-4.007,-4.007,-4.007,-4.007,-4.007,-4.002,-3.9315,-3.8525,-3.769,-3.6964,-3.612,-3.522,-3.5415,-3.5415,-3.5235,-3.5415,-3.5504,-3.5489,-3.531,-3.5355,-3.5609,-3.5881,-3.561,-3.4924,-3.446,-3.3436,-3.2361,-3.2867,-3.3081,-3.3081,0.0,0.0,0.0,0.0,0.0,0.0,0.0,0.0,0.0,0.0,0.0,0.0,0.0,0.0,0.0,0.0,0.0,0.0,0.0,-0.9761,-1.0294,-1.1205,-1.1032,-1.0968,-1.1045,-1.1114,-1.1209,-1.1423,-1.1209,-1.1303,-1.171,-1.2004,-1.2198,-1.2305,-1.2879,-1.3171,-1.3157,-1.3521,-1.4041,-1.4577,-1.3932,-1.4374,0.0,0.0,0.0,0.0,0.0,0.0,0.0,0.0,-1.7217,-1.7098,-1.7688,-1.7577,-1.7148,-1.6893,-1.6869,-1.6894,-1.6809,-1.6698,-1.7175,-1.9546,-1.8306,0.0,0.0,-2.0139,-1.9685,-2.4886,-2.3537,-2.1821,-2.3263,-2.6316,-2.8842,-2.9417,-3.1677,-3.3776,-3.4956,-3.5681,-3.6775,-3.8668,-3.8903,-3.9319,-4.047,-4.0625,-4.0449,-4.0121,-4.007,-4.007,-4.007,-4.007,-4.007,-4.007,-3.9782,-3.9049,-3.7806,-3.7515,-3.6707,-3.5504,-3.5504,-3.5504,-3.5504,-3.5504,-3.5504,-3.5504,-3.5504,-3.5504,-3.5454,-3.5104,-3.5058,-3.5146,-3.4139,-3.3315,-3.2571,-3.2174,-3.2026,-3.2077,0.0,0.0,0.0,0.0,0.0,0.0,0.0,0.0,0.0,0.0,0.0,0.0,0.0,0.0,0.0,0.0,0.0,0.0,-1.0783,-1.0924,-1.1335,-1.2004,-1.181,-1.1837,-1.221,-1.2038,-1.1881,-1.1703,-1.1977,-1.2172,-1.236,-1.2949,-1.3237,-1.3237,-1.3882,-1.4171,-1.4227,-1.455,-1.5072,-1.5562,-1.496,-1.5513,0.0,0.0,0.0,0.0,0.0,0.0,0.0,0.0,-1.8536,-1.8286,-1.8904,-1.8584,-1.8017,-1.7989,-1.7765,-1.7597,-1.7751,-1.7485,-1.7811,-2.0559,0.0,0.0,-2.2371,-2.1668,-2.1433,-2.6179,-2.5647,-2.4432,-2.4686,-2.8079,-3.0797,-3.0706,-3.2446,-3.4263,-3.5324,-3.5873,-3.6861,-3.8754,-3.8971,-3.9451,-4.0565,-4.0655,-4.0497,-4.0121,-4.007,-4.007,-4.007,-4.007,-4.007,-4.007,-4.007,-3.9332,-3.7822,-3.7822,-3.7011,-3.5504,-3.5504,-3.5504,-3.5504,-3.5504,-3.5504,-3.5504,-3.5504,-3.5504,-3.5439,-3.4758,-3.4543,-3.4549,-3.4087,-3.3186,-3.2057,-3.1932,-3.1618,-3.1449,0.0,0.0,0.0,0.0,0.0,0.0,0.0,0.0,0.0,0.0,0.0,0.0,0.0,0.0,0.0,0.0,0.0,0.0,-1.0783,-1.1768,-1.2305,-1.2305,-1.2305,-1.2438,-1.2808,-1.3107,-1.3006,-1.2305,-1.3237,-1.3588,-1.3352,-1.4576,-1.5234,-1.5242,-1.5234,-1.5234,-1.5234,-1.5234,-1.579,-1.6558,-1.5579,-1.6254,-1.7701,0.0,0.0,0.0,0.0,0.0,0.0,0.0,-1.9287,-1.9209,-1.8779,-1.835,-1.8212,-1.9054,-1.8595,-1.8047,-1.8884,-1.817,-1.7511,-1.9197,0.0,0.0,-2.3813,-2.2671,-2.1421,-2.5229,-2.8857,-3.091,-2.9778,-3.0539,-3.1413,-3.1646,-3.2043,-3.3085,-3.5301,-3.5622,-3.618,-3.7719,-3.7953,-3.8529,-3.9985,-4.0138,-4.0121,-4.007,-4.007,-4.007,-4.007,-4.007,-4.007,-4.007,-4.007,-3.9332,-3.7822,-3.7806,-3.7071,-3.5504,-3.5504,-3.5504,-3.5504,-3.5504,-3.5504,-3.5504,-3.5504,-3.5504,-3.5504,-3.5504,-3.4341,-3.2804,-3.4313,-3.3104,-3.0817,-3.2228,-3.2197,-3.1373,0.0,0.0,0.0,0.0,0.0,0.0,0.0,0.0,0.0,0.0,0.0,0.0,0.0,0.0,0.0,0.0,0.0,0.0,-1.1848,-1.215,-1.2305,-1.2305,-1.2305,-1.2345,-1.2432,-1.3708,-1.4401,-1.445,-1.5049,-1.5389,-1.5446,-1.5273,-1.5367,-1.5671,-1.5998,-1.6175,-1.6245,-1.6872,-1.7295,-1.7522,-1.6599,-1.7276,-1.88,0.0,0.0,0.0,0.0,0.0,0.0,0.0,0.0,0.0,-1.989,-1.9527,-1.9235,-2.0882,-2.0599,-1.9965,-2.085,-1.99,-1.8982,-2.0084,-1.9581,-1.9342,0.0,-2.246,0.0,0.0,-2.9032,-2.9659,-2.8247,-3.1445,-3.3822,-3.2362,-3.3507,-3.4975,-3.6011,-3.6481,-3.7444,-3.9376,-3.994,-4.0431,-4.1218,-4.1286,-4.0938,-4.0171,-4.007,-4.007,-4.007,-4.007,-4.007,-4.007,-4.007,-3.961,-3.858,-3.858,-3.7774,-3.6275,-3.6275,-3.6006,-3.5504,-3.5504,-3.5504,-3.5504,-3.5504,-3.5504,-3.5504,-3.5504,-3.5148,-3.4572,-3.3606,-3.2739,-3.1904,-3.0996,-3.0479,-3.0319,0.0,0.0,0.0,0.0,0.0,0.0,0.0,0.0,0.0,0.0,0.0,0.0,0.0,0.0,0.0,0.0,0.0,0.0,0.0,-1.2305,-1.2305,-1.2305,-1.2305,-1.2659,-1.3448,-1.4993,-1.6037,-1.6669,-1.6692,-1.6698,-1.6684,-1.6597,-1.6652,-1.6928,-1.7055,-1.7166,-1.7157,-1.762,-1.7945,-1.8217,-1.763,-1.8451,-1.9998,0.0,0.0,0.0,0.0,0.0,0.0,0.0,0.0,0.0,-2.0722,-2.0676,-2.0686,-2.1752,-2.1786,-2.1557,-2.2185,-2.1362,-2.0555,-2.1968,-2.0891,-1.9913,-2.1547,-2.3362,-2.561,-2.9015,-3.0538,-3.0923,-2.9996,-3.2982,-3.5182,-3.3829,-3.4742,-3.5783,-3.6333,-3.6481,-3.7201,-3.8972,-3.959,-4.0086,-4.0637,-4.0948,-4.0861,-4.0171,-4.007,-4.007,-4.007,-4.007,-4.007,-4.007,-4.007,-3.9714,-3.8908,-3.8635,-3.8003,-3.7084,-3.6722,-3.6399,-3.5958,-3.5604,-3.5504,-3.5504,-3.5504,-3.5504,-3.5504,-3.5504,-3.5279,-3.4839,-3.4041,-3.3031,-3.196,-3.1193,-3.0432,-2.9842,0.0,0.0,0.0,0.0,0.0,0.0,0.0,0.0,0.0,0.0,0.0,0.0,0.0,0.0,0.0,0.0,0.0,0.0,0.0,0.0,-1.2445,-1.2445,-1.2519,-1.3462,-1.5355,-1.6562,-1.771,-1.8691,-1.8118,-1.7669,-1.7379,-1.818,-1.8603,-1.8684,-1.8331,-1.8134,-1.825,-1.7903,-1.8131,-1.8659,-1.8564,-1.963,-2.1119,-2.0584,0.0,0.0,0.0,0.0,0.0,0.0,0.0,0.0,-2.1453,-2.1722,-2.2172,-2.2143,-2.2492,-2.2971,-2.3232,-2.2523,-2.2108,-2.4042,-2.1933,-2.0304,-2.3933,-2.5392,-2.7096,-3.072,-3.2408,-3.3329,-3.3534,-3.4704,-3.5622,-3.5622,-3.5622,-3.5783,-3.6266,-3.5941,-3.6127,-3.7353,-3.7843,-3.832,-3.9001,-3.973,-4.0171,-4.0121,-4.007,-4.007,-4.007,-4.007,-4.007,-4.007,-4.007,-3.9731,-3.9032,-3.8358,-3.7978,-3.7863,-3.7084,-3.6676,-3.6554,-3.5894,-3.5554,-3.5504,-3.5504,-3.5504,-3.5504,-3.5504,-3.4986,-3.4245,-3.5052,-3.3699,-3.1389,-3.2177,-3.1341,-2.9792,0.0,0.0,0.0,0.0,0.0,0.0,0.0,0.0,0.0,0.0,0.0,0.0,0.0,0.0,0.0,0.0,0.0,0.0,0.0,0.0,-1.3382,-1.3382,-1.4171,-1.5224,-1.6759,-1.7063,-1.7849,-1.915,-1.902,-1.8937,-1.8831,-1.8317,-1.8645,-1.9617,-1.9173,-1.9431,-2.0096,-2.0303,-2.003,-1.9423,-1.9122,-1.9898,-2.1074,-2.0195,-2.082,0.0,0.0,0.0,0.0,0.0,0.0,0.0,-2.2078,-2.2116,-2.2266,-2.3747,-2.4275,-2.4424,-2.4918,-2.3941,-2.2686,-2.2297,-2.2114,-2.3529,-2.9154,-2.9899,-2.9849,-3.124,-3.0938,-3.1083,-3.3233,-3.4704,-3.5622,-3.5622,-3.5622,-3.5667,-3.5739,-3.6028,-3.6567,-3.748,-3.85,-3.9268,-3.9606,-4.0302,-4.0528,-4.0121,-4.007,-4.007,-4.007,-4.007,-4.007,-4.007,-4.007,-4.002,-3.9833,-3.9679,-3.9279,-3.8635,-3.7905,-3.7219,-3.66,-3.6446,-3.6054,-3.5504,-3.5504,-3.5504,-3.5504,-3.5504,-3.5359,-3.5133,-3.4543,-3.3463,-3.2249,-3.1669,-3.0771,-2.9792,0.0,0.0,0.0,0.0,0.0,0.0,0.0,0.0,0.0,0.0,0.0,0.0,0.0,0.0,0.0,0.0,0.0,0.0,0.0,0.0,-1.445,-1.445,-1.5384,-1.6184,-1.6883,-1.7333,-1.8148,-1.9283,-1.9283,-1.9384,-1.9586,-1.9121,-1.9489,-2.0482,-2.0084,-2.0204,-2.059,-2.0602,-2.05,-2.0369,-2.0104,-2.0868,-2.2036,-2.1244,-2.1614,-2.2626,-2.258,0.0,0.0,0.0,0.0,0.0,0.0,0.0,-2.3364,-2.3867,-2.4393,-2.482,-2.4833,-2.4582,-2.4293,-2.4185,-2.5799,-2.8011,-3.0522,-3.15,-3.2048,-3.2407,-3.2229,-3.253,-3.428,-3.5143,-3.5622,-3.5622,-3.5622,-3.5694,-3.5941,-3.6011,-3.6414,-3.7438,-3.8261,-3.8908,-3.9363,-4.01,-4.0417,-4.0121,-4.007,-4.007,-4.007,-4.007,-4.007,-4.007,-4.007,-4.007,-4.007,-3.9731,-3.9489,-3.9437,-3.8318,-3.7397,-3.6615,-3.6228,-3.5831,-3.5504,-3.5504,-3.5504,-3.5504,-3.5504,-3.5504,-3.5439,-3.4905,-3.4109,-3.3171,-3.2249,-3.1267,-3.0419,0.0,0.0,0.0,0.0,0.0,0.0,0.0,0.0,0.0,0.0,0.0,0.0,0.0,0.0,0.0,0.0,0.0,0.0,0.0,0.0,0.0,-1.5658,-1.6455,-1.6968,-1.7144,-1.7872,-1.8694,-1.9613,-1.9539,-1.9905,-2.0497,-2.036,-2.0769,-2.1553,-2.1277,-2.1069,-2.1014,-2.0653,-2.0789,-2.1391,-2.126,-2.1945,-2.3015,-2.2523,-2.2493,-2.2831,-2.3554,-2.3599,-2.3352,-2.3729,0.0,0.0,0.0,0.0,-2.4343,-2.3353,-2.3941,-2.472,-2.4268,-2.4974,-2.6178,-2.7429,-2.9694,-3.1449,-3.0925,-3.2079,-3.3486,-3.3923,-3.4421,-3.4973,-3.5609,-3.5852,-3.6011,-3.6011,-3.6011,-3.6129,-3.6578,-3.6307,-3.6395,-3.7464,-3.7865,-3.8328,-3.8937,-3.9648,-4.007,-4.007,-4.007,-4.007,-4.007,-4.007,-4.007,-4.007,-4.007,-4.007,-4.007,-3.9437,-3.9368,-3.9885,-3.8318,-3.716,-3.6384,-3.5782,-3.5504,-3.5504,-3.5504,-3.5504,-3.5504,-3.5504,-3.5504,-3.5504,-3.5504,-3.4905,-3.3876,-3.2961,-3.2033,-3.1031,0.0,0.0,0.0,0.0,0.0,0.0,0.0,0.0,0.0,0.0,0.0,0.0,0.0,0.0,0.0,0.0,0.0,0.0,0.0,0.0,0.0,-1.7579,-1.7725,-1.836,-1.9455,-1.923,-1.9687,-2.0941,-2.0597,-2.1323,-2.2983,-2.223,-2.2366,-2.3195,-2.3124,-2.2979,-2.275,-2.2676,-2.2499,-2.2135,-2.2122,-2.2518,-2.3015,-2.2523,-2.2952,-2.3729,-2.3366,-2.3167,-2.3156,-2.3203,-2.3251,0.0,0.0,0.0,-2.3265,-2.3115,-2.3941,-2.4808,-2.4732,0.0,-2.748,0.0,-2.9747,-3.0061,-3.3847,-3.3632,-3.3292,-3.5692,-3.5854,-3.555,-3.5658,-3.6737,-3.7601,-3.7601,-3.7601,-3.7601,-3.7678,-3.7648,-3.7635,-3.7814,-3.8444,-3.8886,-3.8988,-3.9648,-4.007,-4.007,-4.007,-4.007,-4.007,-4.007,-4.007,-4.007,-4.007,-4.007,-4.007,-4.0003,-3.9662,-3.9032,-3.7483,-3.6337,-3.5604,-3.5554,-3.5504,-3.5504,-3.5504,-3.5504,-3.5504,-3.5504,-3.5504,-3.5504,-3.5504,-3.4905,-3.3876,-3.2961,-3.2033,-3.1031,0.0,0.0,0.0,0.0,0.0,0.0,0.0,0.0,0.0,0.0,0.0,0.0,0.0,0.0,0.0,0.0,0.0,0.0,0.0,0.0,0.0,-1.8008,-1.8462,-1.9003,-1.9525,-1.9856,-2.0562,-2.1562,-2.1406,-2.2645,-2.516,-2.4808,-2.4481,-2.4235,-2.489,-2.4422,-2.3115,-2.3816,-2.3577,-2.2774,-2.2774,-2.2905,-2.3059,-2.2817,-2.308,-2.348,-2.3167,-2.3078,-2.3078,-2.3078,-2.3078,-2.3078,-2.3078,0.0,0.0,0.0,-2.3428,-2.4267,-2.6078,-2.6857,-2.8071,0.0,-3.1156,-3.0672,-3.4603,-3.3948,-3.3186,-3.5533,-3.609,-3.6337,-3.6788,-3.7063,-3.7385,-3.7858,-3.7905,-3.7905,-3.7905,-3.7905,-3.8058,-3.8464,-3.8802,-3.9157,-3.9563,-3.9884,-4.007,-4.007,-4.007,-4.007,-4.007,-4.007,-4.007,-4.007,-4.007,-4.007,-4.007,-4.007,-3.9506,-3.8246,-3.7616,-3.6646,-3.5504,-3.5504,-3.5504,-3.5504,-3.5504,-3.5504,-3.5504,-3.5504,-3.5504,-3.5504,-3.5504,-3.5213,-3.4691,-3.3739,-3.282,-3.1815,0.0,0.0,0.0,0.0,0.0,0.0,0.0,0.0,0.0,0.0,0.0,0.0,0.0,0.0,0.0,0.0,0.0,0.0,0.0,0.0,0.0,-1.8337,-1.8977,-1.9497,-1.9944,-2.059,-2.1365,-2.2187,-2.2187,-2.3536,-2.605,-2.6327,-2.6025,-2.5272,-2.6101,-2.5536,-2.4017,-2.4582,-2.433,-2.3503,-2.3503,-2.3355,-2.3109,-2.3105,-2.3106,-2.3109,-2.3105,-2.3078,-2.3078,-2.3078,-2.3078,-2.3078,-2.3078,-2.3078,0.0,0.0,0.0,-2.3965,-2.667,0.0,-2.8201,-3.1833,-3.113,-3.0298,-3.3305,-3.2841,-3.2332,-3.4337,-3.5594,-3.6582,-3.7367,-3.7339,-3.7533,-3.8349,-3.8464,-3.8464,-3.8464,-3.8464,-3.8667,-3.9208,-3.9276,-3.9478,-4.002,-4.007,-4.007,-4.007,-4.007,-4.007,-4.007,-4.007,-4.007,-4.007,-4.007,-4.007,-4.007,-3.9901,-3.9226,-3.8092,-3.7863,-3.7055,-3.5782,-3.5782,-3.5668,-3.5504,-3.5504,-3.5504,-3.5504,-3.5504,-3.5504,-3.5504,-3.5504,-3.5504,-3.5359,-3.4394,-3.338,-3.2464,0.0,0.0,0.0,0.0,0.0,0.0,0.0,0.0,0.0,0.0,0.0,0.0,-1.3673,-1.5367,-1.6567,-1.6636,0.0,0.0,0.0,0.0,0.0,-1.9177,-1.9309,0.0,-2.1753,-2.1815,-2.2261,-2.3017,-2.3017,-2.3679,-2.4933,-2.5963,-2.6496,-2.6445,-2.6496,-2.6458,-2.6294,-2.5234,-2.4795,-2.4732,-2.4732,-2.4042,-2.3103,-2.3078,-2.309,-2.3103,-2.3078,-2.3078,-2.3078,-2.3078,-2.3078,-2.3078,-2.3078,-2.3078,-2.3078,0.0,0.0,0.0,-2.5682,-2.6748,0.0,-2.9042,-2.8086,-2.7335,-2.9415,-2.9804,-3.0298,-3.2258,-3.4173,-3.5767,-3.6507,-3.785,-3.9023,-3.9834,-3.9969,-3.9969,-3.9969,-3.9969,-3.9986,-4.002,-4.002,-4.0037,-4.007,-4.007,-4.007,-4.007,-4.007,-4.007,-4.007,-4.007,-4.007,-4.007,-4.007,-4.007,-4.007,-3.9315,-3.8908,-3.8854,-3.8133,-3.7338,-3.6554,-3.6554,-3.6165,-3.5504,-3.5504,-3.5504,-3.5504,-3.5504,-3.5504,-3.5504,-3.5504,-3.5504,-3.5359,-3.4394,-3.338,-3.2464,0.0,0.0,0.0,0.0,0.0,0.0,0.0,0.0,0.0,0.0,0.0,0.0,0.0,-1.6878,-1.7501,-1.7501,-1.7794,0.0,0.0,0.0,0.0,-2.0074,-2.0655,-2.1239,-2.1877,-2.2384,-2.2823,-2.3078,-2.3078,-2.3654,-2.4833,-2.5222,-2.5787,-2.6596,-2.7959,-2.7406,-2.5473,-2.649,-2.5699,-2.3866,-2.5297,-2.4766,-2.3207,-2.3891,-2.4646,-2.5116,-2.3638,-2.3602,-2.4104,-2.3315,-2.3078,-2.3078,-2.3078,-2.3078,-2.3078,-2.3078,-2.3305,-2.3922,-2.5751,0.0,0.0,-2.8773,-2.7335,-2.6078,-2.8936,-2.9579,-2.9789,-3.0492,-3.323,-3.5341,-3.4852,-3.6651,-3.8414,-3.9209,-3.9782,-4.007,-4.007,-4.007,-4.007,-4.007,-4.007,-4.007,-4.007,-4.007,-4.007,-4.007,-3.7855,-3.755,-3.9952,-3.7804,-3.7601,-4.0003,-4.007,-4.007,-4.007,-3.9833,-3.9437,-3.8908,-3.8635,-3.8133,-3.7338,-3.6859,-3.6446,-3.6165,-3.5733,-3.5504,-3.5504,-3.5504,-3.5504,-3.5504,-3.5504,-3.5504,-3.5439,-3.5067,-3.3973,-3.2522,0.0,0.0,0.0,0.0,0.0,0.0,0.0,0.0,0.0,-1.4632,0.0,0.0,0.0,0.0,-1.8008,-1.8008,-1.8008,-1.8395,-1.9233,-1.9299,-1.9814,-2.0974,-2.1616,-2.2013,-2.2322,-2.2823,-2.3078,-2.3078,-2.3078,-2.3466,-2.4268,-2.4644,-2.5209,-2.5988,-2.7846,-2.7657,-2.6013,-2.7482,-2.6829,-2.4895,-2.6013,-2.5762,-2.4603,-2.473,-2.5046,-2.5247,-2.4519,-2.4595,-2.4897,-2.4406,-2.4004,-2.3703,-2.3703,-2.3439,-2.3125,-2.3424,-2.3508,-2.394,-2.5619,-2.5325,-2.5034,-2.7357,-2.6093,-2.4866,-2.7081,-2.8607,-2.9579,-2.9579,-3.2751,-3.5277,-3.4422,-3.6013,-3.7732,-3.8745,-3.9368,-3.9782,-4.007,-4.007,-4.007,-4.007,-4.007,-4.007,-4.007,-4.007,-4.007,-4.007,-3.777,-3.7449,-3.9952,-3.7719,-3.7499,-4.0003,-4.007,-4.007,-4.007,-4.007,-3.9833,-3.9315,-3.9315,-3.8924,-3.8133,-3.76,-3.7068,-3.6554,-3.6054,-3.5733,-3.5504,-3.5504,-3.5504,-3.5504,-3.5504,-3.5504,-3.5504,-3.5504,-3.4274,-3.2593,0.0,0.0,0.0,0.0,0.0,0.0,0.0,0.0,-1.3932,-1.4792,0.0,0.0,0.0,0.0,0.0,-1.8008,-1.8008,-1.8405,-1.9299,-1.9365,-2.0139,-2.1877,0.0,0.0,-2.3065,-2.3078,-2.3078,-2.3078,-2.3078,-2.3078,-2.3103,-2.4255,-2.477,-2.482,-2.5912,-2.7005,-2.8009,-2.8084,-2.8047,-2.7883,-2.6929,-2.6929,-2.7284,-2.5529,-2.4156,-2.347,-2.5697,-2.6022,-2.5509,-2.6287,-2.5737,-2.482,-2.4782,-2.4004,-2.322,-2.4034,-2.4323,-2.4524,0.0,0.0,0.0,-2.4552,-2.4088,-2.3595,-2.3595,-2.6662,-2.949,-2.949,-3.2647,-3.5415,-3.5415,-3.6072,-3.7068,-3.8564,-3.8854,-3.9139,-3.9901,-4.007,-4.007,-4.002,-4.007,-4.007,-4.007,-4.007,-4.007,-4.007,-3.9969,-3.9952,-4.007,-4.007,-4.007,-4.007,-4.007,-4.007,-4.007,-4.007,-4.007,-4.007,-4.007,-3.9662,-3.8908,-3.8908,-3.8044,-3.66,-3.6584,-3.6134,-3.5474,-3.5489,-3.5504,-3.5504,-3.5504,-3.5504,-3.5504,-3.5504,-3.4274,-3.2593,0.0,0.0,0.0,0.0,0.0,0.0,-1.3975,-1.4501,-1.5277,0.0,0.0,0.0,-1.8556,-1.8308,-1.8008,-1.8008,-1.8008,-1.8664,-2.0139,-2.0268,-2.0974,-2.2689,-2.2763,-2.2884,-2.3078,-2.3078,-2.3078,-2.3078,-2.3078,-2.3078,-2.3078,-2.3391,-2.3602,-2.3653,-2.477,-2.5448,-2.5837,-2.7431,-2.6716,-2.4757,-2.7695,-2.7062,-2.452,-2.6427,-2.6201,-2.4893,-2.6063,-2.6357,-2.6249,-2.6445,-2.6085,-2.5478,-2.4684,-2.3577,-2.2652,-2.3363,-2.3279,-2.3137,-2.3872,0.0,0.0,0.0,0.0,0.0,-2.3595,-2.5585,-2.741,-2.741,-3.0582,-3.3335,-3.3335,-3.4691,-3.6117,-3.7068,-3.7716,-3.8206,-3.8374,-3.887,-3.9032,-3.8486,-3.9401,-3.9885,-3.9315,-3.9782,-4.007,-4.007,-3.7567,-3.7212,-3.9935,-4.007,-4.007,-4.007,-4.007,-4.007,-4.007,-4.007,-4.007,-4.007,-4.007,-3.9952,-3.9731,-3.9139,-3.8414,-3.7424,-3.6328,-3.5493,-3.4801,-3.5295,-3.5504,-3.5504,-3.5504,-3.5504,-3.5504,-3.5504,-3.4274,-3.2593,0.0,0.0,0.0,0.0,0.0,-1.425,-1.4734,-1.5143,-1.6048,0.0,0.0,0.0,-1.8689,-1.8311,-1.8144,-1.8529,-1.8519,-1.9299,-2.1037,-2.1164,-2.1741,-2.3065,-2.3078,-2.3078,-2.3078,-2.3078,-2.3078,-2.3078,-2.3078,-2.3078,-2.3078,-2.3078,-2.3078,-2.3103,-2.3766,-2.4117,-2.423,-2.5988,-2.6138,-2.5398,-2.7544,-2.7406,-2.6076,-2.7544,-2.744,-2.6671,-2.8011,-2.8132,-2.7868,-2.8739,-2.8199,-2.7077,-2.6586,-2.5101,-2.376,-2.4412,-2.3987,-2.332,-2.3516,-2.3583,-2.3567,-2.3598,0.0,0.0,-2.3595,-2.5794,-2.7829,-2.7829,-3.1001,-3.3425,-3.2317,-3.3051,-3.3952,-3.4424,-3.4883,-3.5797,-3.753,-3.8149,-3.8246,-3.7863,-3.8596,-3.8941,-3.8469,-3.8887,-3.9279,-3.961,-3.7552,-3.7448,-3.9969,-4.007,-4.007,-4.007,-4.007,-4.007,-4.007,-4.007,-4.007,-4.007,-4.007,-4.007,-4.007,-3.961,-3.8635,-3.7326,-3.6453,-3.5318,-3.4098,-3.4502,-3.4666,-3.4666,-3.4666,-3.4831,-3.507,-3.507,-3.4028,-3.2593,0.0,0.0,-1.4088,-1.4088,-1.4088,-1.4496,-1.5538,-1.5779,-1.6593,0.0,-1.8348,-1.7925,-1.7959,-1.8008,-1.8337,-1.9233,-1.9299,-2.0009,-2.1815,-2.1877,-2.2261,-2.3078,-2.3078,-2.3078,-2.3078,-2.3078,-2.3078,-2.3078,-2.3078,-2.3078,-2.3078,-2.3078,-2.3078,-2.3078,0.0,0.0,-2.314,-2.4205,-2.5837,-2.7682,-2.6942,-2.7758,-2.934,-2.8574,-2.8147,-2.823,-3.0303,-3.0296,-2.968,-3.1689,-3.091,-2.9091,-2.9191,-2.7513,-2.5605,-2.6148,-2.5402,-2.4287,-2.3797,-2.3628,-2.3595,-2.3595,-2.3595,0.0,-2.3595,-2.6363,-2.8981,-2.9205,-3.2048,-3.3844,-3.1614,-3.121,-3.1123,-3.1106,-3.1091,-3.2494,-3.6542,-3.7441,-3.752,-3.716,-3.7498,-3.7748,-3.7706,-3.7764,-3.8092,-3.8745,-3.8854,-3.9262,-4.007,-4.007,-4.007,-4.007,-4.007,-4.007,-4.007,-4.007,-4.007,-4.007,-4.007,-4.007,-4.007,-4.007,-3.8864,-3.6774,-3.6694,-3.543,-3.338,-3.3305,-3.3365,-3.3499,-3.3499,-3.3844,-3.4367,-3.4367,-3.355,-3.24,0.0,-1.4088,-1.4088,-1.4088,-1.4088,-1.4496,-1.5538,-1.6437,-1.7496,-1.8798,-1.8966,-1.874,-1.8105,-1.8008,-1.8337,-1.9233,-1.9299,-2.0009,-2.1815,-2.1877,-2.2261,-2.3078,-2.3078,-2.3078,-2.3078,-2.3078,-2.3078,-2.3078,-2.3078,-2.3078,-2.3078,-2.3078,-2.3078,-2.3078,-2.3078,-2.3078,-2.309,-2.3315,-2.4243,-2.5598,-2.7155,-2.7519,-2.7281,-2.8863,-2.8348,-2.7112,-2.9277,-2.9339,-2.8605,-3.0389,-3.0296,-2.9322,-2.8739,-2.7499,-2.6106,-2.5171,-2.441,-2.3829,-2.3644,-2.3612,-2.3595,-2.3595,-2.3595,0.0,-2.3595,-2.4208,-2.5226,-2.6841,-2.7799,-2.8502,-2.9071,-2.9175,-2.8996,-2.8427,-2.8338,-2.9357,-3.2288,-3.5074,-3.5809,-3.3041,-3.5707,-3.7573,-3.6904,-3.7397,-3.7863,-3.7978,-3.858,-3.9262,-4.007,-4.007,-4.007,-4.007,-4.007,-4.007,-4.007,-4.007,-4.007,-4.007,-4.007,-4.007,-4.007,-4.007,-3.8864,-3.6742,-3.6236,-3.4726,-3.2662,-3.2138,-3.2542,-3.3499,-3.3499,-3.3574,-3.3694,-3.3694,-3.2608,-3.1157,-1.4088,-1.4088,-1.4088,-1.4088,-1.4088,-1.4559,-1.5793,-1.6573,-1.761,-1.9204,-1.9187,-1.8721,-1.8076,-1.8008,-1.8337,-1.9233,-1.9683,-2.0526,-2.1815,-2.2261,-2.2702,-2.3065,-2.3078,-2.3078,-2.3078,-2.3078,-2.3078,-2.3078,-2.3078,-2.3078,-2.3078,-2.3078,-2.3078,-2.3078,-2.3078,-2.3078,-2.3078,-2.3078,-2.3791,-2.4971,-2.6628,-2.7281,-2.7469,-2.9151,-2.9101,-2.8333,-2.9945,-3.075,-3.1056,-3.1274,-3.1411,-3.1316,-3.0506,-2.9218,-2.77,-2.6029,-2.5101,-2.4452,-2.3422,-2.3377,-2.3595,-2.3595,-2.3595,0.0,0.0,-2.4373,-2.5375,-2.6378,-2.738,-2.7784,-2.6797,-2.6617,-2.6393,-2.5704,-2.5585,-2.6048,-2.7395,-3.1293,-3.3939,-3.3576,-3.537,-3.6477,-3.6117,-3.643,-3.6829,-3.7144,-3.823,-3.9086,-3.9489,-3.9901,-4.007,-4.007,-4.007,-4.007,-4.007,-4.007,-4.007,-4.007,-4.007,-4.007,-4.007,-4.007,-3.8716,-3.6284,-3.5947,-3.4319,-3.2003,-3.1616,-3.1928,-3.2512,-3.2512,-3.2721,-3.2945,-3.252,-3.1661,-3.073,-1.4001,-1.4048,-1.4088,-1.4088,-1.4334,-1.4873,-1.6044,-1.6757,-1.7778,-1.958,-1.9189,-1.8633,-1.8291,-1.8105,-1.8464,-1.9684,-2.0479,-2.1243,-2.2075,-2.296,-2.3303,-2.3078,-2.3078,-2.3078,-2.3078,-2.3078,-2.3078,-2.3078,-2.3078,-2.3078,-2.3078,-2.3078,-2.3078,-2.3078,-2.3078,-2.319,-2.3403,-2.3403,-2.4104,-2.5234,-2.6339,-2.718,-2.7934,-2.9277,-2.9654,-2.9631,-3.0543,-3.1888,-3.3058,-3.1952,-3.2076,-3.2572,-3.1789,-3.0453,-2.8847,-2.7041,-2.6021,-2.5058,-2.333,-2.3231,-2.3595,-2.3595,-2.3595,-2.3595,0.0,0.0,0.0,-2.6019,-2.7305,-2.753,-2.4612,-2.4014,-2.3834,-2.3146,-2.2936,-2.3071,-2.3699,-2.738,-3.0806,-3.2961,-3.3664,-3.3933,-3.3799,-3.4247,-3.5135,-3.6507,-3.7758,-3.8564,-3.8908,-3.9489,-3.9952,-4.0087,-4.007,-4.007,-4.007,-4.007,-4.007,-4.007,-4.007,-4.007,-4.007,-4.007,-3.8585,-3.6002,-3.5841,-3.4242,-3.1697,-3.1582,-3.1482,-3.1482,-3.1482,-3.1854,-3.2199,-3.1523,-3.0927,-3.0319,-1.3694,-1.3908,-1.4088,-1.4088,-1.5097,-1.6041,-1.6207,-1.762,-1.8875,-1.9306,-1.9277,-1.9189,-1.915,-1.8467,-1.8978,-2.1402,-2.189,-2.2317,-2.2946,-2.4004,-2.418,-2.3115,-2.3078,-2.3078,-2.3078,-2.3078,-2.3078,-2.3078,-2.3078,-2.3078,-2.3078,-2.3078,-2.3078,-2.3078,-2.3078,-2.3629,-2.4632,-2.4632,-2.5259,-2.6364,-2.7469,-2.7406,-2.6879,-2.8988,-2.9164,-2.8423,-2.9568,-3.0075,-3.0265,-2.9918,-2.9856,-2.9875,-2.9476,-2.8587,-2.7527,-2.6551,-2.5515,-2.4522,-2.3717,-2.3551,-2.3595,-2.3595,-2.3595,-2.3595,-2.3595,0.0,-2.3939,-2.3939,0.0,-2.3819,-2.2308,0.0,0.0,-2.1156,-2.0528,-2.1156,-2.4103,-2.4507,-2.4612,-2.4926,-2.7036,-2.8233,-2.7664,-2.9714,-3.2609,-3.6322,-3.6783,-3.7467,-3.8854,-3.8978,-3.9368,-4.007,-4.007,-4.007,-4.007,-4.007,-4.007,-4.007,-4.007,-4.007,-4.007,-4.007,-3.8858,-3.6631,-3.6055,-3.4517,-3.2437,-3.1796,-3.1482,-3.1482,-3.1482,-3.1526,-3.1586,-3.1513,-3.0488,-2.921,-1.3868,-1.3861,-1.3848,-1.4095,-1.5039,-1.6275,-1.7768,-1.8857,-1.9583,-1.9623,-1.9648,-1.9844,-2.0361,-2.0515,-2.1209,-2.2789,-2.413,-2.4969,-2.5249,-2.558,-2.5561,-2.5084,-2.4142,-2.364,-2.364,-2.3314,-2.3078,-2.3078,-2.3078,-2.3078,-2.3078,-2.3078,-2.3078,-2.3078,-2.3078,-2.3766,-2.482,-2.482,-2.546,-2.6571,-2.6967,-2.6866,-2.6773,-2.8938,-2.9503,-2.9139,-2.9359,-2.9928,-3.0423,-2.8874,-2.968,-3.0961,-2.8825,-2.8304,-2.8369,-2.7983,-2.6331,-2.4732,-2.5211,-2.533,-2.533,-2.533,-2.533,-2.533,-2.533,-2.4433,-2.3595,-2.3595,0.0,0.0,0.0,0.0,0.0,0.0,-1.9634,-1.9727,-2.109,-2.0773,-2.1785,-2.5478,-2.6935,-2.8068,-2.934,-2.8712,-2.9591,-3.2844,-3.3501,-3.4046,-3.4681,-3.7383,-3.9016,-3.9368,-3.985,-4.007,-4.007,-4.007,-4.007,-4.007,-4.007,-4.007,-4.007,-3.961,-3.8239,-3.6198,-3.5474,-3.3939,-3.1951,-3.164,-3.1482,-3.1482,-3.1482,-3.1482,-3.1409,-3.097,-3.0011,-2.8939,-1.3877,-1.3763,-1.373,-1.3811,-1.5499,-1.7443,-1.9344,-2.0207,-2.0556,-2.0459,-2.0352,-2.0566,-2.1328,-2.1527,-2.2229,-2.3874,-2.5524,-2.6625,-2.7087,-2.7046,-2.6917,-2.6917,-2.5184,-2.4368,-2.4669,-2.3966,-2.3466,-2.3376,-2.3376,-2.3288,-2.3078,-2.3078,-2.3078,-2.3078,-2.3078,-2.3766,-2.4845,-2.5146,-2.59,-2.6942,-2.7256,-2.7369,-2.7519,-2.8825,-2.9528,-2.9756,-2.9494,-2.9995,-3.0533,-2.8412,-2.9319,-3.0962,-2.8464,-2.8034,-2.8465,-2.8753,-2.7116,-2.5456,-2.6695,-2.6843,-2.6572,-2.6411,-2.6263,-2.6081,-2.5645,-2.4552,-2.3595,-2.3595,-2.3595,0.0,0.0,0.0,-2.1154,-2.019,0.0,-1.8745,-1.8931,-1.8439,-1.9837,-2.4449,-2.5631,-2.6837,-2.8931,-2.7414,-2.7186,-2.9265,-3.0616,-3.1495,-3.1706,-3.5854,-3.8453,-3.8908,-3.9262,-3.9679,-4.0087,-3.9901,-3.9782,-3.9782,-4.0003,-3.9952,-3.9782,-3.901,-3.7724,-3.6039,-3.4911,-3.3402,-3.1796,-3.1582,-3.1482,-3.1482,-3.1482,-3.1351,-3.1087,-3.0524,-2.9766,-2.8876,-1.318,-1.3684,-1.3863,-1.3319,-1.7229,-2.0437,-2.0537,-2.1543,-2.2142,-2.1836,-2.1455,-2.1367,-2.1816,-2.0419,-2.0879,-2.4592,-2.5226,-2.6159,-2.795,-2.8072,-2.8059,-2.8059,-2.5963,-2.5297,-2.6433,-2.5322,-2.4506,-2.3966,-2.3966,-2.369,-2.3078,-2.3078,-2.3078,-2.3078,-2.3078,-2.3766,-2.4895,-2.5963,-2.7042,-2.8147,-2.9252,-2.9679,-2.9578,-2.8549,-2.8837,-2.9792,-2.9831,-2.9831,-2.968,-2.851,-2.817,-2.8208,-2.8145,-2.746,-2.6909,-2.7954,-2.7455,-2.6818,-2.7768,-2.739,-2.6507,-2.5821,-2.5466,-2.4826,-2.3198,-2.3246,-2.3595,-2.3595,-2.3595,-2.34,-2.2757,-2.1715,-2.0891,-2.0862,-1.9327,0.0,0.0,-1.8505,-1.8201,-1.8393,-2.0598,-2.2367,-2.3109,-2.4665,-2.5944,-2.6662,-2.9071,-3.0864,-3.1653,-3.4872,-3.735,-3.8854,-3.8246,-3.8596,-4.007,-3.9315,-3.8908,-3.8962,-3.9731,-3.9662,-3.8945,-3.8286,-3.756,-3.6633,-3.4634,-3.3277,-3.2492,-3.1796,-3.1482,-3.1482,-3.1482,-3.1029,-3.0329,-3.0329,-2.9766,-2.8876,-1.3761,-1.3348,-1.3127,-1.3684,-1.4515,-1.6163,-1.925,-2.0547,-2.1648,-2.3096,-2.2611,-2.2568,-2.3848,-2.3967,-2.4483,-2.5787,-2.7952,-2.9261,-2.9326,-2.994,-3.0281,-3.0281,-2.8511,-2.7369,-2.7017,-2.6276,-2.546,-2.4544,-2.418,-2.3904,-2.3703,-2.3314,-2.3078,-2.3078,-2.3078,-2.3766,-2.4895,-2.6,-2.7092,-2.8134,-2.8524,-2.8674,-2.8712,-2.9076,-2.9465,-2.9792,-2.9792,-2.9792,-2.9628,-2.8486,-2.8599,-2.9089,-2.8348,-2.787,-2.7991,-2.9718,-2.8519,-2.7047,-2.8706,-2.9366,-2.9534,-2.9315,-2.8691,-2.7933,-2.7402,-2.5354,-2.3595,-2.3595,-2.3595,-2.3415,-2.2787,-2.1984,-2.1168,-2.0373,-1.9086,-1.8122,0.0,-1.7389,-1.7034,-1.7034,-1.844,-2.0175,-2.2189,-2.0912,-2.0766,-2.2673,-2.364,-2.4222,-2.442,-3.0099,-3.3568,-3.4091,-3.6534,-3.8035,-3.8541,-3.8318,-3.8149,-3.8206,-3.843,-3.8225,-3.7462,-3.6733,-3.5816,-3.4705,-3.346,-3.2516,-3.1853,-3.1582,-3.1482,-3.1467,-3.0896,-3.0524,-3.0329,-3.0329,-2.938,-2.8051,-1.348,-1.2852,-1.2553,-1.3341,-1.2791,-1.3969,-1.9028,-2.0486,-2.1675,-2.3467,-2.3271,-2.3447,-2.4697,-2.5018,-2.5471,-2.623,-2.7911,-2.9341,-3.0298,-2.9931,-3.04,-3.1938,-2.9829,-2.8674,-2.8737,-2.7632,-2.6791,-2.6276,-2.5121,-2.4569,-2.4556,-2.3791,-2.3339,-2.3078,-2.3078,-2.354,-2.4318,-2.5824,-2.6866,-2.7557,-2.7946,-2.8348,-2.8737,-2.9063,-2.944,-2.9792,-2.9792,-2.9792,-2.9679,-2.895,-2.9189,-2.9666,-2.8938,-2.873,-2.8993,-3.0297,-2.9353,-2.8172,-2.9807,-3.0392,-3.0648,-3.0715,-3.0162,-2.958,-2.9315,-2.7408,-2.5719,-2.5719,-2.5719,-2.5269,-2.3733,-2.2728,-2.1551,-1.9641,-1.8352,-1.7476,0.0,-1.671,-1.6522,-1.6522,-1.8123,-1.9551,-2.034,-1.9266,-1.8792,-1.9492,-2.0428,-2.0922,-2.0769,-2.7478,-3.1443,-3.1706,-3.5154,-3.7251,-3.7806,-3.7515,-3.7397,-3.7397,-3.7632,-3.7323,-3.6378,-3.5638,-3.469,-3.3619,-3.2579,-3.1928,-3.1482,-3.1482,-3.1351,-3.1029,-3.0524,-2.995,-2.938,-2.938,-2.8492,-2.7229,-1.233,-1.2311,-1.2325,-1.2345,-1.2538,-1.4465,-1.9751,-2.141,-2.233,-2.314,-2.3563,-2.3975,-2.4385,-2.374,-2.3978,-2.5957,-2.5517,-2.6702,-3.0661,-2.8229,-2.8536,-3.2845,-2.9952,-2.9226,-3.1348,-2.934,-2.8499,-2.8976,-2.6766,-2.5661,-2.5611,-2.4519,-2.369,-2.3078,-2.3078,-2.3078,-2.3215,-2.5511,-2.6559,-2.6697,-2.762,-2.8699,-2.9591,-2.8511,-2.8812,-2.9792,-2.9792,-2.9792,-2.9792,-2.9792,-2.9792,-2.9792,-2.9792,-2.9792,-2.9792,-2.9792,-2.9792,-2.9998,-3.0895,-3.0482,-2.9909,-3.0146,-2.9904,-2.9508,-2.8872,-2.9116,-2.9525,-2.9525,-2.9525,-2.8575,-2.5479,-2.3822,-2.1979,-1.8963,-1.7359,-1.6522,-1.6522,-1.6522,-1.6522,-1.6522,-1.9186,-2.0067,-1.7523,-1.9464,-1.9821,-1.726,-1.9433,-2.0851,-2.0893,-2.6826,-3.0663,-3.1601,-3.3834,-3.5859,-3.769,-3.6747,-3.6383,-3.6554,-3.7338,-3.6916,-3.5517,-3.4926,-3.4244,-3.3547,-3.2125,-3.1482,-3.1482,-3.1467,-3.097,-3.0269,-3.0208,-2.9129,-2.767,-2.767,-2.7162,-2.6533,-1.233,-1.2309,-1.2589,-1.346,-1.6317,-1.8909,-2.0366,-2.2932,-2.4328,-2.3239,-2.3635,-2.4307,-2.5277,-2.5194,-2.4732,-2.4087,-2.5223,-2.616,-2.654,-2.7273,-2.8881,-3.1616,-3.0893,-3.0699,-3.1399,-3.0834,-3.0231,-2.9566,-2.7745,-2.664,-2.6269,-2.4707,-2.369,-2.3078,-2.3078,-2.3078,-2.3215,-2.5511,-2.6929,-2.7632,-2.7105,-2.7544,-2.8511,-2.821,-2.8812,-2.9792,-2.9792,-2.9792,-2.9792,-2.9792,-2.9792,-2.9792,-2.9792,-2.9792,-2.9792,-2.9792,-2.9792,-2.9856,-3.0075,-3.0482,-3.0865,-3.0903,-3.0282,-2.9841,-3.034,-2.9434,-2.8467,-2.8467,-2.8467,-2.8039,-2.6493,-2.4218,-2.2165,-2.0927,-1.8344,-1.6522,-1.6522,-1.6522,-1.6522,-1.6522,-1.7231,-1.7478,-1.6774,-1.7321,-1.7353,-1.656,-1.7156,-1.8508,-2.0792,-2.2497,-2.5707,-3.0618,-2.9072,-3.0714,-3.6039,-3.3394,-3.3291,-3.5782,-3.5958,-3.5594,-3.4725,-3.4137,-3.3411,-3.2747,-3.1867,-3.1482,-3.1467,-3.0837,-3.0524,-3.0147,-2.8876,-2.7736,-2.6782,-2.6782,-2.6658,-2.6533,-1.2285,-1.2698,-1.3338,-1.4014,-1.7722,-2.1103,-2.2624,-2.4431,-2.5334,-2.4349,-2.3903,-2.4162,-2.5506,-2.57,-2.5352,-2.4375,-2.4626,-2.5269,-2.6093,-2.6044,-2.7286,-3.0314,-3.0508,-3.0529,-3.0621,-3.1128,-3.1097,-3.0495,-2.8574,-2.7482,-2.7143,-2.5234,-2.3916,-2.3078,-2.3078,-2.3078,-2.3215,-2.5511,-2.7092,-2.8047,-2.7431,-2.7846,0.0,-2.8298,-2.8812,-2.9792,-2.9792,-2.9792,-2.9792,-2.9792,-2.9792,-2.9792,-2.9792,-2.9792,-2.9792,-2.9792,-2.9792,-2.9792,-2.9792,-3.0216,-3.0696,-3.1106,-3.0788,-3.0609,-3.1559,-3.0876,-3.0052,-3.0052,-3.0052,-2.9463,-2.7566,-2.5095,-2.247,-1.9824,-1.7753,-1.6522,-1.6522,-1.7338,-1.7589,-1.6591,-1.7363,-1.7576,-1.6609,-1.6522,-1.6469,-1.6389,-1.6404,-1.7113,-1.8781,-2.1216,-2.37,-2.6229,-2.6828,-2.8405,-3.1165,-2.931,-3.0043,-3.332,-3.332,-3.3724,-3.4472,-3.4098,-3.341,-3.2437,-3.1723,-3.1205,-3.0896,-3.0072,-2.9504,-2.9002,-2.767,-2.6905,-2.6533,-2.6533,-2.6533,-2.6533,-1.2694,-1.3587,-1.4283,-1.4282,-1.7303,-2.1068,-2.5081,-2.5709,-2.5665,-2.57,-2.444,-2.4117,-2.5537,-2.5684,-2.5693,-2.5576,-2.418,-2.4376,-2.7025,-2.4864,-2.5147,-2.9009,-2.9297,-2.9429,-2.96,-3.0566,-3.1162,-3.1162,-2.8919,-2.7779,-2.7668,-2.5493,-2.3953,-2.2944,-2.3078,-2.3301,-2.369,-2.5485,-2.6967,-2.8109,-2.8109,-2.8699,-2.9478,-2.8649,-2.8938,-2.9792,-2.9792,-2.9792,-2.9792,-2.9792,-2.9792,-2.9792,-2.9792,-2.9792,-2.9792,-2.9792,-2.9792,-2.9792,-2.9792,-2.9792,-2.9998,-3.0833,-3.1044,-3.1254,-3.2177,-3.2393,-3.2393,-3.2393,-3.2393,-3.1537,-2.869,-2.6109,-2.2745,-1.7751,-1.671,-1.6522,-1.6522,-1.8405,-1.8982,-1.6773,-1.8455,0.0,-1.6722,-1.6522,-1.6522,-1.6522,-1.6522,-1.6634,-1.6954,-2.113,-2.2896,-2.16,-2.5669,-2.7288,-2.6086,-2.5664,-2.7253,-3.0949,-3.066,-3.1943,-3.4607,-3.4375,-3.3657,-3.251,-3.1536,-3.0807,-3.0201,-2.9303,-2.8365,-2.7484,-2.6782,-2.6533,-2.6533,-2.6533,-2.6533,-2.6533,-1.5025,-1.5345,-1.5504,-1.5489,-1.5388,-1.7632,-2.4663,-2.572,-2.5724,-2.5722,-2.5474,-2.5381,-2.5628,-2.5698,-2.5439,-2.4707,-2.4365,-2.4408,-2.4898,-2.4483,-2.529,-2.7808,-2.7982,-2.8429,-2.9421,-2.9602,-2.977,-2.977,-2.7344,-2.5947,-2.5489,-2.3833,-2.2739,-2.2125,-2.2823,-2.4155,-2.585,-2.5322,-2.6264,-2.8109,-2.8109,-2.8222,-2.8486,-2.9214,-2.9628,-2.9792,-2.9792,-2.9792,-2.9792,-2.9792,-2.9792,-2.9792,-2.9792,-2.9792,-2.9792,-2.9792,-2.9792,-2.9792,-2.9792,-2.9792,-2.9869,-2.9998,-3.0075,-3.0279,-3.1254,-3.1462,-3.1462,-3.1462,-3.1462,-3.1061,-2.9706,-2.613,-2.2445,-1.9648,-1.7702,-1.6522,-1.6522,-1.8405,-1.8982,-1.6773,-1.8455,-1.8932,-1.6722,-1.6522,-1.6522,-1.6522,-1.6522,-1.765,-2.0254,-1.872,-2.0007,-2.4972,-2.2526,-2.3571,-2.8612,-2.5873,-2.7475,-3.3361,-3.1427,-3.2198,-3.531,-3.3922,-3.3216,-3.2905,-3.1335,-3.0419,-2.9799,-2.8932,-2.7821,-2.6714,-2.6589,-2.6533,-2.6533,-2.6533,-2.6533,-2.6533,-1.4784,-1.4922,-1.4881,-1.4952,-1.5487,-1.6742,-1.9301,-2.3103,-2.5684,-2.5704,-2.573,-2.5712,-2.5674,-2.574,-2.5566,-2.5137,-2.4678,-2.4609,-2.5068,-2.4668,-2.5075,-2.6532,-2.722,-2.7639,-2.7575,-2.8785,-2.9026,-2.8165,-2.6561,-2.5419,-2.4633,-2.2846,-2.1724,-2.1262,-2.2104,-2.3639,-2.5649,-2.5689,-2.6621,-2.816,-2.875,-2.8976,-2.9038,-2.9578,-2.9792,-2.9792,-2.9792,-2.9792,-2.9792,-2.9792,-2.9792,-2.9792,-2.9792,-2.9792,-2.9792,-2.9792,-2.9792,-2.9792,-2.9792,-2.9792,-2.9792,-2.9792,-2.9792,-2.9934,-3.0343,-3.0482,-3.0482,-3.0482,-3.0482,-2.9984,-2.8407,-2.6302,-2.413,-2.1895,-1.9673,-1.8216,-1.8216,-1.9133,-1.9409,-1.8342,-2.0175,-2.0652,-1.8442,-1.8216,-1.7752,-1.6609,-1.6522,-1.7193,-1.8708,-1.8364,-1.9512,-2.2559,-2.1803,-2.2777,-2.5928,-2.4324,-2.5924,-3.0718,-2.96,-3.0773,-3.3973,-3.3166,-3.265,-3.2258,-3.1005,-3.0129,-2.951,-2.8625,-2.7933,-2.7318,-2.7318,-2.7318,-2.7235,-2.6721,-2.6493,-2.642,-1.4235,-1.4068,-1.4094,-1.4096,-1.5611,-1.6443,-1.5026,-1.9997,-2.443,-2.5508,-2.5674,-2.5742,-2.5742,-2.5742,-2.5664,-2.5469,-2.499,-2.4834,-2.5166,-2.4883,-2.4922,-2.543,-2.6465,-2.6641,-2.5726,-2.749,-2.7717,-2.6487,-2.5611,-2.4596,-2.3613,-2.2,-2.1075,-2.0938,-2.1787,-2.311,-2.4847,-2.6031,-2.7083,-2.8213,-2.9351,-2.9792,-2.9792,-2.9792,-2.9792,-2.9792,-2.9792,-2.9792,-2.9792,-2.9792,-2.9792,-2.9792,-2.9792,-2.9792,-2.9792,-2.9792,-2.9792,-2.9792,-2.9792,-2.9792,-2.9792,-2.9792,-2.9792,-2.9792,-2.9792,-2.9792,-2.9792,-2.9792,-2.9792,-2.9252,-2.7494,-2.7221,-2.6404,-2.3961,-2.1572,-1.9813,-1.9183,-1.951,-1.9798,-1.9798,-2.1355,-2.1732,-1.9974,-1.9371,-1.8392,-1.6647,-1.6522,-1.6722,-1.7187,-1.8417,-1.9256,-1.9613,-2.139,-2.2496,-2.288,-2.2829,-2.47,-2.8417,-2.7908,-2.9419,-3.2593,-3.2393,-3.199,-3.1482,-3.0606,-2.9928,-2.9223,-2.8426,-2.8109,-2.8109,-2.7877,-2.773,-2.7644,-2.6562,-2.6107,-2.599,-1.452,-1.4081,-1.41,-1.4109,-1.4298,-1.5042,-1.6961,-1.7846,-2.0106,-2.5032,-2.5693,-2.5742,-2.5742,-2.5742,-2.541,-2.4609,-2.5195,-2.498,-2.3477,-2.4785,-2.5293,-2.457,-2.5006,-2.5267,-2.5198,-2.4967,-2.4832,-2.4621,-2.3444,-2.2393,-2.1511,-2.0927,-2.107,-2.182,-2.2634,-2.3627,-2.4878,-2.6025,-2.7109,-2.8203,-2.9328,-2.9792,-2.9792,-2.9792,-2.9792,-2.9792,-2.9792,-2.9792,-2.9792,-2.9792,-2.9792,-2.9792,-2.9792,-2.9792,-2.9792,-2.9792,-2.9792,-2.9792,-2.9792,-2.9792,-2.9792,-2.9792,-2.9792,-2.9792,-2.9792,-2.9792,-2.9792,-2.9792,-2.9792,-2.9729,-2.9515,-2.9463,-2.8559,-2.5664,-2.2724,-1.9872,-1.7194,-1.8543,-1.9798,-1.9798,-1.9987,-2.0037,-1.9823,-1.8003,-1.6735,-1.6534,-1.6522,-1.7388,-1.9384,-1.7802,-1.7714,-1.9711,-1.9976,-2.1033,-2.3069,-2.2994,-2.5664,-3.0877,-2.8702,-2.9419,-3.2593,-3.1742,-3.1288,-3.1175,-3.0279,-2.953,-2.8875,-2.831,-2.8109,-2.8024,-2.7037,-2.6661,-2.6498,-2.5381,-2.4982,-2.4815,-1.6374,-1.6242,-1.596,-1.5261,-1.5698,-1.6497,-1.7485,-1.6952,-1.7527,-2.0466,-2.3688,-2.5538,-2.5024,-2.488,-2.4805,-2.4443,-2.4736,-2.4648,-2.3955,-2.456,-2.4785,-2.4434,-2.458,-2.4678,-2.4678,-2.4502,-2.4287,-2.4043,-2.25,-2.1435,-2.081,-2.0128,-2.0545,-2.1891,-2.2237,-2.3313,-2.4859,-2.53,-2.6496,-2.8176,-2.8597,-2.9197,-2.9792,-2.9792,-2.9792,-2.9792,-2.9792,-2.9792,-2.9792,-2.9792,-2.9792,-2.9792,-2.9792,-2.9792,-2.9792,-2.9792,-2.9792,-2.9792,-2.9792,-2.9792,-2.9792,-2.9792,-2.9792,-2.9792,-2.9792,-2.9792,-2.9792,-2.9792,-2.9792,-2.9792,-2.9792,-2.982,-2.9372,-2.8213,-2.5561,-2.3207,-2.2029,-2.1827,-2.2297,-2.364,-2.2623,-2.2334,-2.3665,-2.0577,-1.8493,-1.8493,-1.7262,-1.6911,-1.7777,-1.8254,-1.951,-2.1732,-2.1807,-2.3514,-2.7092,-2.5785,-2.6875,-3.033,-2.9421,-2.9678,-3.0921,-3.057,-3.0343,-3.0343,-2.9934,-2.9666,-2.9428,-2.9214,-2.8709,-2.8033,-2.7645,-2.7097,-2.6371,-2.5218,-2.4809,-2.4644,-1.6806,-1.7393,-1.7277,-1.6252,-1.667,-1.7051,-1.7085,-1.631,-1.6085,-1.6912,-2.0572,-2.3262,-2.3932,-2.4041,-2.4069,-2.4313,-2.4389,-2.4199,-2.3701,-2.4141,-2.4307,-2.4053,-2.416,-2.4228,-2.4228,-2.4102,-2.3896,-2.3603,-2.2383,-2.1504,-2.0937,-2.0332,-2.0745,-2.19,-2.2185,-2.3041,-2.4341,-2.4682,-2.587,-2.7683,-2.7936,-2.8767,-2.9792,-2.9792,-2.9792,-2.9792,-2.9792,-2.9792,-2.9792,-2.9792,-2.9792,-2.9792,-2.9792,-2.9792,-2.9792,-2.9792,-2.9792,-2.9792,-2.9792,-2.9792,-2.9792,-2.9792,-2.9792,-2.9792,-2.9792,-2.9792,-2.9792,-2.9792,-2.9792,-2.9792,-2.9792,-2.9792,-2.982,-2.9797,-2.5847,-2.338,-2.5171,-2.4434,-2.4238,-2.5375,-2.3514,-2.3037,-2.5272,-2.2033,-1.9798,-1.9798,-1.8355,-1.7488,-1.7488,-1.8342,-1.9849,-2.2083,-2.1475,-2.3326,-2.7795,-2.6276,-2.6942,-2.9792,-2.9792,-2.9792,-2.9792,-2.9792,-2.9792,-2.9792,-2.9792,-2.9792,-2.9792,-2.9792,-2.9106,-2.8084,-2.7763,-2.6953,-2.5891,-2.4713,-2.4296,-2.4211,-1.488,-1.6766,-1.7413,-1.6827,-1.624,-1.5834,-1.581,-1.5778,-1.5828,-1.581,-1.6361,-1.8441,-2.265,-2.31,-2.3362,-2.3977,-2.4285,-2.3701,-2.2021,-2.3486,-2.4043,-2.3193,-2.3564,-2.3799,-2.3799,-2.3379,-2.3154,-2.3144,-2.3125,-2.2685,-2.1865,-2.1855,-2.1855,-2.1904,-2.2744,-2.3125,-2.3202,-2.4286,-2.5462,-2.6637,-2.7683,-2.8767,-2.9792,-2.9792,-2.9792,-2.9792,-2.9792,-2.9792,-2.9792,-2.9792,-2.9792,-2.9792,-2.9792,-2.9792,-2.9792,-2.9792,-2.9792,-2.9792,-2.9792,-2.9792,-2.9792,-2.9792,-2.9792,-2.9792,-2.9792,-2.9792,-2.9792,-2.9792,-2.9792,-2.9792,-2.9792,-2.9792,-2.982,-2.9797,-2.2365,-1.866,-2.4545,-2.5395,-2.4844,-2.3311,-2.1204,-2.0715,-2.2902,-2.1129,-1.9798,-1.9798,-1.9773,-1.9761,-1.9761,-1.7727,-1.7564,-1.9773,-1.7727,-1.8682,-2.3115,-2.3128,-2.5398,-2.9792,-2.9792,-2.9792,-2.9792,-2.9792,-2.9792,-2.9792,-2.9792,-2.9792,-2.9792,-2.9792,-2.9106,-2.8004,-2.6964,-2.5797,-2.4702,-2.3551,-2.3135,-2.3135,-0.9152,-1.3166,-1.5889,-1.4202,-1.4983,-1.583,-1.5783,-1.5774,-1.582,-1.5757,-1.5967,-1.6571,-1.7991,-2.1112,-2.3171,-2.3378,-2.2756,-2.2475,-2.2734,-2.2705,-2.2822,-2.3125,-2.2725,-2.249,-2.249,-2.2353,-2.2285,-2.2285,-2.2285,-2.2148,-2.1885,-2.1885,-2.2197,-2.2754,-2.3018,-2.3135,-2.3135,-2.3474,-2.4296,-2.5462,-2.6543,-2.7695,-2.8688,-2.9534,-2.9792,-2.9792,-2.9792,-2.9792,-2.9792,-2.9792,-2.9792,-2.9792,-2.9792,-2.9792,-2.9792,-2.9792,-2.9792,-2.9792,-2.9792,-2.9792,-2.9792,-2.9792,-2.9792,-2.9792,-2.9792,-2.9792,-2.9792,-2.9792,-2.9792,-2.9792,-2.9792,-2.9792,-2.982,-2.9797,-2.7451,-2.6239,-2.8159,-2.6659,-2.5398,-2.5398,-2.3427,-2.2949,-2.5184,-2.3389,-2.2071,-2.2071,-2.0665,-1.9798,-1.9798,-2.0577,-2.2221,-2.482,-2.4217,-2.5435,-2.8725,-2.6904,-2.7444,-3.0357,-2.9967,-2.9792,-2.9792,-2.9792,-2.9792,-2.9792,-2.8937,-2.8597,-2.8597,-2.7879,-2.6871,-2.5775,-2.5452,-2.4628,-2.3637,-2.3222,-2.3135,-2.3135,-0.7117,-0.993,-1.2678,-1.2992,-1.458,-1.5807,-1.5785,-1.5799,-1.5758,-1.5844,-1.5799,-1.5785,-1.5772,-1.854,-2.1095,-2.2933,-2.2476,-2.2141,-2.2427,-2.2417,-2.2588,-2.3115,-2.2637,-2.2353,-2.2353,-2.2353,-2.2353,-2.2353,-2.2353,-2.2353,-2.2353,-2.2353,-2.2637,-2.3135,-2.3135,-2.3135,-2.3135,-2.3135,-2.38,-2.4872,-2.5546,-2.6789,-2.8096,-2.845,-2.904,-2.9714,-2.9287,-2.9456,-2.9792,-2.9792,-2.9792,-2.9792,-2.9792,-2.9792,-2.9792,-2.9792,-2.9792,-2.9792,-2.9792,-2.9792,-2.9792,-2.9792,-2.9792,-2.9792,-2.9792,-2.9792,-2.9792,-2.9792,-2.9792,-2.9792,-2.9792,-2.9792,-2.9834,-2.9816,-2.9794,-2.9809,-2.9803,-2.6739,-2.5046,-2.6321,-2.4494,-2.4017,-2.6251,-2.5197,-2.4381,-2.4381,-2.2309,-2.1418,-2.2259,-2.2033,-2.3163,-2.5963,-2.605,-2.7369,-3.0131,-2.8448,-2.8712,-3.0896,-3.0357,-2.9993,-2.9792,-2.9365,-2.9184,-2.9106,-2.7947,-2.7522,-2.7452,-2.6801,-2.5797,-2.4787,-2.4787,-2.4125,-2.3135,-2.3135,-2.3135,-2.3135,-0.8014,-0.7622,-0.8717,-1.303,-1.4808,-1.5684,-1.5749,-1.5797,-1.5846,-1.5812,-1.581,-1.5832,-1.5832,-1.5779,-1.7627,-2.2212,-2.2885,-2.2615,-2.1586,-2.2427,-2.3076,-2.3135,-2.3086,-2.3057,-2.3057,-2.3057,-2.3076,-2.3135,-2.3135,-2.3135,-2.3135,-2.3135,-2.3135,-2.3135,-2.3135,-2.3135,-2.3135,-2.3135,-2.3714,-2.4702,-2.4787,-2.6108,-2.7936,-2.6964,-2.7959,-2.9624,-2.8597,-2.8937,-2.9792,-2.9792,-2.9792,-2.9792,-2.9792,-2.9792,-2.9792,-2.9792,-2.9792,-2.9792,-2.9792,-2.9792,-2.9792,-2.9792,-2.9792,-2.9792,-2.9792,-2.9792,-2.9792,-2.9792,-2.9792,-2.9792,-2.9792,-2.9792,-2.9792,-2.9792,-2.9792,-2.9831,-2.982,-2.619,-2.4241,-2.6214,-2.4544,-2.4092,-2.6319,-2.6672,-2.6697,-2.6533,-2.448,-2.4154,-2.6271,-2.2464,-2.15,-2.4368,-2.4494,-2.5762,-2.836,-2.8386,-2.9402,-3.1386,-3.0778,-3.0253,-2.9674,-2.853,-2.8004,-2.7936,-2.6883,-2.6389,-2.6389,-2.6318,-2.563,-2.4702,-2.4702,-2.4049,-2.3135,-2.3135,-2.3135,-2.3135,-0.8044,-0.8946,-1.0281,-1.1765,-1.3348,-1.4644,-1.5665,-1.5846,-1.5785,-1.5759,-1.5846,-1.5832,-1.5832,-1.5792,-1.6296,-1.7427,-2.0925,-2.2997,-2.2751,-2.2341,-2.2471,-2.3105,-2.2519,-2.2178,-2.2178,-2.2178,-2.249,-2.3135,-2.3135,-2.3135,-2.3135,-2.3135,-2.3135,-2.3135,-2.3135,-2.3135,-2.3135,-2.3135,-2.3222,-2.3551,-2.4457,-2.5619,-2.6964,-2.7533,-2.8609,-2.9792,-2.9456,-2.9534,-2.9792,-2.9792,-2.9792,-2.9792,-2.9792,-2.9792,-2.9792,-2.9792,-2.9792,-2.9792,-2.9792,-2.9792,-2.9792,-2.9792,-2.9792,-2.9792,-2.9792,-2.9792,-2.9792,-2.9792,-2.9792,-2.9792,-2.9792,-2.9792,-2.9792,-2.9792,-2.9792,-2.9821,-2.9829,-2.8861,-2.7574,-2.5876,-2.5176,-2.5289,-2.6389,-2.8009,-2.8298,-2.6659,-2.5492,-2.4936,-2.5181,-2.4502,-2.562,-2.8963,-2.9428,-3.0156,-3.1235,-3.1235,-3.1286,-3.1386,-2.9976,-2.9241,-2.9096,-2.7545,-2.6883,-2.6801,-2.5714,-2.521,-2.5126,-2.4221,-2.3724,-2.3464,-2.3464,-2.3299,-2.3135,-2.3135,-2.3135,-2.3135,-0.7973,-0.8787,-0.9751,-1.0677,-1.2066,-1.3397,-1.4752,-1.5439,-1.5832,-1.5832,-1.5832,-1.5832,-1.5832,-1.5832,-1.5792,-1.5792,-1.8261,-2.0677,-2.2993,-2.2669,-2.2656,-2.3125,-2.2705,-2.2461,-2.2461,-2.2461,-2.2685,-2.3135,-2.3135,-2.3135,-2.3135,-2.3135,-2.3135,-2.3135,-2.3135,-2.3135,-2.3135,-2.3135,-2.3135,-2.3135,-2.38,-2.4713,-2.5714,-2.5786,-2.6871,-2.8211,-2.7706,-2.7879,-2.8383,-2.887,-2.87,-2.8462,-2.9456,-2.9827,-2.977,-2.9764,-2.9792,-2.9792,-2.9792,-2.9792,-2.9792,-2.9792,-2.9792,-2.9792,-2.9792,-2.9439,-2.9199,-2.9716,-2.9833,-2.977,-2.9767,-2.9792,-2.9792,-2.9792,-2.9819,-2.9836,-2.9816,-2.6263,-2.4641,-2.7088,-2.5594,-2.5317,-2.7748,-2.9074,-2.9309,-2.8101,-2.698,-2.6017,-2.5161,-2.4613,-2.6016,-2.9738,-3.0339,-3.0866,-3.1406,-3.1036,-3.062,-3.0107,-2.9203,-2.873,-2.8644,-2.6808,-2.5964,-2.5884,-2.4573,-2.4049,-2.3963,-2.3387,-2.3135,-2.3135,-2.3135,-2.3135,-2.3135,-2.3135,-2.3135,-2.3135,-0.8038,-0.8038,-0.8432,-0.9805,-1.0877,-1.2139,-1.368,-1.4962,-1.575,-1.5832,-1.5832,-1.5832,-1.5832,-1.5832,-1.5832,-1.5832,-1.5797,-1.7902,-2.2773,-2.3055,-2.3086,-2.3135,-2.3135,-2.3135,-2.3135,-2.3135,-2.3135,-2.3135,-2.3135,-2.3135,-2.3135,-2.3135,-2.3135,-2.3135,-2.3135,-2.3135,-2.3135,-2.3135,-2.3135,-2.3135,-2.3135,-2.38,-2.4702,-2.3714,-2.4638,-2.6389,-2.5378,-2.5714,-2.6648,-2.7522,-2.736,-2.7046,-2.8949,-2.951,-2.9536,-2.944,-2.9608,-2.9786,-2.9817,-2.9792,-2.9792,-2.9792,-2.9704,-2.9539,-2.9654,-2.8861,-2.8437,-2.9301,-2.9669,-2.9769,-2.9821,-2.9806,-2.9806,-2.9809,-2.981,-2.9356,-2.7991,-2.1305,-1.9843,-2.8707,-2.6429,-2.5599,-2.9394,-2.9769,-2.9653,-2.937,-2.8435,-2.7263,-2.565,-2.4026,-2.457,-2.7917,-2.8808,-2.9577,-3.0166,-2.9623,-2.9127,-2.869,-2.8544,-2.8376,-2.8128,-2.5987,-2.5051,-2.5007,-2.3697,-2.3135,-2.3135,-2.3135,-2.3135,-2.3135,-2.3135,-2.3135,-2.3135,-2.3135,-2.3135,-2.3135,-0.8038,-0.8038,-0.8432,-0.9805,-1.0194,-1.1068,-1.3488,-1.5025,-1.5836,-1.5838,-1.5832,-1.5832,-1.5832,-1.5832,-1.5832,-1.5832,-1.5832,-1.7849,-2.2765,-2.3127,-2.3075,-2.3057,-2.3135,-2.3135,-2.3135,-2.3135,-2.3135,-2.3135,-2.3135,-2.3135,-2.3135,-2.3135,-2.3135,-2.3135,-2.3135,-2.3135,-2.3135,-2.3135,-2.3135,-2.3135,-2.3135,-2.38,-2.4787,-2.4628,-2.5378,-2.6472,-2.6307,-2.6307,-2.6565,-2.6719,-2.7209,-2.7924,-2.8255,-2.8383,-2.8315,-2.7989,-2.8835,-2.9817,-2.9811,-2.9792,-2.9792,-2.9792,-2.906,-2.8461,-2.895,-2.8799,-2.8495,-2.8002,-2.8931,-2.9805,-2.9783,-2.9821,-2.9821,-2.9817,-2.9795,-2.7175,-1.9607,-1.7347,-1.9819,-2.8737,-2.9195,-2.9024,-2.974,-2.9755,-2.8998,-2.7183,-2.8563,-2.8572,-2.6466,-2.4294,-2.3357,-2.3957,-2.6381,-2.8105,-2.9035,-2.8947,-2.906,-2.9284,-2.805,-2.7479,-2.734,-2.4656,-2.3425,-2.3446,-2.3174,-2.3135,-2.3135,-2.3135,-2.3135,-2.3135,-2.3135,-2.3135,-2.3135,-2.3135,-2.3135,-2.3135,-0.8038,-0.8038,-0.8237,-0.8825,-0.9509,-1.0386,-1.1648,-1.3528,-1.4808,-1.4758,-1.5337,-1.5832,-1.5832,-1.5832,-1.5832,-1.5832,-1.5752,-1.6786,-1.906,-2.0451,-2.1149,-2.1141,-2.1756,-2.2403,-2.3057,-2.3135,-2.3135,-2.3135,-2.3135,-2.3135,-2.3135,-2.3135,-2.3135,-2.3135,-2.3135,-2.3135,-2.3135,-2.3135,-2.3135,-2.3135,-2.3135,-2.3387,-2.3877,-2.3877,-2.4221,-2.4638,-2.4638,-2.4638,-2.4723,-2.5389,-2.5546,-2.5619,-2.6871,-2.6778,-2.6322,-2.64,-2.8022,-2.9812,-2.9787,-2.9817,-2.9618,-2.9062,-2.865,-2.8313,-2.7765,-2.7397,-2.7042,-2.659,-2.732,-2.799,-2.8052,-2.8,-2.7629,-2.638,-2.3107,-1.9249,-1.516,-1.7735,-2.1562,-2.5666,-2.6165,-2.6218,-2.6218,-2.6218,-2.5768,-2.4714,-2.5637,-2.5786,-2.4716,-2.3654,-2.3073,-2.3073,-2.5175,-2.6344,-2.6407,-2.6417,-2.6634,-2.6978,-2.6361,-2.6156,-2.6396,-2.4826,-2.3672,-2.3084,-2.3115,-2.3135,-2.3135,-2.3135,-2.3135,-2.3135,-2.3135,-2.3135,-2.3135,-2.3135,-2.3135,-2.3047,-0.7936,-0.7936,-0.7936,-0.7936,-0.8713,-0.9579,-0.9867,-1.1732,-1.3211,-1.3582,-1.4924,-1.5763,-1.5832,-1.5832,-1.5832,-1.5832,-1.5832,-1.5772,-1.5825,-1.7579,-1.9031,-1.9852,-2.1033,-2.212,-2.3047,-2.3135,-2.3135,-2.3135,-2.3135,-2.3135,-2.3135,-2.3135,-2.3135,-2.3135,-2.3135,-2.3135,-2.3135,-2.3135,-2.3135,-2.3135,-2.3135,-2.3135,-2.3135,-2.3135,-2.3135,-2.3135,-2.3135,-2.3135,-2.3222,-2.4135,-2.3963,-2.38,-2.5557,-2.5471,-2.4682,-2.5013,-2.654,-2.8339,-2.9506,-2.9814,-2.9315,-2.7512,-2.7247,-2.7213,-2.6285,-2.5636,-2.5253,-2.5127,-2.5466,-2.5761,-2.5604,-2.6059,-2.5918,-2.4204,-1.9514,-1.5764,-1.4846,-1.9545,-2.3112,-2.3113,-2.3067,-2.3102,-2.3102,-2.3068,-2.3087,-2.3087,-2.3075,-2.3135,-2.3135,-2.3135,-2.3135,-2.3135,-2.422,-2.4604,-2.4137,-2.4137,-2.4336,-2.4911,-2.5043,-2.534,-2.5653,-2.4816,-2.3969,-2.3076,-2.3086,-2.3135,-2.3135,-2.3135,-2.3135,-2.3135,-2.3135,-2.3135,-2.3135,-2.3135,-2.295,-2.258,-0.7631,-0.7631,-0.7631,-0.7631,-0.7725,-0.8186,-0.938,-1.0103,-1.1172,-1.2731,-1.4665,-1.5843,-1.5838,-1.5832,-1.5832,-1.5832,-1.5832,-1.5825,-1.5812,-1.6008,-1.7561,-2.1025,-2.2306,-2.3047,-2.3135,-2.3135,-2.3135,-2.3135,-2.3135,-2.3135,-2.3135,-2.3135,-2.3135,-2.3135,-2.3135,-2.3135,-2.3135,-2.3135,-2.3135,-2.3135,-2.3135,-2.3135,-2.3135,-2.3135,-2.3135,-2.3135,-2.3135,-2.3135,-2.3135,-2.3222,-2.3887,-2.4702,-2.4872,-2.4588,-2.424,-2.4312,-2.3625,-2.3839,-2.8539,-2.9791,-2.8876,-2.4859,-2.3842,-2.3969,-2.434,-2.4066,-2.3655,-2.3626,-2.3711,-2.3559,-2.2919,-2.4869,-2.6486,-2.63,-2.5812,-2.4238,-2.0576,-2.1835,-2.3101,-2.3073,-2.3076,-2.3138,-2.3138,-2.3083,-2.3096,-2.3096,-2.3125,-2.3135,-2.3135,-2.3135,-2.3135,-2.3135,-2.3164,-2.3252,-2.3223,-2.3223,-2.3783,-2.4911,-2.541,-2.5655,-2.5614,-2.3975,-2.3175,-2.3118,-2.3095,-2.3135,-2.3135,-2.3135,-2.3135,-2.3135,-2.3135,-2.3135,-2.3135,-2.3135,-2.2394,-2.1391,-0.76,-0.76,-0.76,-0.76,-0.76,-0.7785,-0.8337,-0.9516,-1.0188,-0.989,-1.3286,-1.5841,-1.5824,-1.581,-1.5787,-1.5765,-1.5778,-1.5846,-1.5818,-1.5832,-1.6749,-1.8948,-2.0223,-2.1221,-2.1943,-2.2677,-2.3135,-2.3135,-2.3135,-2.3135,-2.3135,-2.3135,-2.3135,-2.3135,-2.3135,-2.3135,-2.3135,-2.3135,-2.3135,-2.3135,-2.3135,-2.3135,-2.3135,-2.3135,-2.3135,-2.3135,-2.3135,-2.3135,-2.3096,-2.2832,-2.2992,-2.3358,-2.3086,-2.2895,-2.2754,-2.2754,-2.2311,-2.2201,-2.433,-2.4536,-2.3711,-2.2074,-2.1665,-2.1935,-2.295,-2.2875,-2.2403,-2.1821,-2.168,-2.1597,-2.1339,-2.2176,-2.3621,-2.6105,-2.4457,-2.2285,-2.0787,-2.1155,-2.1579,-2.1554,-2.1572,-2.1997,-2.3016,-2.3083,-2.31,-2.31,-2.3114,-2.3135,-2.3135,-2.3135,-2.3135,-2.3135,-2.3135,-2.3106,-2.3055,-2.3055,-2.3349,-2.3761,-2.3989,-2.4108,-2.4098,-2.3359,-2.3055,-2.3134,-2.3106,-2.3135,-2.3135,-2.3135,-2.3135,-2.3135,-2.3135,-2.3135,-2.3047,-2.2217,-2.1667,-2.1114,-0.7458,-0.7455,-0.7455,-0.7455,-0.7455,-0.7455,-0.755,-0.8506,-0.887,-0.7858,-1.2086,-1.5255,-1.5237,-1.5286,-1.5244,-1.5244,-1.5362,-1.5449,-1.5438,-1.5551,-1.6192,-1.7677,-1.9222,-2.0486,-2.1293,-2.2492,-2.3135,-2.3135,-2.3135,-2.3135,-2.3135,-2.3135,-2.3135,-2.3135,-2.3135,-2.3135,-2.3135,-2.3135,-2.3135,-2.3135,-2.3135,-2.3135,-2.3135,-2.3135,-2.3135,-2.3125,-2.2988,-2.2939,-2.2881,-2.2461,-2.2314,-2.2266,-2.1982,-2.1787,-2.165,-2.1514,-2.136,-2.1233,-2.1451,-2.1025,-2.0569,-2.0569,-2.0572,-2.0842,-2.1735,-2.1711,-2.1375,-2.0712,-2.0566,-2.0585,-2.0609,-2.0569,-2.1501,-2.4236,-2.237,-2.0572,-2.0566,-2.0624,-2.0608,-2.0585,-2.0618,-2.1034,-2.2217,-2.2296,-2.2497,-2.3073,-2.313,-2.3124,-2.3135,-2.3135,-2.3135,-2.3135,-2.3135,-2.3135,-2.3135,-2.3135,-2.3135,-2.3135,-2.3135,-2.3135,-2.3135,-2.3135,-2.3135,-2.3135,-2.3135,-2.3135,-2.3135,-2.3135,-2.3135,-2.3135,-2.3135,-2.3135,-2.295,-2.1756,-2.1025,-2.0486,-0.7058,-0.7139,-0.7139,-0.7139,-0.7139,-0.7139,-0.7139,-0.7085,-0.7067,-0.7101,-1.1187,-1.4135,-1.4126,-1.4109,-1.4142,-1.4142,-1.4449,-1.4655,-1.4661,-1.486,-1.5756,-1.7561,-1.9935,-2.1284,-2.1293,-2.2492,-2.3047,-2.3135,-2.3135,-2.3135,-2.3135,-2.3135,-2.3135,-2.3135,-2.3135,-2.3135,-2.3135,-2.3135,-2.3135,-2.3125,-2.3125,-2.3125,-2.3125,-2.3125,-2.3125,-2.3076,-2.2656,-2.251,-2.2441,-2.2021,-2.1875,-2.1875,-2.1875,-2.1582,-2.1143,-2.0693,-2.0566,-2.0566,-2.0566,-2.0566,-2.0566,-2.0566,-2.0566,-2.0566,-2.0566,-2.0566,-2.0566,-2.0566,-2.0566,-2.0566,-2.0566,-2.0566,-2.0566,-2.0566,-2.0566,-2.0566,-2.0566,-2.0566,-2.0566,-2.0566,-2.0632,-2.0604,-2.0604,-2.0564,-2.1284,-2.2938,-2.3083,-2.3061,-2.3125,-2.3135,-2.3135,-2.3135,-2.3135,-2.3135,-2.3135,-2.3135,-2.3135,-2.3135,-2.3135,-2.3135,-2.3135,-2.3135,-2.3135,-2.3135,-2.3135,-2.3135,-2.3135,-2.3135,-2.3135,-2.3135,-2.3135,-2.3047,-2.295,-2.1756,-2.0486,-1.9314,-0.7058,-0.7139,-0.7139,-0.7139,-0.7139,-0.7139,-0.7139,-0.7088,-0.7098,-0.7139,-1.1201,-1.4138,-1.4122,-1.4117,-1.4229,-1.4535,-1.4649,-1.4743,-1.4937,-1.4963,-1.5217,-1.5749,-1.7462,-1.8824,-1.9741,-2.1157,-2.2217,-2.3135,-2.3135,-2.3135,-2.3135,-2.3135,-2.3135,-2.3135,-2.3135,-2.2969,-2.2705,-2.2705,-2.2529,-2.2266,-2.2266,-2.2266,-2.2266,-2.2266,-2.2266,-2.2246,-2.2119,-2.207,-2.2012,-2.1572,-2.1426,-2.1377,-2.1055,-2.0869,-2.0742,-2.0605,-2.0566,-2.0566,-2.0566,-2.0566,-2.0566,-2.0566,-2.0566,-2.0566,-2.0566,-2.0566,-2.0566,-2.0566,-2.0566,-2.0566,-2.0566,-2.0566,-2.0566,-2.0566,-2.0566,-2.0566,-2.0566,-2.0566,-2.0566,-2.0566,-2.0576,-2.0566,-2.0566,-2.0627,-2.0833,-2.1298,-2.2414,-2.3061,-2.3125,-2.3135,-2.3135,-2.3135,-2.3135,-2.3135,-2.3135,-2.3135,-2.3135,-2.3135,-2.3135,-2.3135,-2.3135,-2.3135,-2.3135,-2.3135,-2.3135,-2.3135,-2.3135,-2.3135,-2.3135,-2.3135,-2.3135,-2.2589,-2.1667,-2.0486,-1.9314,-1.8048,-0.7068,-0.7058,-0.7139,-0.7139,-0.7139,-0.7139,-0.7139,-0.7139,-0.7129,-0.7102,-0.9598,-1.1673,-1.2647,-1.2991,-1.3351,-1.3713,-1.4177,-1.4522,-1.4609,-1.4616,-1.4616,-1.4616,-1.5574,-1.6758,-1.8121,-1.9562,-2.0833,-2.1911,-2.1911,-2.2179,-2.2646,-2.2646,-2.2646,-2.2646,-2.2646,-2.25,-2.2266,-2.2266,-2.2119,-2.1885,-2.1885,-2.1885,-2.1885,-2.1885,-2.1885,-2.1865,-2.1689,-2.1621,-2.1562,-2.1113,-2.0967,-2.0918,-2.0654,-2.0566,-2.0566,-2.0566,-2.0566,-2.0566,-2.0566,-2.0566,-2.0566,-2.0566,-2.0566,-2.0566,-2.0566,-2.0566,-2.0566,-2.0566,-2.0566,-2.0566,-2.0566,-2.0566,-2.0566,-2.0566,-2.0566,-2.0566,-2.0566,-2.0566,-2.0566,-2.0566,-2.0566,-2.0566,-2.0566,-2.0595,-2.0589,-2.0614,-2.2139,-2.3061,-2.3125,-2.3135,-2.3135,-2.3135,-2.3135,-2.3135,-2.3135,-2.3135,-2.3135,-2.3135,-2.3135,-2.3135,-2.3135,-2.3135,-2.3135,-2.3135,-2.3135,-2.3135,-2.3057,-2.3066,-2.2744,-2.218,-2.2195,-2.1544,-2.0486,-1.9222,-1.8326,-1.7505,-0.7048,-0.7037,-0.7122,-0.7122,-0.7132,-0.7139,-0.7139,-0.7139,-0.7139,-0.7139,-0.7102,-0.7888,-1.009,-1.123,-1.1958,-1.2237,-1.3379,-1.4088,-1.4088,-1.4088,-1.4088,-1.4088,-1.4342,-1.5113,-1.6498,-1.777,-1.9008,-2.0205,-2.0205,-2.082,-2.1885,-2.1885,-2.1885,-2.1885,-2.1885,-2.1865,-2.1826,-2.1826,-2.1807,-2.1768,-2.1768,-2.1768,-2.1768,-2.1768,-2.1768,-2.1719,-2.1318,-2.1172,-2.1113,-2.0703,-2.0566,-2.0566,-2.0566,-2.0566,-2.0566,-2.0566,-2.0566,-2.0566,-2.0566,-2.0566,-2.0566,-2.0566,-2.0566,-2.0566,-2.0566,-2.0566,-2.0566,-2.0566,-2.0566,-2.0566,-2.0566,-2.0566,-2.0566,-2.0566,-2.0566,-2.0566,-2.0566,-2.0566,-2.0566,-2.0566,-2.0566,-2.0566,-2.0566,-2.0566,-2.0603,-2.0613,-2.2133,-2.3117,-2.3125,-2.3135,-2.3038,-2.2833,-2.2736,-2.2853,-2.3086,-2.3086,-2.3076,-2.3135,-2.3135,-2.3067,-2.3086,-2.3086,-2.3096,-2.3115,-2.3115,-2.3115,-2.3135,-2.3082,-2.2011,-2.024,-2.0283,-1.9945,-1.9231,-1.8149,-1.7692,-1.7318,-0.6476,-0.6902,-0.6973,-0.6973,-0.7065,-0.7139,-0.7139,-0.7139,-0.7139,-0.7139,-0.7102,-0.7253,-0.7796,-1.0489,-1.2231,-1.2322,-1.3379,-1.4088,-1.4088,-1.4088,-1.4088,-1.4088,-1.4148,-1.4379,-1.4689,-1.6334,-1.814,-2.0205,-2.0205,-2.082,-2.1885,-2.1885,-2.1885,-2.1885,-2.1885,-2.1699,-2.1377,-2.1377,-2.1172,-2.085,-2.085,-2.085,-2.085,-2.085,-2.085,-2.084,-2.0742,-2.0713,-2.0693,-2.0596,-2.0566,-2.0566,-2.0566,-2.0566,-2.0566,-2.0566,-2.0566,-2.0566,-2.0566,-2.0566,-2.0566,-2.0566,-2.0566,-2.0566,-2.0566,-2.0566,-2.0566,-2.0566,-2.0566,-2.0566,-2.0566,-2.0566,-2.0566,-2.0566,-2.0566,-2.0566,-2.0566,-2.0566,-2.0566,-2.0566,-2.0566,-2.0566,-2.0566,-2.0566,-2.0603,-2.0613,-2.2178,-2.3133,-2.3105,-2.3135,-2.2221,-2.0305,-2.0305,-2.1203,-2.3053,-2.3053,-2.3055,-2.3135,-2.3135,-2.3057,-2.3053,-2.3053,-2.3079,-2.309,-2.309,-2.309,-2.309,-2.3138,-2.0633,-1.6821,-1.6865,-1.7544,-1.8497,-1.8319,-1.7355,-1.6197,-0.6136,-0.6696,-0.682,-0.682,-0.6943,-0.7128,-0.7128,-0.7099,-0.7139,-0.7139,-0.7119,-0.7369,-0.8162,-1.0163,-1.1901,-1.3027,-1.373,-1.4088,-1.4088,-1.4088,-1.4088,-1.4088,-1.4088,-1.4088,-1.4088,-1.5049,-1.6382,-1.8046,-1.8046,-1.8894,-2.0504,-2.0504,-2.0757,-2.125,-2.125,-2.1133,-2.0918,-2.0918,-2.0781,-2.0566,-2.0566,-2.0566,-2.0566,-2.0566,-2.0566,-2.0566,-2.0566,-2.0566,-2.0566,-2.0566,-2.0566,-2.0566,-2.0566,-2.0566,-2.0566,-2.0566,-2.0566,-2.0566,-2.0566,-2.0566,-2.0566,-2.0566,-2.0566,-2.0566,-2.0566,-2.0566,-2.0566,-2.0566,-2.0566,-2.0566,-2.0566,-2.0566,-2.0566,-2.0566,-2.0566,-2.0566,-2.0566,-2.0566,-2.0566,-2.0566,-2.0566,-2.0566,-2.0566,-2.0566,-2.0624,-2.057,-2.2113,-2.3076,-2.3063,-2.3057,-2.2532,-2.1298,-2.0447,-2.0722,-2.1965,-2.1563,-2.1338,-2.14,-2.1371,-2.138,-2.1302,-2.0193,-1.9579,-1.9604,-1.9604,-1.9604,-1.9613,-1.9637,-1.8141,-1.58,-1.579,-1.6327,-1.708,-1.708,-1.6501,-1.5832,-0.5826,-0.6499,-0.6664,-0.6661,-0.6874,-0.7076,-0.7104,-0.7118,-0.7112,-0.7136,-0.7139,-0.7672,-0.9354,-1.0371,-1.1735,-1.3913,-1.4088,-1.4088,-1.4088,-1.4088,-1.4088,-1.4088,-1.4088,-1.4088,-1.4088,-1.4088,-1.4657,-1.5696,-1.5696,-1.6756,-1.8718,-1.8718,-1.9274,-2.0323,-2.0323,-2.0411,-2.0566,-2.0566,-2.0566,-2.0566,-2.0566,-2.0566,-2.0566,-2.0566,-2.0566,-2.0566,-2.0566,-2.0566,-2.0566,-2.0566,-2.0566,-2.0566,-2.0566,-2.0566,-2.0566,-2.0566,-2.0566,-2.0566,-2.0566,-2.0566,-2.0566,-2.0566,-2.0566,-2.0566,-2.0566,-2.0566,-2.0566,-2.0566,-2.0566,-2.0566,-2.0566,-2.0566,-2.0566,-2.0566,-2.0566,-2.0566,-2.0566,-2.0566,-2.0566,-2.0566,-2.0566,-2.0586,-2.0625,-2.0586,-2.0585,-2.06,-2.1869,-2.2621,-2.2522,-2.2621,-2.253,-2.2227,-2.0882,-2.021,-2.021,-1.9555,-1.9314,-1.9497,-1.9298,-1.9216,-1.9224,-1.7175,-1.6113,-1.5837,-1.5837,-1.5837,-1.5759,-1.5831,-1.5805,-1.5819,-1.5772,-1.5832,-1.5832,-1.5832,-1.5832,-1.5832,-0.555,-0.6368,-0.6361,-0.6505,-0.663,-0.686,-0.7083,-0.7121,-0.709,-0.7126,-0.7139,-0.7672,-0.9354,-1.1058,-1.2595,-1.3997,-1.4088,-1.4088,-1.4088,-1.4088,-1.4088,-1.4088,-1.4088,-1.4088,-1.4088,-1.4088,-1.4657,-1.5696,-1.5696,-1.6355,-1.7496,-1.7496,-1.8149,-1.9204,-1.9204,-1.9756,-2.0566,-2.0566,-2.0566,-2.0566,-2.0566,-2.0566,-2.0566,-2.0566,-2.0566,-2.0566,-2.0566,-2.0566,-2.0566,-2.0566,-2.0566,-2.0566,-2.0566,-2.0566,-2.0566,-2.0566,-2.0566,-2.0566,-2.0566,-2.0566,-2.0566,-2.0566,-2.0566,-2.0566,-2.0566,-2.0566,-2.0566,-2.0566,-2.0566,-2.0566,-2.0566,-2.0566,-2.0566,-2.0566,-2.0566,-2.0566,-2.0566,-2.0566,-2.0566,-2.0566,-2.0566,-2.0566,-2.0613,-2.0605,-2.0632,-2.0615,-2.0838,-2.0683,-2.0,-2.0631,-2.0269,-1.8511,-1.8226,-1.8126,-1.8126,-1.7956,-1.8503,-1.9497,-1.8472,-1.8133,-1.8458,-1.8064,-1.7196,-1.5752,-1.5752,-1.5752,-1.5758,-1.5785,-1.5792,-1.5798,-1.5818,-1.5832,-1.5832,-1.5832,-1.5832,-1.5832,-0.3912,-0.5454,-0.6291,-0.6356,-0.6474,-0.6512,-0.6661,-0.692,-0.7119,-0.7094,-0.7111,-0.7665,-0.8978,-1.1047,-1.2766,-1.3997,-1.4088,-1.4088,-1.4088,-1.4088,-1.4088,-1.4088,-1.4088,-1.4088,-1.4088,-1.4088,-1.4328,-1.4817,-1.4817,-1.5387,-1.6437,-1.6437,-1.7001,-1.8069,-1.8718,-1.9283,-1.9766,-2.0323,-2.0566,-2.0566,-2.0566,-2.0566,-2.0566,-2.0566,-2.0566,-2.0566,-2.0566,-2.0566,-2.0566,-2.0566,-2.0566,-2.0566,-2.0566,-2.0566,-2.0566,-2.0566,-2.0566,-2.0566,-2.0566,-2.0566,-2.0566,-2.0566,-2.0566,-2.0566,-2.0566,-2.0566,-2.0566,-2.0566,-2.0566,-2.0566,-2.0566,-2.0566,-2.0566,-2.0566,-2.0566,-2.0566,-2.0566,-2.0566,-2.0566,-2.0566,-2.0596,-2.0564,-2.0591,-1.8382,-1.7963,-2.0428,-1.8313,-1.7126,-1.7383,-1.7776,-1.801,-1.8018,-1.7825,-1.7692,-1.7692,-1.6943,-1.6936,-1.739,-1.6842,-1.7145,-1.7916,-1.7261,-1.6508,-1.5832,-1.5832,-1.5832,-1.5832,-1.5832,-1.5832,-1.5832,-1.5832,-1.5832,-1.5832,-1.5832,-1.5832,-1.5832]},{"header":{"parameterUnit":"m.s-1","parameterCategory":1,"la1":30.6,"la2":28.766,"lo1":-90.7593,"lo2":-88.6598,"dy":0.0162,"dx":0.0183,"nx":116,"ny":114,"refTime":"2023-04-25T00:00:00:Z","depth":0,"parameterNumber":3,"parameterNumberName":"V-component_of_WINDS"},"data":[0.0,0.0,0.0,0.0,0.0,0.0,0.0,0.0,0.0,0.0,0.0,0.0,0.0,0.0,0.0,0.0,0.0,0.0,0.0,0.0,0.0,0.0,0.0,0.0,0.0,0.0,0.0,0.0,0.0,0.0,0.0,0.0,0.0,0.0,0.0,0.0,0.0,0.0,0.0,0.0,0.0,0.0,0.0,0.0,0.0,0.0,0.0,0.0,0.0,0.0,0.0,0.0,0.0,0.0,0.0,0.0,0.0,0.0,0.0,0.0,0.0,0.0,0.0,0.0,0.0,0.0,0.0,0.0,0.0,0.0,0.0,0.0,0.0,0.0,0.0,0.0,0.0,0.0,0.0,0.0,0.0,0.0,0.0,0.0,0.0,0.0,0.0,0.0,0.0,0.0,0.0,0.0,0.0,0.0,0.0,0.0,0.0,0.0,0.0,0.0,0.0,0.0,0.0,0.0,0.0,0.0,0.0,0.0,0.0,0.0,0.0,0.0,0.0,0.0,0.0,0.0,0.0,0.0,0.0,0.0,0.0,0.0,0.0,0.0,0.0,0.0,0.0,0.0,0.0,0.0,0.0,0.0,0.0,0.0,0.0,0.0,0.0,0.0,0.0,0.0,0.0,0.0,0.0,0.0,0.0,0.0,0.0,0.0,0.0,0.0,0.0,0.0,0.0,0.0,0.0,0.0,0.0,0.0,0.0,0.0,0.0,0.0,0.0,0.0,0.0,0.0,0.0,0.0,0.0,0.0,0.0,0.0,0.0,0.0,0.0,0.0,0.0,0.0,0.0,0.0,0.0,0.0,0.0,0.0,0.0,0.0,0.0,0.0,0.0,0.0,0.0,0.0,0.0,0.0,0.0,0.0,0.0,0.0,0.0,0.0,0.0,0.0,0.0,0.0,0.0,0.0,0.0,0.0,0.0,0.0,0.0,0.0,0.0,0.0,0.0,0.0,0.0,0.0,0.0,0.0,0.0,0.0,0.0,0.0,0.0,0.0,0.0,0.0,0.0,0.0,0.0,0.0,0.0,0.0,0.0,0.0,0.0,0.0,0.0,0.0,0.0,0.0,0.0,0.0,0.0,0.0,0.0,0.0,0.0,0.0,0.0,0.0,0.0,0.0,0.0,0.0,0.0,0.0,0.0,0.0,0.0,0.0,0.0,0.0,0.0,0.0,0.0,0.0,0.0,0.0,0.0,0.0,0.0,0.0,0.0,0.0,0.0,0.0,0.0,0.0,0.0,0.0,0.0,0.0,0.0,0.0,0.0,0.0,0.0,0.0,0.0,0.0,0.0,0.0,0.0,0.0,0.0,0.0,0.0,0.0,0.0,0.0,0.0,0.0,0.0,0.0,0.0,0.0,0.0,0.0,0.0,0.0,0.0,0.0,0.0,0.0,0.0,0.0,0.0,0.0,0.0,0.0,0.0,0.0,0.0,0.0,0.0,0.0,0.0,0.0,0.0,0.0,0.0,0.0,0.0,0.0,0.0,0.0,0.0,0.0,0.0,0.0,0.0,0.0,0.0,0.0,0.0,0.0,0.0,0.0,0.0,0.0,0.0,0.0,0.0,0.0,0.0,0.0,0.0,0.0,0.0,0.0,0.0,0.0,0.0,0.0,0.0,0.0,0.0,0.0,0.0,0.0,0.0,0.0,0.0,0.0,0.0,0.0,0.0,0.0,0.0,0.0,0.0,0.0,0.0,0.0,0.0,0.0,0.0,0.0,0.0,0.0,0.0,0.0,0.0,0.0,0.0,0.0,0.0,0.0,0.0,0.0,0.0,0.0,0.0,0.0,0.0,0.0,0.0,0.0,0.0,0.0,0.0,0.0,0.0,0.0,0.0,0.0,0.0,0.0,0.0,0.0,0.0,0.0,0.0,0.0,0.0,0.0,0.0,0.0,0.0,0.0,0.0,0.0,0.0,0.0,0.0,0.0,0.0,0.0,0.0,0.0,0.0,0.0,0.0,0.0,0.0,0.0,0.0,0.0,0.0,0.0,0.0,0.0,0.0,0.0,0.0,0.0,0.0,0.0,0.0,0.0,0.0,0.0,0.0,0.0,0.0,0.0,0.0,0.0,0.0,0.0,0.0,0.0,0.0,0.0,0.0,0.0,0.0,0.0,0.0,0.0,0.0,0.0,0.0,0.0,0.0,0.0,0.0,0.0,0.0,0.0,0.0,0.0,0.0,0.0,0.0,0.0,0.0,0.0,0.0,0.0,0.0,0.0,0.0,0.0,0.0,0.0,0.0,0.0,0.0,0.0,0.0,0.0,0.0,0.0,0.0,0.0,0.0,0.0,0.0,0.0,0.0,0.0,0.0,0.0,0.0,0.0,0.0,0.0,0.0,0.0,0.0,0.0,0.0,0.0,0.0,0.0,0.0,0.0,0.0,0.0,0.0,0.0,0.0,0.0,0.0,0.0,0.0,0.0,0.0,0.0,0.0,0.0,0.0,0.0,0.0,0.0,0.0,0.0,0.0,0.0,0.0,0.0,0.0,0.0,0.0,0.0,0.0,0.0,0.0,0.0,0.0,0.0,0.0,0.0,0.0,0.0,0.0,0.0,0.0,0.0,0.0,0.0,0.0,0.0,0.0,0.0,0.0,0.0,0.0,0.0,0.0,0.0,0.0,0.0,0.0,0.0,0.0,0.0,0.0,0.0,0.0,0.0,0.0,0.0,0.0,0.0,0.0,0.0,0.0,0.0,0.0,0.0,0.0,0.0,0.0,0.0,0.0,0.0,0.0,0.0,0.0,0.0,0.0,0.0,0.0,0.0,0.0,0.0,0.0,0.0,0.0,0.0,0.0,0.0,0.0,0.0,0.0,0.0,0.0,0.0,0.0,0.0,0.0,0.0,0.0,0.0,0.0,0.0,0.0,0.0,0.0,0.0,0.0,0.0,0.0,0.0,0.0,0.0,0.0,0.0,0.0,0.0,0.0,0.0,0.0,0.0,0.0,0.0,0.0,0.0,0.0,0.0,0.0,0.0,0.0,0.0,0.0,0.0,0.0,0.0,0.0,0.0,0.0,0.0,0.0,0.0,0.0,0.0,0.0,0.0,0.0,0.0,0.0,0.0,0.0,0.0,0.0,0.0,0.0,0.0,0.0,0.0,0.0,0.0,0.0,0.0,0.0,0.0,0.0,0.0,0.0,0.0,0.0,0.0,0.0,0.0,0.0,0.0,0.0,0.0,0.0,0.0,0.0,0.0,0.0,0.0,0.0,0.0,0.0,0.0,0.0,0.0,0.0,0.0,0.0,0.0,0.0,0.0,0.0,0.0,0.0,0.0,0.0,0.0,0.0,0.0,0.0,0.0,0.0,0.0,0.0,0.0,0.0,0.0,0.0,0.0,0.0,0.0,0.0,0.0,0.0,0.0,0.0,0.0,0.0,0.0,0.0,0.0,0.0,0.0,0.0,0.0,0.0,0.0,0.0,0.0,0.0,0.0,0.0,0.0,0.0,0.0,0.0,0.0,0.0,0.0,0.0,0.0,0.0,0.0,0.0,0.0,0.0,0.0,0.0,0.0,0.0,0.0,0.0,0.0,0.0,0.0,0.0,0.0,0.0,0.0,0.0,0.0,0.0,0.0,0.0,0.0,0.0,0.0,0.0,0.0,0.0,0.0,0.0,0.0,0.0,0.0,0.0,0.0,0.0,0.0,0.0,0.0,0.0,0.0,0.0,0.0,0.0,0.0,0.0,0.0,0.0,0.0,0.0,0.0,0.0,0.0,0.0,0.0,0.0,0.0,0.0,0.0,0.0,0.0,0.0,0.0,0.0,0.0,0.0,0.0,0.0,0.0,0.0,0.0,0.0,0.0,0.0,0.0,0.0,0.0,0.0,0.0,0.0,0.0,0.0,0.0,0.0,0.0,0.0,0.0,0.0,0.0,0.0,0.0,0.0,0.0,0.0,0.0,0.0,0.0,0.0,0.0,0.0,0.0,0.0,0.0,0.0,0.0,0.0,0.0,0.0,0.0,0.0,0.0,0.0,0.0,0.0,0.0,0.0,0.0,0.0,0.0,0.0,0.0,0.0,0.0,0.0,0.0,0.0,0.0,0.0,0.0,0.0,0.0,0.0,0.0,0.0,0.0,0.0,0.0,0.0,0.0,0.0,0.0,0.0,0.0,0.0,0.0,0.0,0.0,0.0,0.0,0.0,0.0,0.0,0.0,0.0,0.0,0.0,0.0,0.0,0.0,0.0,0.0,0.0,0.0,0.0,0.0,0.0,0.0,0.0,0.0,0.0,0.0,0.0,0.0,0.0,0.0,0.0,0.0,0.0,0.0,0.0,0.0,0.0,0.0,0.0,0.0,0.0,0.0,0.0,0.0,0.0,0.0,0.0,0.0,0.0,0.0,0.0,0.0,0.0,0.0,0.0,0.0,0.0,0.0,0.0,0.0,0.0,0.0,0.0,0.0,0.0,0.0,0.0,0.0,0.0,0.0,0.0,0.0,0.0,0.0,0.0,0.0,0.0,0.0,0.0,0.0,0.0,0.0,0.0,0.0,0.0,0.0,0.0,0.0,0.0,0.0,0.0,0.0,0.0,0.0,0.0,0.0,0.0,0.0,0.0,0.0,0.0,0.0,0.0,0.0,0.0,0.0,0.0,0.0,0.0,0.0,0.0,0.0,0.0,0.0,0.0,0.0,0.0,0.0,0.0,0.0,0.0,0.0,0.0,0.0,0.0,0.0,0.0,0.0,0.0,0.0,0.0,0.0,0.0,0.0,0.0,0.0,0.0,0.0,0.0,0.0,0.0,0.0,0.0,0.0,0.0,0.0,0.0,0.0,0.0,0.0,0.0,0.0,0.0,0.0,0.0,0.0,0.0,0.0,0.0,0.0,0.0,0.0,0.0,0.0,0.0,0.0,0.0,0.0,0.0,0.0,0.0,0.0,0.0,0.0,0.0,0.0,0.0,0.0,0.0,0.0,0.0,0.0,0.0,0.0,0.0,0.0,0.0,0.0,0.0,0.0,0.0,0.0,0.0,0.0,0.0,0.0,0.0,0.0,0.0,0.0,0.0,0.0,0.0,0.0,0.0,0.0,0.0,0.0,0.0,0.0,0.0,0.0,0.0,0.0,0.0,0.0,0.0,0.0,0.0,0.0,0.0,0.0,0.0,0.0,0.0,0.0,0.0,0.0,0.0,0.0,0.0,0.0,0.0,0.0,0.0,0.0,0.0,0.0,0.0,0.0,0.0,0.0,0.0,0.0,0.0,0.0,0.0,0.0,0.0,0.0,0.0,0.0,0.0,0.0,0.0,0.0,0.0,0.0,0.0,0.0,0.0,0.0,0.0,0.0,0.0,0.0,0.0,0.0,0.0,0.0,0.0,0.0,0.0,0.0,0.0,0.0,0.0,0.0,0.0,0.0,0.0,0.0,0.0,0.0,0.0,0.0,0.0,0.0,0.0,0.0,0.0,0.0,0.0,0.0,0.0,0.0,0.0,0.0,0.0,0.0,0.0,0.0,0.0,0.0,0.0,0.0,0.0,0.0,0.0,0.0,0.0,0.0,0.0,0.0,0.0,0.0,0.0,0.0,0.0,0.0,0.0,0.0,0.0,0.0,0.0,0.0,0.0,0.0,0.0,0.0,0.0,0.0,0.0,0.0,0.0,0.0,0.0,0.0,0.0,0.0,0.0,0.0,0.0,0.0,0.0,0.0,0.0,0.0,0.0,0.0,0.0,0.0,0.0,0.0,0.0,0.0,0.0,0.0,0.0,0.0,0.0,0.0,0.0,0.0,0.0,0.0,0.0,0.0,0.0,0.0,0.0,0.0,0.0,0.0,0.0,0.0,0.0,0.0,0.0,0.0,0.0,0.0,0.0,0.0,0.0,0.0,0.0,0.0,0.0,0.0,0.0,0.0,0.0,0.0,0.0,0.0,0.0,0.0,0.0,0.0,0.0,0.0,0.0,0.0,0.0,0.0,0.0,0.0,0.0,0.0,0.0,0.0,0.0,0.0,0.0,0.0,0.0,0.0,0.0,0.0,0.0,0.0,0.0,0.0,0.0,0.0,0.0,0.0,0.0,0.0,0.0,0.0,0.0,0.0,0.0,0.0,0.0,0.0,0.0,0.0,0.0,0.0,0.0,0.0,-3.1144,-3.0506,0.0,0.0,0.0,0.0,0.0,0.0,0.0,0.0,0.0,0.0,0.0,0.0,0.0,0.0,0.0,0.0,0.0,0.0,0.0,0.0,0.0,0.0,0.0,0.0,0.0,0.0,0.0,0.0,0.0,0.0,0.0,0.0,0.0,0.0,0.0,0.0,0.0,0.0,-3.0591,-3.1461,-3.26,-3.3025,-3.361,-3.434,0.0,0.0,0.0,0.0,0.0,0.0,0.0,0.0,0.0,0.0,0.0,0.0,0.0,0.0,0.0,0.0,0.0,0.0,0.0,0.0,0.0,0.0,0.0,0.0,0.0,0.0,0.0,0.0,0.0,0.0,0.0,0.0,0.0,0.0,0.0,0.0,0.0,0.0,0.0,0.0,0.0,0.0,0.0,0.0,0.0,0.0,0.0,0.0,0.0,0.0,0.0,0.0,0.0,0.0,0.0,0.0,0.0,0.0,0.0,0.0,0.0,0.0,0.0,0.0,0.0,0.0,0.0,0.0,0.0,0.0,-3.0947,-3.0871,0.0,0.0,0.0,0.0,0.0,0.0,0.0,0.0,0.0,0.0,0.0,0.0,0.0,0.0,0.0,0.0,0.0,0.0,0.0,0.0,0.0,0.0,0.0,0.0,-3.0879,-3.0898,-3.0898,-3.084,0.0,0.0,0.0,0.0,0.0,0.0,0.0,0.0,0.0,0.0,-3.1474,-3.269,-3.3952,-3.4096,-3.3653,-3.2839,-3.4433,0.0,0.0,0.0,0.0,0.0,0.0,0.0,0.0,0.0,0.0,0.0,0.0,0.0,0.0,0.0,0.0,0.0,0.0,0.0,0.0,0.0,0.0,0.0,0.0,0.0,0.0,0.0,0.0,0.0,0.0,0.0,0.0,0.0,0.0,0.0,0.0,0.0,0.0,0.0,0.0,0.0,0.0,0.0,0.0,0.0,0.0,0.0,0.0,0.0,0.0,0.0,0.0,0.0,0.0,0.0,0.0,0.0,0.0,0.0,0.0,0.0,0.0,0.0,-3.5711,-3.4773,-3.3228,-3.2864,-3.2051,-3.106,-3.1286,-3.17,-3.2139,-3.116,0.0,0.0,0.0,0.0,0.0,0.0,0.0,0.0,0.0,0.0,0.0,0.0,0.0,0.0,0.0,0.0,0.0,0.0,0.0,0.0,0.0,-3.0679,-3.0762,-3.0898,-3.0898,-3.084,0.0,0.0,0.0,0.0,0.0,0.0,0.0,-3.0136,-3.0611,-3.1826,-3.2585,-3.2804,-3.2576,-3.3281,-3.3544,-3.3436,-3.5049,-3.535,-3.4677,0.0,0.0,0.0,0.0,0.0,0.0,0.0,0.0,0.0,0.0,0.0,0.0,0.0,0.0,0.0,0.0,0.0,0.0,0.0,0.0,0.0,0.0,0.0,0.0,0.0,0.0,0.0,0.0,0.0,0.0,0.0,0.0,0.0,0.0,0.0,0.0,0.0,0.0,0.0,0.0,0.0,-3.9343,-3.9868,0.0,0.0,0.0,0.0,0.0,0.0,0.0,0.0,0.0,0.0,0.0,0.0,0.0,-3.525,-3.525,-3.6522,-3.7165,-3.7165,-3.6453,-3.5961,-3.565,-3.3888,-3.2921,-3.2704,-3.1788,0.0,-3.2164,-3.1537,0.0,0.0,0.0,0.0,0.0,0.0,0.0,0.0,0.0,0.0,0.0,0.0,0.0,0.0,0.0,0.0,0.0,0.0,0.0,0.0,0.0,-3.1633,-3.2246,-3.2305,-3.3203,-3.3314,-3.2226,-3.2096,0.0,0.0,0.0,0.0,-3.0398,-3.0037,-3.0904,-3.3064,-3.3985,-3.4661,-3.5065,-3.5122,-3.5213,-3.5397,-3.6069,-3.5855,-3.4987,-3.5423,0.0,0.0,0.0,0.0,0.0,0.0,0.0,0.0,0.0,0.0,0.0,0.0,0.0,0.0,0.0,0.0,0.0,0.0,0.0,0.0,0.0,0.0,0.0,0.0,0.0,0.0,0.0,0.0,0.0,0.0,0.0,0.0,0.0,0.0,0.0,0.0,0.0,0.0,0.0,-3.8937,-3.9884,-4.0629,-4.0369,-3.9268,0.0,0.0,0.0,0.0,0.0,0.0,0.0,0.0,0.0,-3.5489,-3.6193,-3.6582,-3.6582,-3.7883,-3.8542,-3.8542,-3.7555,-3.6774,-3.6119,-3.465,-3.3628,-3.3056,-3.2554,-3.2478,-3.2629,-3.175,-3.1386,-3.1298,0.0,0.0,0.0,0.0,-2.8637,-2.9101,0.0,0.0,0.0,0.0,0.0,0.0,0.0,0.0,0.0,0.0,0.0,0.0,-3.1969,-3.3122,-3.4019,-3.4062,-3.5254,-3.5234,-3.3418,-3.3245,0.0,0.0,0.0,-3.0398,-3.0398,-3.0747,-3.2008,-3.4227,-3.5367,-3.6292,-3.6981,-3.6457,-3.6293,-3.6485,-3.6688,-3.6355,-3.5624,-3.6208,-3.548,-3.3931,0.0,0.0,0.0,0.0,0.0,0.0,0.0,0.0,0.0,0.0,0.0,0.0,0.0,0.0,0.0,0.0,0.0,0.0,0.0,0.0,0.0,0.0,0.0,0.0,0.0,0.0,0.0,0.0,0.0,0.0,0.0,0.0,0.0,0.0,0.0,0.0,0.0,-3.9512,-4.0375,-4.1076,-4.1061,-4.0022,0.0,0.0,0.0,0.0,0.0,0.0,-3.5968,-3.5998,-3.6148,-3.6507,-3.7434,-3.7913,-3.7913,-3.8916,-3.9424,-3.9424,-3.8308,-3.7266,-3.6212,-3.5129,-3.4108,-3.3081,-3.3081,-3.3081,-3.3006,-3.2164,-3.1813,-3.18,-3.1499,-3.0896,-3.0168,-2.9892,-2.9967,-3.0269,0.0,0.0,0.0,0.0,0.0,0.0,0.0,0.0,0.0,0.0,0.0,-3.5114,-3.4393,-3.5073,-3.5654,-3.5859,-3.5957,-3.5234,-3.3418,-3.3232,-3.2396,-3.0575,-3.0448,-3.0398,-3.0398,-3.2936,-3.4643,-3.5403,-3.656,-3.6872,-3.6416,-3.5898,-3.5639,-3.5707,-3.6451,-3.6785,-3.6717,-3.6751,-3.6293,-3.5385,-3.3964,0.0,0.0,0.0,0.0,0.0,0.0,0.0,0.0,0.0,0.0,0.0,0.0,0.0,0.0,0.0,0.0,0.0,0.0,0.0,0.0,0.0,0.0,0.0,0.0,0.0,0.0,0.0,0.0,0.0,0.0,0.0,0.0,0.0,0.0,0.0,0.0,0.0,0.0,-4.0925,-4.2285,0.0,0.0,0.0,0.0,-3.5619,-3.5459,-3.6028,-3.7255,-3.7315,-3.7898,-3.9185,-3.929,-3.932,-3.932,-3.9394,-3.9424,-3.9424,-3.8308,-3.7266,-3.6212,-3.5129,-3.4108,-3.3081,-3.3081,-3.3081,-3.3068,-3.3018,-3.2993,-3.288,-3.1813,-3.1361,-3.1185,-3.0168,-3.0432,-3.1311,0.0,0.0,0.0,0.0,0.0,0.0,0.0,0.0,0.0,-3.3609,-3.4691,-3.5089,-3.3858,-3.5943,-3.7493,-3.7656,-3.8691,-3.8553,-3.6697,-3.55,-3.4043,-3.2199,-3.1013,-3.0726,-3.1488,-3.4355,-3.5752,-3.5497,-3.6631,-3.6921,-3.6374,-3.5854,-3.5622,-3.5639,-3.591,-3.6315,-3.684,-3.7804,-3.7483,-3.6366,-3.6332,-3.5131,0.0,0.0,0.0,0.0,0.0,0.0,0.0,0.0,0.0,0.0,0.0,0.0,0.0,0.0,0.0,0.0,0.0,0.0,0.0,0.0,0.0,0.0,0.0,0.0,0.0,0.0,0.0,0.0,0.0,0.0,0.0,0.0,0.0,0.0,0.0,0.0,0.0,-4.1634,-4.1412,0.0,-3.8885,-3.8218,-3.7533,-3.6761,-3.7539,-3.8227,-3.8676,-3.8706,-3.8931,-3.9409,-3.9424,-3.9424,-3.9424,-3.9424,-3.9424,-3.9424,-3.8308,-3.7266,-3.6212,-3.5129,-3.4108,-3.3081,-3.3081,-3.3081,-3.3081,-3.3081,-3.3081,-3.3031,-3.2629,-3.2478,-3.2428,-3.2051,-3.2152,-3.2478,0.0,0.0,0.0,0.0,0.0,0.0,0.0,0.0,-3.5205,-3.4345,-3.5518,-3.6161,-3.5492,-3.7685,-3.9287,-3.9453,-4.0527,-4.0051,-3.7329,-3.6295,-3.4594,-3.1866,-3.1436,-3.2034,-3.3749,-3.575,-3.6602,-3.6291,-3.6898,-3.6921,-3.6374,-3.5854,-3.5622,-3.5622,-3.5622,-3.591,-3.6468,-3.7719,-3.7973,-3.7533,-3.7533,-3.618,-3.4032,0.0,0.0,0.0,0.0,0.0,0.0,0.0,0.0,0.0,0.0,0.0,0.0,0.0,0.0,0.0,0.0,0.0,0.0,0.0,0.0,0.0,0.0,0.0,0.0,0.0,0.0,0.0,0.0,0.0,0.0,0.0,0.0,0.0,0.0,-3.9901,-4.1076,-4.1717,-4.114,-4.0324,-3.9474,-3.8584,-3.8078,-3.8078,-3.8916,-3.9424,-3.9424,-3.9424,-3.9424,-3.9424,-3.9424,-3.9424,-3.9424,-3.9424,-3.9424,-3.9424,-3.8708,-3.7738,-3.6682,-3.5668,-3.4439,-3.3091,-3.3076,-3.2855,-3.2541,-3.2918,-3.3081,-3.3081,-3.3081,-3.3081,-3.3081,-3.3081,-3.3081,-3.3081,0.0,0.0,0.0,0.0,0.0,0.0,0.0,-3.5493,-3.5776,-3.6526,-3.743,-3.8387,-3.9398,-4.0275,-4.0914,-4.1171,-4.1191,-3.9376,-3.5059,-3.5391,-3.384,-2.9567,-3.1674,-3.427,-3.7046,-3.7156,-3.74,-3.7893,-3.7433,-3.6921,-3.6416,-3.5854,-3.5622,-3.5605,-3.5622,-3.5622,-3.5673,-3.6463,-3.7631,-3.8834,-3.7462,-3.6366,-3.5504,0.0,0.0,0.0,0.0,0.0,0.0,0.0,0.0,0.0,0.0,0.0,0.0,0.0,0.0,0.0,0.0,0.0,0.0,0.0,0.0,0.0,0.0,0.0,0.0,0.0,0.0,0.0,0.0,0.0,0.0,0.0,0.0,0.0,-3.8041,-4.0493,-4.2001,-4.1148,-4.1585,-4.1674,-4.0758,-3.9935,-3.9424,-3.9424,-3.9424,-3.9424,-3.9424,-3.9379,-3.9364,-3.9364,-3.9364,-3.9364,-3.9364,-3.9394,-3.9424,-3.9424,-3.9424,-3.8855,-3.7753,-3.6682,-3.5042,-3.3067,-3.3084,-3.2453,-3.1524,-3.2616,-3.3081,-3.3081,-3.3081,-3.3081,-3.3081,-3.3081,-3.3081,-3.3068,0.0,0.0,0.0,0.0,0.0,0.0,0.0,-3.5493,-3.5353,-3.493,-3.6699,-3.7911,-3.7661,-3.9527,-4.0875,-4.1035,-4.1133,-3.984,-3.6641,-3.5485,-3.3782,-3.1213,-3.3249,-3.5247,-3.7043,-3.8059,-3.8339,-3.7893,-3.7433,-3.7097,-3.696,-3.6054,-3.5827,-3.6182,-3.5783,-3.5827,-3.6199,-3.6423,-3.7257,-3.8492,-3.8406,-3.7618,-3.6514,0.0,0.0,0.0,0.0,0.0,0.0,0.0,0.0,0.0,0.0,0.0,0.0,0.0,0.0,0.0,0.0,0.0,0.0,0.0,0.0,0.0,0.0,0.0,0.0,0.0,0.0,0.0,0.0,0.0,0.0,0.0,-3.9343,-4.1085,-4.1085,-4.1779,-4.215,-4.1792,-4.1885,-4.1412,-3.9935,-3.9538,-3.9424,-3.9424,-3.9424,-3.9424,-3.9424,-3.8497,-3.7958,-3.7958,-3.7958,-3.7958,-3.7958,-3.8931,-3.9424,-3.9424,-3.9424,-3.8855,-3.7753,-3.6682,-3.5491,-3.4215,-3.3416,-3.2905,-3.2641,-3.2955,-3.3081,-3.3081,-3.3081,-3.3081,-3.3081,-3.3081,-3.3081,-3.3126,0.0,0.0,0.0,0.0,0.0,0.0,0.0,-3.5493,-3.5449,-3.5276,-3.6853,-3.7988,-3.7954,-3.9625,-4.0809,-4.0902,-4.0698,-3.9121,-3.5723,-3.3912,-3.3422,-3.4437,-3.568,-3.6972,-3.8317,-3.8992,-3.8906,-3.8107,-3.7702,-3.7396,-3.719,-3.6563,-3.644,-3.6724,-3.6399,-3.644,-3.6724,-3.6724,-3.7167,-3.7892,-3.8478,-3.8008,-3.7093,-3.8143,-3.7747,-3.6712,-3.7345,-3.7893,-3.8154,-3.7226,0.0,0.0,0.0,0.0,0.0,0.0,0.0,0.0,0.0,0.0,0.0,0.0,0.0,0.0,0.0,0.0,0.0,0.0,0.0,0.0,0.0,0.0,0.0,0.0,-4.029,-4.2523,-4.3149,-4.325,-4.3076,-4.261,-4.2189,-4.1478,-4.006,-3.961,-3.9424,-3.9424,-3.9424,-3.9424,-3.9424,-3.8676,-3.7988,-3.7434,-3.7958,-3.7973,-3.7419,-3.8751,-3.9424,-3.9424,-3.9424,-3.9104,-3.8457,-3.7343,-3.6027,-3.4592,-3.4066,-3.3204,-3.2403,-3.288,-3.3081,-3.3081,0.0,0.0,0.0,0.0,-3.3398,-3.3779,0.0,0.0,0.0,0.0,0.0,0.0,0.0,-3.5493,-3.5795,-3.6603,-3.7469,-3.8354,-3.93,-4.0181,-4.0712,-4.0781,-3.9934,-3.7653,-3.3574,-3.1758,-3.3009,-3.7854,-3.8163,-3.8796,-4.0082,-3.98,-3.9258,-3.8474,-3.814,-3.7737,-3.7377,-3.7248,-3.7228,-3.7285,-3.721,-3.721,-3.7285,-3.7285,-3.7323,-3.7431,-3.8107,-3.7942,-3.7403,-3.8259,-3.806,-3.7437,-3.821,-3.8806,-3.9221,-3.9081,0.0,0.0,0.0,0.0,0.0,0.0,0.0,0.0,0.0,0.0,0.0,0.0,0.0,0.0,0.0,0.0,0.0,0.0,0.0,0.0,0.0,0.0,0.0,0.0,-4.1102,-4.3031,-4.4384,-4.4587,-4.4253,-4.3366,-4.252,-4.1674,-4.0811,-3.992,-3.9424,-3.9424,-3.9424,-3.9424,-3.9424,-3.9275,0.0,0.0,0.0,-3.8616,-3.7419,-3.8751,-3.9424,-3.9424,-3.9424,-3.9424,-3.9337,-3.8308,-3.6684,-3.4782,-3.4687,-3.3524,-3.1662,-3.2667,-3.3081,-3.3081,-3.3081,-3.3081,-3.3056,-3.293,-3.3682,-3.465,0.0,0.0,0.0,0.0,0.0,0.0,0.0,-3.5493,-3.5795,-3.6603,-3.7469,-3.8334,-3.9219,-4.0142,-4.0708,-4.0723,-3.8752,-3.6312,-3.3495,-3.2285,-3.3357,-3.7151,-3.788,-3.8815,-4.0156,-4.0062,-3.9668,-3.8952,-3.8523,-3.835,-3.8401,-3.756,-3.7396,-3.7755,-3.736,-3.7396,-3.7755,-3.7755,-3.7998,-3.8433,-3.881,-3.8598,-3.8217,-3.9403,-4.0129,-4.0582,-4.1243,-4.1925,-4.2408,-4.139,-4.1025,-4.1082,-4.1372,-4.0368,0.0,0.0,0.0,0.0,0.0,0.0,0.0,0.0,0.0,0.0,0.0,0.0,0.0,0.0,0.0,0.0,0.0,0.0,0.0,-4.073,-4.2675,-4.4248,-4.4536,-4.4587,-4.4253,-4.3366,-4.252,-4.1674,-4.0811,-3.992,-3.9424,-3.9424,-3.9424,-3.9424,-3.9424,-3.8392,-3.7674,-3.7419,-3.7659,-3.7674,-3.7404,-3.8751,-3.9424,-3.9424,-3.9424,0.0,-3.9337,-3.8308,-3.7124,-3.588,-3.5035,-3.3991,-3.2767,-3.298,-3.3081,-3.3081,-3.3081,-3.3081,-3.2968,-3.2051,-3.2988,-3.4532,0.0,0.0,0.0,0.0,0.0,0.0,0.0,-3.5493,-3.5641,-3.6065,-3.6488,-3.7238,-3.8507,-3.793,-3.7791,-3.8623,-3.6425,-3.4867,-3.4574,-3.451,-3.582,-3.8828,-3.9375,-3.9888,-4.0485,-4.0277,-3.9986,-3.965,-3.9208,-3.9061,-3.9154,-3.863,-3.8534,-3.8746,-3.8504,-3.8534,-3.8746,-3.8746,-3.8915,-3.9181,-3.9282,-3.9212,-3.9043,-4.0105,-4.0757,-4.1249,-4.24,-4.3036,-4.3375,-4.3166,-4.3098,-4.3125,-4.329,-4.2674,-4.1567,0.0,0.0,0.0,0.0,0.0,0.0,0.0,0.0,0.0,0.0,0.0,0.0,0.0,0.0,-3.9145,-3.8459,0.0,-3.9918,-4.1035,-4.2151,-4.3284,-4.4418,-4.4587,-4.4253,-4.3366,-4.252,-4.1674,-4.0811,-3.992,-3.9424,-3.9424,-3.9424,-3.9424,-3.9424,-3.8781,-3.8108,-3.7434,-3.8063,-3.8093,-3.7419,-3.8751,-3.9424,-3.9424,-3.9424,-3.9424,-3.9352,-3.887,-3.7738,-3.6198,-3.5668,-3.4568,-3.3081,-3.3081,-3.3081,-3.3081,-3.3081,-3.3081,-3.3006,-3.2441,-3.3602,-3.5345,0.0,0.0,0.0,0.0,0.0,0.0,0.0,0.0,-3.5565,-3.5718,-3.5603,-3.6084,-3.7584,-3.5776,-3.4737,-3.543,-3.4255,-3.3991,-3.5205,-3.6547,-3.8363,-4.0697,-4.0895,-4.089,-4.0803,-4.0468,-4.0284,-4.0239,-3.9909,-3.9712,-3.9656,-3.9656,-3.9656,-3.9656,-3.9656,-3.9641,-3.9649,-3.9649,-3.9626,-3.9599,-3.9668,-3.9709,-3.9766,-4.0492,-4.0764,-4.0966,-4.2329,-4.3026,-4.3429,-4.4184,-4.455,-4.4726,-4.4757,-4.4732,-4.4096,-4.1094,-4.0911,0.0,0.0,0.0,0.0,0.0,0.0,0.0,0.0,-4.0714,-4.1216,-4.0275,-4.0192,-4.0219,-4.013,-3.9714,-3.9898,-4.1559,-4.1863,-4.2489,-4.4316,-4.4587,-4.4253,-4.3366,-4.252,-4.1723,-4.1013,-3.999,-3.9424,-3.9424,-3.9424,-3.9424,-3.9424,-3.9424,-3.8916,-3.7838,-3.8856,-3.8901,-3.7808,-3.8871,-3.9424,-3.9424,-3.9424,-3.9424,-3.9424,-3.9424,-3.8368,-3.6526,-3.6053,-3.4966,-3.3398,-3.3154,-3.3081,-3.3081,-3.3081,-3.3081,-3.3081,-3.3081,-3.4249,-3.5894,0.0,0.0,0.0,0.0,0.0,0.0,0.0,0.0,0.0,-3.6469,-3.5949,-3.5853,-3.6757,-3.5949,-3.4218,-3.134,-3.3628,-3.471,-3.3478,-3.6344,-3.8894,-4.0726,-4.0764,-4.0743,-4.0794,-4.0701,-4.0558,-4.0373,-4.0326,-4.0157,-3.9868,-3.9868,-3.9868,-3.9868,-3.9868,-3.9845,-3.9766,-3.9766,-3.9719,-3.9622,-3.9922,-4.0042,-4.0081,-4.0417,-4.0634,-4.0815,-4.1003,-4.2046,-4.336,-4.376,-4.4383,-4.5096,-4.5381,-4.5283,-4.469,-4.2886,-4.2215,-4.1335,-3.8077,-3.5656,-3.436,-3.5653,-3.7495,-3.9145,0.0,-4.2674,-4.4912,-4.3565,-4.4376,-4.5213,-4.4844,-4.4698,-4.4561,-4.4258,-4.4198,-4.4299,-4.4536,-4.4587,-4.4253,-4.3366,-4.252,-4.1933,-4.1869,-4.0393,-3.9424,-3.9424,-3.9424,-3.9424,-3.9424,-3.9424,-3.9349,-3.92,-3.9334,-3.9349,-3.92,-3.9349,-3.9424,-3.9424,-3.9424,-3.9424,-3.9424,-3.9424,-3.8782,-3.751,-3.5695,-3.4746,-3.4428,-3.3471,-3.3081,-3.3081,-3.3081,-3.3081,-3.3081,-3.3081,-3.3882,-3.4897,0.0,0.0,0.0,0.0,0.0,0.0,0.0,0.0,0.0,0.0,-3.4834,-3.4507,-3.5853,-3.4391,-3.2122,-2.9198,-3.1621,-3.3417,-3.373,-3.6536,-3.895,-4.0655,-4.0754,-4.077,-4.0809,-4.0727,-4.0677,-4.0637,-4.0513,-4.045,-4.0419,-4.0391,-4.0391,-4.0419,-4.0419,-4.0409,-4.0378,-4.0386,-4.0346,-4.031,-4.0457,-4.0511,-4.0528,-4.0627,-4.072,-4.0654,-3.9566,-3.9624,0.0,-4.1493,-4.216,-4.2886,-4.4953,-4.4533,-4.3252,-4.3003,-4.1284,-3.9119,-3.7753,-3.7678,-3.8226,-3.929,-4.1095,-4.2679,-4.2928,-4.4512,-4.559,-4.4527,-4.4968,-4.5576,-4.5863,-4.426,-4.335,-4.4903,-4.3707,-4.3064,-4.4401,-4.4587,-4.444,-4.4121,-4.2141,-4.0625,-4.0133,-3.9673,-3.9095,-3.8302,-3.8975,-3.9424,-3.9424,-3.9424,-3.9424,-3.9424,-3.9424,-3.9424,-3.9424,-3.9424,-3.9424,-3.9424,-3.9424,-3.9424,-3.9424,-3.9424,-3.8457,-3.6774,-3.5292,-3.4345,-3.3713,-3.3326,-3.3081,-3.3081,-3.3081,-3.3471,-3.4037,-3.4037,-3.4275,-3.4746,0.0,0.0,0.0,0.0,0.0,0.0,0.0,0.0,0.0,0.0,-3.3987,-3.3186,-3.3901,-3.2292,-3.0311,-2.8224,-3.0439,-3.2557,-3.3997,-3.6558,-3.8747,-4.0466,-4.0492,-4.0509,-4.0639,-4.0585,-4.0643,-4.0793,-4.0642,-4.0662,-4.0796,-4.0755,-4.0748,-4.0808,-4.0808,-4.0781,-4.0769,-4.0766,-4.0768,-4.0759,-4.0759,-4.0784,-4.0797,-4.0797,-4.0359,-3.9579,-3.8214,-3.7873,-3.8166,-3.8652,-3.9523,-4.0696,-4.2603,-4.2495,-4.1681,-4.172,-3.9476,-3.7066,-3.7525,-3.865,-4.0082,-4.1757,-4.3164,-4.4299,-4.4905,-4.5217,-4.5252,-4.4902,-4.4875,-4.511,-4.5743,-4.3835,-4.2713,-4.4574,-4.3117,-4.226,-4.3762,-4.413,-4.4041,-4.3379,-4.1477,-3.9566,-3.7717,-3.8304,-3.8616,-3.8018,-3.8871,-3.9424,-3.9424,-3.9424,-3.9424,-3.9424,-3.9424,-3.9424,-3.9424,-3.9424,-3.9424,-3.9424,-3.9424,-3.9424,-3.9424,-3.9424,-3.8531,-3.7007,-3.5682,-3.465,-3.394,-3.3313,-3.3081,-3.3081,-3.3081,-3.3556,-3.4275,-3.4594,-3.4897,-3.521,0.0,0.0,0.0,0.0,0.0,0.0,0.0,0.0,0.0,0.0,0.0,0.0,0.0,-2.9905,-2.9374,-2.8468,-3.095,-3.2924,-3.3761,-3.6152,-3.8308,-4.0024,-3.9797,-3.9808,-4.0204,-4.0215,-4.0404,-4.0785,-4.0791,-4.0791,-4.0795,-4.0791,-4.0797,-4.0797,-4.0797,-4.0753,-4.0701,-4.0706,-4.0702,-4.07,-4.07,-4.0747,-4.0805,-4.0805,-3.928,-3.7111,-3.7049,-3.7579,-3.7913,-3.5419,-3.6776,-3.9262,-3.7663,-3.8852,-4.0509,-3.8839,-3.7065,-3.5998,-3.764,-3.6906,-3.6588,-4.0387,-4.1376,-4.1977,-4.4121,-4.4336,-4.4265,-4.5028,-4.4912,-4.4784,-4.5012,-4.4962,-4.4532,-4.3423,-4.321,-4.2943,-4.2443,-4.2997,-4.2606,-4.0315,-4.0614,-3.9324,-3.5058,-3.6349,-3.7988,-3.926,-3.9394,-3.9424,-3.9424,-3.9424,-3.9424,-3.9424,-3.9424,-3.9424,-3.9424,-3.9424,-3.9424,-3.9424,-3.9424,-3.9424,-3.9424,-3.9424,-3.9337,-3.9177,-3.7084,-3.6132,-3.5974,-3.394,-3.3081,-3.3081,-3.3081,-3.3167,-3.324,-3.4345,-3.5278,-3.6119,0.0,0.0,0.0,0.0,0.0,0.0,0.0,0.0,0.0,0.0,0.0,0.0,0.0,0.0,0.0,0.0,-3.0122,-3.125,-3.265,-3.4567,-3.6385,-3.8093,-3.9082,-3.9652,-3.9789,-3.9789,-3.9907,-4.0139,-4.0042,-4.0081,-4.021,-4.0172,-4.0147,-4.0211,-4.0444,-4.0526,-4.0505,-4.068,-4.0759,-4.0766,-4.076,-4.0776,-4.0617,-3.897,-3.7813,-3.6631,0.0,-3.2193,-3.228,-3.1981,-3.2687,-3.4094,-3.6222,-3.6406,-3.5469,-3.3674,-3.5175,-3.7149,-3.6023,-3.7723,-4.0138,-4.1443,-4.2795,-4.4005,-4.4753,-4.4638,-4.4412,-4.4412,-4.3051,-4.1952,-4.2353,-4.0745,-3.9944,-4.1718,-4.0071,-3.9566,-4.2498,-4.0677,-3.9632,-4.1325,-3.9128,-3.7625,-3.8011,-3.8118,-3.7749,-3.6851,-3.8437,-3.9424,-3.9424,-3.9424,-3.9424,-3.9424,-3.9424,-3.9424,-3.9424,-3.9424,-3.9424,-3.9424,-3.9424,-3.9424,-3.9424,-3.9424,-3.9017,-3.8308,-3.7587,-3.6852,-3.6132,-3.5426,-3.4719,-3.4191,-3.4191,-3.4191,-3.4191,-3.4594,-3.5359,-3.6198,0.0,0.0,0.0,0.0,0.0,0.0,0.0,0.0,0.0,0.0,0.0,0.0,0.0,0.0,0.0,0.0,0.0,-3.0302,-3.1977,-3.3084,-3.4419,-3.6098,-3.7033,-3.7572,-3.769,-3.8115,-3.8389,-3.8587,-3.8914,-3.9126,-3.9257,-3.9196,-3.9306,-3.9513,-3.9728,-3.9929,-4.0137,-4.029,-4.0403,-4.0375,-3.9565,-3.9258,-3.9052,-3.6628,-3.5148,0.0,-3.0726,-2.909,-2.8486,-2.8762,-2.9537,-3.073,-3.2725,-3.2731,-3.2172,-3.3169,-3.513,-3.7013,-3.7233,-3.9607,-4.2254,-4.3146,-4.4363,-4.5339,-4.5282,-4.5011,-4.4682,-4.429,-4.2866,-4.1489,-4.079,-3.9043,-3.8289,-3.9996,-3.8373,-3.8131,-4.1587,-3.9961,-3.9056,-4.0882,-3.8583,-3.7238,-3.8328,-3.8013,-3.7177,-3.5629,-3.7285,-3.8377,-3.8377,-3.8586,-3.8916,-3.9409,-3.9424,-3.9424,-3.9424,-3.9424,-3.9424,-3.9424,-3.9424,-3.9424,-3.9424,-3.9424,-3.8765,-3.7638,-3.7386,-3.6767,-3.6081,-3.5809,-3.5507,-3.521,-3.521,-3.521,-3.521,-3.521,-3.5908,-3.6774,0.0,0.0,0.0,0.0,0.0,0.0,0.0,0.0,0.0,0.0,0.0,0.0,0.0,0.0,0.0,0.0,0.0,0.0,-3.1638,-3.1759,-3.2482,-3.4074,-3.3899,-3.3928,-3.4237,-3.5293,-3.5966,-3.6198,-3.7282,-3.7821,-3.7821,-3.7784,-3.8022,-3.8457,-3.8447,-3.8702,-3.9222,-3.9222,-3.9296,-3.9239,-3.706,-3.6279,-3.6145,-3.3859,-3.1497,-2.9392,-2.9365,-2.83,-2.6777,-2.6016,-2.7559,-2.9512,-2.7949,-2.8652,-3.1152,-3.6758,-3.6797,-3.6035,-4.082,-4.2207,-4.2875,-4.522,-4.5811,-4.5776,-4.5624,-4.5361,-4.4992,-4.4531,-4.4036,-4.2839,-4.0062,-3.9454,-3.9112,-3.8244,-3.7958,-3.8367,-3.9793,-4.051,-4.0375,-3.9039,-3.8766,-3.7959,-3.5989,-3.6228,-3.615,-3.5464,-3.6103,-3.6552,-3.6582,-3.7135,-3.8063,-3.9379,-3.9424,-3.9424,-3.9424,-3.9424,-3.9424,-3.9424,-3.9424,-3.9424,-3.9424,-3.9424,-3.8721,-3.7431,-3.6727,-3.6268,-3.5985,-3.5233,-3.544,-3.6198,-3.6277,-3.6212,-3.6132,-3.6198,-3.6852,-3.7753,0.0,0.0,0.0,0.0,0.0,0.0,0.0,0.0,0.0,0.0,0.0,0.0,0.0,0.0,0.0,0.0,0.0,0.0,-2.9706,-3.0867,-3.1673,-3.2103,-3.2967,-3.3465,-3.3542,-3.3557,-3.3566,-3.3635,-3.3908,-3.4092,-3.4074,-3.3512,-3.3454,-3.3789,-3.3456,-3.3506,-3.3883,-3.4072,-3.4207,-3.4243,-3.3757,-3.3599,-3.3365,-3.1092,-2.9817,-2.9091,-2.797,-2.7277,-2.6875,-2.6719,-2.9238,-3.2578,-3.3437,-3.4902,-3.6211,-3.5801,-3.793,-4.0273,-3.9707,-4.2244,-4.5226,-4.5863,-4.5956,-4.5853,-4.5776,-4.5685,-4.4959,-4.2631,-4.0623,-3.8367,-3.5324,-3.329,-3.3105,-3.6261,-3.4661,-3.4375,-3.8339,-3.7352,-3.6485,-3.7246,-3.6795,-3.6692,-3.7214,-3.6338,-3.5247,-3.4083,-3.5968,-3.7389,-3.7883,-3.8048,-3.8542,-3.9394,-3.9424,-3.9424,-3.9424,-3.9424,-3.9424,-3.9424,-3.9424,-3.9424,-3.9424,-3.9424,-3.923,-3.8844,-3.8708,-3.859,-3.8485,-3.8251,-3.742,-3.629,-3.7098,-3.6476,-3.521,-3.5894,-3.6369,-3.6696,0.0,0.0,0.0,0.0,0.0,0.0,0.0,0.0,0.0,0.0,0.0,0.0,0.0,0.0,0.0,0.0,0.0,0.0,0.0,-2.9861,-3.0356,-3.0356,-3.1024,-3.132,-3.1147,-3.1094,-3.1154,-3.1313,-3.1462,-3.1743,-3.2021,-3.162,-3.1456,-3.152,-3.1397,-3.1396,-3.1486,-3.1784,-3.1948,0.0,0.0,-3.0975,-3.1007,-2.8447,-2.7964,-2.8464,-2.7276,-2.7379,-2.8379,-3.0293,-3.1543,-3.2949,-3.6562,-3.7598,-3.7773,-3.9336,-4.1035,-4.2344,-4.2051,-4.4043,-4.6172,-4.6113,-4.6008,-4.5582,-4.4399,-4.4103,-4.3209,-4.0234,-3.8537,-3.6673,-3.356,-3.1883,-3.2056,-3.5356,-3.4092,-3.397,-3.7594,-3.662,-3.5701,-3.6198,-3.5584,-3.5625,-3.7105,-3.6196,-3.519,-3.4427,-3.5459,-3.6282,-3.6656,-3.724,-3.7988,-3.8931,-3.926,-3.9424,-3.9424,-3.9424,-3.9424,-3.9424,-3.9424,-3.9424,-3.9424,-3.9424,-3.9095,-3.8501,-3.8619,-3.8618,-3.8516,-3.8619,-3.8294,-3.7648,-3.8308,-3.751,-3.6094,-3.6696,-3.6604,-3.629,0.0,0.0,0.0,0.0,0.0,0.0,0.0,0.0,0.0,0.0,0.0,0.0,0.0,0.0,0.0,0.0,0.0,0.0,0.0,0.0,0.0,0.0,-2.8998,-2.8779,-2.842,-2.8706,-2.8996,-2.9294,-2.9641,-3.0142,-3.0772,-3.0594,-3.0396,-3.0169,-3.0307,-3.0225,-3.0023,-3.0314,-3.0454,-3.0323,-2.8596,-2.8418,-2.8898,0.0,0.0,-2.7824,-2.7325,-2.8276,-3.041,-3.459,-3.4101,-3.2734,-3.8437,-3.8828,-3.8301,-4.3965,-4.4336,-4.334,-4.5254,-4.6035,-4.6269,-4.6152,-4.6036,-4.5337,-4.3042,-4.2163,-4.1017,-3.8172,-3.7297,-3.6236,-3.353,-3.3045,-3.3568,-3.5227,-3.5029,-3.5142,-3.6586,-3.6781,-3.6404,-3.53,-3.4839,-3.511,-3.6474,-3.5776,-3.531,-3.5489,-3.4951,-3.4651,-3.4741,-3.5848,-3.7075,-3.8347,-3.9065,-3.9424,-3.9424,-3.9424,-3.9424,-3.9424,-3.9424,-3.9424,-3.9424,-3.9424,-3.8781,-3.7664,-3.7886,-3.7901,-3.7679,-3.7916,-3.8472,-3.9177,-3.9337,-3.8634,-3.7587,-3.7919,-3.7343,-3.6448,0.0,0.0,0.0,0.0,0.0,0.0,0.0,0.0,0.0,0.0,-3.2779,-3.1981,0.0,0.0,0.0,0.0,0.0,0.0,0.0,0.0,0.0,0.0,-2.9023,-2.8688,-2.842,-2.8217,-2.8134,-2.817,-2.8252,-2.8333,-2.8456,-2.749,-2.697,-2.6806,-2.5914,-2.547,-2.5377,-2.5417,-2.5538,-2.5671,-2.5493,-2.601,-2.6841,-2.6499,0.0,0.0,-2.8696,-2.9689,-3.1211,-3.4805,-3.6074,-3.6875,-4.0742,-4.2637,-4.3262,-4.2344,-4.3769,-4.5254,-4.3535,-4.4648,-4.6289,-4.6269,-4.6166,-4.5931,-4.534,-4.3535,-4.1178,-3.8462,-3.6238,-3.4454,-3.3447,-3.325,-3.3877,-3.5844,-3.5367,-3.4252,-3.2765,-3.5025,-3.5816,-3.3195,-3.4438,-3.5816,-3.6521,-3.4926,-3.4307,-3.5429,-3.5385,-3.5564,-3.6103,-3.6357,-3.7075,-3.8347,-3.9065,-3.9424,-3.9424,-3.9424,-3.9424,-3.9424,-3.9424,-3.9424,-3.9424,-3.9424,-3.929,-3.908,-3.9088,-3.913,-3.908,-3.9088,-3.8708,-3.8144,-3.9031,-3.8204,-3.6682,-3.8457,-3.8457,-3.7663,0.0,0.0,0.0,0.0,0.0,0.0,0.0,-3.5161,-3.4391,-3.3064,-3.2891,-3.2127,-3.0083,-2.9939,-2.9924,0.0,0.0,0.0,0.0,0.0,0.0,0.0,0.0,0.0,-2.8615,-2.7936,-2.7692,-2.7897,0.0,-2.7536,-2.788,-2.7338,-2.6841,-2.6397,-2.5986,-2.5664,-2.5368,-2.5115,-2.5353,-2.5941,-2.5669,-2.6395,-2.7574,0.0,0.0,0.0,0.0,-3.0429,-3.1289,-3.3809,-3.4922,-3.6113,-4.0898,-4.2969,-4.332,-4.168,-4.3301,-4.5156,-4.2988,-4.4316,-4.6308,-4.6308,-4.6151,-4.5286,-4.2553,-4.0889,-3.8792,-3.4853,-3.296,-3.1889,-3.1486,-3.1335,-3.2273,-3.5308,-3.52,-3.4692,-3.4688,-3.5547,-3.548,-3.3631,-3.4054,-3.4493,-3.4469,-3.3563,-3.326,-3.3903,-3.3948,-3.4547,-3.5908,-3.6297,-3.7075,-3.8347,-3.8706,-3.905,-3.9424,-3.9424,-3.9424,-3.9424,-3.9424,-3.9424,-3.9424,-3.9424,-3.9424,-3.9424,-3.9424,-3.8841,-3.7973,-3.899,-3.851,-3.7311,-3.879,-3.8457,-3.7175,-3.8219,-3.7904,-3.7098,0.0,0.0,0.0,0.0,0.0,0.0,0.0,-3.518,-3.4449,-3.3083,-3.2583,-3.1783,-3.0275,-3.0089,-3.0018,0.0,0.0,0.0,0.0,0.0,0.0,0.0,0.0,0.0,0.0,0.0,0.0,-2.8288,-2.7702,0.0,0.0,0.0,0.0,0.0,-2.7302,-2.7098,-2.6654,-2.6226,-2.6545,0.0,0.0,-2.7498,0.0,0.0,0.0,0.0,0.0,-3.0782,-3.1152,-3.2832,-3.3398,-3.4296,-3.9403,-4.1011,-4.0976,-4.0723,-4.2187,-4.3769,-4.3125,-4.4453,-4.6054,-4.6228,-4.6086,-4.4657,-3.9893,-3.8253,-3.6372,-3.166,-3.0043,-2.9578,-2.9901,-2.9795,-3.0826,-3.4352,-3.407,-3.4195,-3.6307,-3.5475,-3.4577,-3.442,-3.3911,-3.3505,-3.3186,-3.2886,-3.2841,-3.314,-3.3155,-3.3844,-3.5429,-3.6133,-3.6956,-3.7943,-3.7953,-3.827,-3.9185,-3.8969,-3.9043,-3.9424,-3.9424,-3.9424,-3.9424,-3.9424,-3.9424,-3.9424,-3.9424,-3.8302,-3.6641,-3.8616,-3.8257,-3.6686,-3.8646,-3.8708,-3.7829,-3.8069,-3.7496,-3.6682,0.0,0.0,0.0,0.0,0.0,0.0,0.0,-3.416,-3.3083,-3.291,-3.1583,-3.0571,-3.0463,-3.0405,-3.0355,0.0,0.0,0.0,0.0,0.0,0.0,0.0,0.0,0.0,0.0,0.0,0.0,-2.9532,-2.9457,0.0,0.0,0.0,0.0,0.0,0.0,-2.7624,-2.7223,-2.7182,0.0,0.0,0.0,0.0,0.0,0.0,0.0,0.0,0.0,-3.0782,-3.1152,-3.2832,-3.3398,-3.3764,-3.5849,-3.6546,-3.6875,-3.8398,-3.957,-4.1016,-4.3965,-4.4941,-4.5277,-4.5951,-4.6002,-4.4948,-4.131,-3.8575,-3.5815,-3.2295,-2.959,-2.8432,-3.0431,-3.0636,-3.1103,-3.3008,-3.1267,-3.0547,-3.3003,-3.227,-3.2219,-3.4181,-3.4516,-3.4755,-3.5164,-3.4113,-3.3918,-3.513,-3.5235,-3.531,-3.5489,-3.6133,-3.6537,-3.6656,-3.6377,-3.6978,-3.8482,-3.7666,-3.796,-3.9424,-3.9424,-3.9424,-3.9424,-3.9424,-3.9424,-3.9424,-3.9424,-3.8302,-3.6641,-3.8616,-3.8257,-3.6686,-3.8646,-3.8708,-3.7919,-3.887,-3.8546,-3.7829,0.0,0.0,0.0,0.0,0.0,0.0,-3.5493,-3.4949,-3.416,-3.3109,-3.2449,-3.1698,-3.0679,-3.054,-3.051,-3.0518,0.0,0.0,0.0,0.0,0.0,0.0,0.0,0.0,0.0,0.0,-2.9696,-2.9696,-2.9696,0.0,0.0,0.0,0.0,0.0,0.0,-2.9017,-2.9007,-2.8495,0.0,0.0,0.0,0.0,0.0,0.0,0.0,0.0,0.0,0.0,-3.0994,-3.1582,-3.1766,-3.1778,-3.1903,-3.1957,-3.2318,-3.4095,-3.7055,-3.9704,-3.9607,-4.1763,-4.4137,-4.4501,-4.4433,-4.3111,-3.8659,-3.6779,-3.4737,-3.0314,-2.8332,-2.7619,-2.8508,-2.8234,-2.8488,-3.0261,-2.9528,-2.9798,-3.2841,-3.2763,-3.3096,-3.4933,-3.5139,-3.4802,-3.3769,-3.2694,-3.2063,-3.204,-3.255,-3.3122,-3.3696,-3.5104,-3.5562,-3.4753,-3.5137,-3.5867,-3.6963,-3.6382,-3.7008,-3.8811,-3.7926,-3.813,-3.9352,-3.8708,-3.8782,-3.9424,-3.9424,-3.7614,-3.4936,-3.8108,-3.7554,-3.4996,-3.8182,-3.9104,-3.8782,-3.9265,-3.9104,-3.8782,0.0,0.0,0.0,0.0,0.0,-3.5545,-3.5565,-3.5397,-3.4732,-3.3238,-3.2924,-3.2265,-3.0787,-3.0626,-3.0649,-3.0685,-3.0598,0.0,0.0,0.0,0.0,0.0,0.0,0.0,0.0,0.0,-2.9953,-2.9953,-2.9953,-2.9953,0.0,0.0,-2.9953,-2.9953,0.0,0.0,0.0,0.0,0.0,0.0,0.0,0.0,0.0,0.0,0.0,0.0,0.0,0.0,0.0,0.0,0.0,-3.054,-2.9859,-2.9661,-2.9918,-3.1227,-3.4695,-3.7895,-3.6938,-3.9779,-4.3101,-4.341,-4.2765,-4.0862,-3.6247,-3.4571,-3.2667,-2.8,-2.6738,-2.6472,-2.6408,-2.585,-2.6009,-2.7911,-2.7782,-2.8574,-3.1824,-3.1807,-3.2306,-3.4457,-3.4272,-3.3661,-3.304,-3.2104,-3.1298,-3.0634,-3.1166,-3.1727,-3.2181,-3.3768,-3.4257,-3.3359,-3.3675,-3.4327,-3.5311,-3.4732,-3.5578,-3.7656,-3.6505,-3.6774,-3.8217,-3.7632,-3.775,-3.8586,-3.8852,-3.7203,-3.4637,-3.8018,-3.7434,-3.4711,-3.8093,-3.9424,-3.9424,-3.9424,-3.9424,-3.9424,0.0,0.0,0.0,0.0,0.0,0.0,-3.5699,-3.5018,-3.4198,-3.3301,-3.2448,-3.1596,-3.0791,-3.0698,-3.0742,-3.0879,-3.0716,0.0,0.0,0.0,0.0,0.0,0.0,0.0,0.0,0.0,-3.0602,-3.0602,-3.0602,-3.0602,-3.0602,-3.0602,-3.0602,-3.0602,0.0,0.0,0.0,0.0,0.0,0.0,0.0,0.0,0.0,0.0,0.0,0.0,0.0,0.0,0.0,0.0,0.0,0.0,0.0,-3.0487,0.0,-3.0681,-3.2532,-3.5096,-3.7607,-4.015,-4.2295,-4.3033,-4.1305,-3.8513,-3.5001,-3.2256,-2.9421,-2.5772,-2.491,-2.4764,-2.4564,-2.4097,-2.4369,-2.6311,-2.5788,-2.613,-2.9025,-2.8192,-2.8629,-3.2291,-3.1218,-3.1137,-3.3753,-3.3143,-3.2566,-3.2566,-3.2566,-3.215,-3.1241,-3.2105,-3.2593,-3.2607,-3.1683,-3.2038,-3.3578,-3.267,-3.3479,-3.6,-3.5597,-3.5465,-3.5559,-3.6042,-3.6319,-3.6559,-3.7405,-3.7288,-3.6611,-3.8601,-3.8242,-3.6656,-3.8646,-3.9424,-3.9424,-3.9424,-3.9424,-3.9424,0.0,0.0,0.0,0.0,0.0,0.0,0.0,-3.6443,-3.6254,-3.5968,-3.5208,-3.4151,-3.2698,-3.2042,-3.1505,-3.0955,-3.0769,0.0,0.0,0.0,0.0,0.0,0.0,0.0,0.0,0.0,-3.0459,-3.0459,-3.0459,-3.0459,-3.0459,-3.0459,-3.0459,-3.0459,-3.0459,-3.0511,0.0,0.0,0.0,0.0,0.0,0.0,-3.0624,0.0,0.0,0.0,0.0,0.0,0.0,0.0,0.0,0.0,0.0,0.0,0.0,-2.9296,-3.1168,-3.3489,-3.3838,-3.5734,-3.7513,-3.7263,-3.651,-3.4911,-3.1333,-2.9889,-2.846,-2.5479,-2.4712,-2.4508,-2.421,-2.3726,-2.3834,-2.5316,-2.5113,-2.5821,-2.8839,-2.8747,-2.9193,-3.1412,-3.1418,-3.1445,-3.2055,-3.1212,-3.0661,-3.0693,-3.0026,-2.9797,-3.0215,-3.0495,-3.0709,-3.0709,-3.1044,-3.1408,-3.1951,-3.1357,-3.2233,-3.4379,-3.3207,-3.3011,-3.3756,-3.4298,-3.4982,-3.5746,-3.7155,-3.7302,-3.6641,-3.8616,-3.8257,-3.6686,-3.8646,-3.9424,-3.9424,-3.9424,-3.9424,-3.9424,0.0,0.0,0.0,0.0,0.0,0.0,0.0,-3.767,-3.7605,-3.7275,-3.6799,-3.5953,-3.4535,-3.3618,-3.2754,-3.1878,-3.1412,0.0,0.0,0.0,0.0,0.0,0.0,0.0,0.0,-3.0477,-3.0477,-3.0477,-3.0477,-3.0477,-3.0477,-3.0477,-3.0477,-3.0477,-3.0477,-3.0515,0.0,0.0,0.0,0.0,0.0,0.0,-3.0935,0.0,0.0,0.0,0.0,0.0,0.0,0.0,0.0,0.0,0.0,0.0,0.0,0.0,-3.0216,-3.1671,-3.1592,-3.336,-3.5047,-3.4289,-3.3298,-3.1876,-2.9298,-2.7975,-2.6802,-2.5051,-2.5148,-2.5224,-2.4092,-2.3981,-2.405,-2.3995,-2.4674,-2.5636,-2.678,-2.7166,-2.7599,-2.839,-2.9587,-3.0441,-3.0654,-3.0086,-2.9771,-2.9781,-2.9173,-2.9106,-2.9729,-2.9792,-2.9792,-2.9792,-3.0343,-3.0696,-3.0696,-3.0417,-3.1087,-3.2663,-3.1642,-3.1434,-3.2069,-3.2841,-3.3547,-3.4313,-3.5981,-3.6778,0.0,-3.8296,-3.8305,-3.7719,-3.8945,-3.9424,-3.9424,-3.9424,-3.9424,-3.9424,0.0,0.0,0.0,0.0,0.0,0.0,0.0,-3.8691,-3.8418,-3.7676,-3.7518,-3.7145,-3.6266,-3.5277,-3.4302,-3.3369,0.0,0.0,0.0,0.0,0.0,0.0,0.0,0.0,-3.0583,-3.0583,-3.0583,-3.0583,-3.0583,-3.0583,-3.0583,-3.0583,-3.0583,-3.0583,-3.066,-3.0686,0.0,0.0,0.0,0.0,0.0,0.0,0.0,0.0,0.0,0.0,0.0,0.0,0.0,0.0,0.0,0.0,0.0,0.0,0.0,0.0,0.0,0.0,0.0,-3.2619,-3.4245,-3.343,-3.1462,-2.9479,-2.8591,-2.6559,0.0,-2.47,-2.6062,-2.6553,-2.4257,-2.4858,-2.4951,-2.2572,-2.4515,-2.5613,-2.3692,-2.4161,-2.4493,-2.3832,-2.6188,-2.8205,-2.9326,-2.9639,-2.9792,-2.9702,-2.9702,-2.9702,-2.9702,-2.9702,-2.9702,-2.9702,-2.9792,-2.9792,-2.9792,-2.9792,-3.0152,-3.0935,-3.0675,-3.0416,-3.031,-3.1485,-3.2214,-3.2431,-3.4058,-3.588,-3.7605,-3.7814,-3.8472,-3.9265,-3.9337,-3.9424,-3.9424,-3.9424,-3.9424,-3.9424,0.0,0.0,0.0,0.0,0.0,0.0,0.0,0.0,0.0,0.0,-3.9617,-3.8798,-3.7936,-3.6406,-3.4846,0.0,0.0,0.0,0.0,0.0,0.0,0.0,0.0,0.0,-3.0448,-3.0448,-3.0448,-3.0448,-3.0448,-3.0448,-3.0448,-3.0448,-3.0448,-3.0487,-3.1141,-3.168,0.0,0.0,0.0,0.0,0.0,0.0,0.0,0.0,0.0,0.0,-3.0394,-3.062,0.0,0.0,0.0,0.0,0.0,0.0,0.0,0.0,-2.9163,-2.9218,-2.9403,0.0,-3.0693,-2.9844,-2.9166,-2.8322,0.0,0.0,0.0,0.0,0.0,0.0,0.0,-2.6488,-2.6684,-2.3512,-2.4849,-2.5879,-2.4636,-2.4216,-2.3628,-2.2604,-2.5074,-2.6614,-2.5826,-2.8215,-2.9443,-2.8597,-2.8518,-2.8518,-2.8518,-2.8518,-2.8518,-2.8518,-2.9365,-2.9792,-2.9792,-2.9792,-2.929,-2.8219,-2.9454,-2.8859,-2.686,-2.9656,-3.0971,-3.1146,-3.3968,-3.5485,-3.6143,-3.8193,-3.8708,-3.8234,-3.9104,-3.9424,-3.9424,-3.9424,-3.9424,-3.9424,0.0,0.0,0.0,0.0,0.0,0.0,0.0,0.0,0.0,0.0,0.0,-4.0037,-3.9546,-3.7919,0.0,0.0,0.0,0.0,0.0,0.0,0.0,0.0,0.0,-3.0398,-3.0398,-3.0398,-3.0398,-3.0398,-3.0286,-3.0209,-3.0228,-3.0496,-3.0624,-3.0662,-3.1501,-3.2048,0.0,0.0,0.0,0.0,-3.1676,0.0,0.0,0.0,0.0,0.0,-3.0849,-3.1147,0.0,-3.151,-3.1312,-3.0882,0.0,0.0,0.0,0.0,-2.8994,-2.8952,-2.8773,-2.9038,-2.9299,-2.8981,-2.8371,-2.7532,-2.6362,0.0,0.0,0.0,0.0,0.0,0.0,-2.5995,-2.581,-2.3647,-2.3846,-2.4024,-2.3289,-2.2876,-2.2297,-2.1483,-2.2663,-2.3756,-2.4419,-2.6792,-2.8039,-2.7452,-2.7371,-2.7371,-2.7371,-2.7371,-2.7602,-2.8084,-2.8688,-2.9275,-2.9792,-2.9792,-2.8825,-2.6929,-2.8863,-2.8461,-2.6101,-2.9202,-3.057,-3.0581,-3.1615,-3.3091,-3.473,-3.5682,-3.6736,-3.7919,-3.8943,-3.9424,-3.9424,-3.9424,-3.9424,-3.9424,0.0,0.0,0.0,0.0,0.0,0.0,0.0,0.0,0.0,0.0,0.0,0.0,0.0,0.0,0.0,0.0,0.0,0.0,0.0,0.0,0.0,0.0,0.0,-3.0343,-3.0343,-3.0299,-3.0343,-3.0478,-3.0138,-3.0011,-3.0164,-3.0671,-3.1035,-3.1299,-3.1864,-3.2221,0.0,0.0,-3.2632,-3.3156,-3.1879,0.0,0.0,0.0,0.0,0.0,0.0,0.0,0.0,-3.1861,-3.1788,-3.1476,-3.0925,0.0,0.0,0.0,0.0,0.0,-2.8438,-2.8583,-2.8961,-2.9467,-2.8425,-2.7215,-2.6851,0.0,0.0,0.0,0.0,0.0,0.0,-2.5558,-2.5013,-2.3299,-2.2293,-2.1629,-2.1281,-2.1087,-2.0827,-2.037,-2.042,-2.1374,-2.3771,-2.5518,-2.64,-2.6224,-2.6224,-2.6224,-2.6224,-2.6224,-2.6625,-2.7591,-2.7924,-2.8597,-2.9534,-2.9702,-2.8712,-2.6684,-2.8762,-2.8662,-2.6747,-2.9302,-3.0495,-3.0419,-2.9214,-3.0457,-3.3291,-3.2804,-3.4524,-3.7548,-3.8664,-3.9265,-3.9424,-3.9424,-3.9424,-3.9424,0.0,0.0,0.0,0.0,0.0,0.0,0.0,0.0,0.0,0.0,0.0,0.0,0.0,0.0,0.0,0.0,0.0,0.0,0.0,0.0,0.0,-3.0095,-3.0061,-3.0061,-3.0061,-2.9877,-3.0139,-3.0822,-3.0105,-3.0088,-3.075,-3.0846,-3.1657,-3.2995,-3.2373,-3.2762,-3.3817,-3.3142,-3.2818,-3.2766,-3.3165,0.0,0.0,0.0,0.0,0.0,0.0,0.0,0.0,-3.4009,-3.3523,-3.2522,-3.3073,0.0,0.0,0.0,0.0,0.0,-2.7992,-2.8037,-2.8375,-2.9697,-2.8882,-2.7759,-2.7635,-2.6427,0.0,0.0,0.0,0.0,-2.6611,-2.9124,-2.9193,-2.2731,-2.1309,-2.0932,-2.0858,-2.0262,-1.9687,-1.9233,-2.1428,-2.2621,-2.1759,-2.4643,-2.6141,-2.5126,-2.5041,-2.5041,-2.5041,-2.5041,-2.5126,-2.5284,-2.7093,-2.8176,-2.8347,-2.9287,-2.8913,-2.718,-2.895,-2.8863,-2.7218,-2.9076,-2.9917,-3.0007,-3.1085,-3.1422,-3.1284,-3.3842,-3.5218,-3.5934,-3.7462,-3.862,-3.9424,-3.9424,-3.9424,-3.9424,0.0,0.0,0.0,0.0,0.0,0.0,0.0,0.0,0.0,0.0,0.0,0.0,0.0,0.0,0.0,0.0,0.0,0.0,0.0,0.0,0.0,-3.0511,-2.9957,-2.9731,-2.9829,-3.0163,-3.0318,-3.0243,-3.0208,-3.0375,-3.075,-3.148,-3.2455,-3.3589,-3.3199,-3.3388,-3.3968,-3.3573,-3.3368,-3.3238,0.0,0.0,0.0,0.0,0.0,0.0,0.0,0.0,0.0,0.0,-3.4146,-3.3528,-3.3154,0.0,0.0,0.0,0.0,0.0,-2.7742,-2.7577,-2.7997,-2.9704,-2.8868,-2.7948,-2.9361,-2.7062,0.0,0.0,0.0,-2.477,-2.5998,-2.6596,-2.5794,-2.244,-2.2948,-2.3069,-2.1171,-2.0129,-1.9493,-1.9444,-2.0525,-2.1188,-2.1182,-2.3276,-2.4478,-2.3877,-2.3877,-2.3877,-2.3877,-2.3877,-2.4125,-2.4787,-2.5775,-2.6849,-2.8096,-2.8597,-2.8211,-2.6866,-2.885,-2.8762,-2.6904,-2.8888,-2.9792,-2.9741,-2.9343,-2.9642,-3.0703,-3.2082,-3.3234,-3.439,-3.7051,-3.8091,-3.8223,-3.9058,-3.9424,-3.9424,0.0,0.0,0.0,0.0,0.0,0.0,0.0,0.0,0.0,0.0,0.0,0.0,0.0,0.0,0.0,0.0,0.0,0.0,0.0,0.0,-3.159,-3.1129,-3.0372,-2.994,-2.9907,-3.0264,-3.0358,-3.0114,-3.0195,-3.0423,-3.0813,-3.2035,-3.3036,-3.3807,-3.3807,-3.3807,-3.3807,-3.3807,-3.3734,-3.3625,0.0,0.0,0.0,0.0,0.0,0.0,0.0,0.0,0.0,0.0,0.0,0.0,0.0,0.0,0.0,-2.9761,-2.907,-2.8543,-2.7656,-2.7083,-2.7214,-2.9052,-2.8115,-2.7522,-3.0389,-2.712,-2.472,0.0,-2.567,-2.2809,-2.5681,-2.3839,-2.2055,-2.2583,-2.3879,-2.3973,-2.1559,-2.0366,-1.9879,-2.0311,-2.0098,-2.0371,-2.1562,-2.2568,-2.3135,-2.3135,-2.3135,-2.3135,-2.3135,-2.3135,-2.3464,-2.4372,-2.4617,-2.5786,-2.7683,-2.8004,-2.7851,-2.7256,-2.8976,-2.8888,-2.7306,-2.9013,-2.9792,-2.9704,-2.7984,-2.8448,-3.0451,-3.037,-3.137,-3.3101,-3.6243,-3.7417,-3.7507,-3.8867,-3.9424,-3.9424,0.0,0.0,0.0,0.0,0.0,0.0,0.0,0.0,0.0,0.0,0.0,0.0,0.0,0.0,0.0,0.0,0.0,0.0,0.0,0.0,-3.2802,-3.1781,-3.1685,-3.1294,-3.0551,-2.9625,-2.9834,-3.1274,-2.9834,-2.9885,-3.1379,-3.221,-3.3036,-3.3807,-3.3807,-3.3807,-3.3807,-3.3807,-3.3578,-3.3273,-3.3579,0.0,0.0,0.0,0.0,0.0,0.0,0.0,0.0,0.0,0.0,0.0,0.0,0.0,-3.0716,-3.0612,-2.93,-2.7877,-2.7792,-2.6504,-2.5526,-2.7048,-2.6305,-2.6076,-2.9515,-2.6094,0.0,-2.8307,-2.6811,-2.5232,-2.6891,-2.4028,-2.1957,-2.346,-2.1908,-2.0877,-2.1787,-2.1136,-2.0801,-2.1631,-2.1719,-2.2041,-2.291,-2.3086,-2.3135,-2.3135,-2.3135,-2.3135,-2.3135,-2.3135,-2.3135,-2.3222,-2.4211,-2.5378,-2.6637,-2.7602,-2.8603,-2.9553,-2.9716,-2.9716,-2.9566,-2.9716,-2.9792,-2.9779,-2.9628,-2.9666,-2.988,-3.0375,-3.1229,-3.2425,-3.4012,-3.6171,-3.8396,-3.917,-3.9424,-3.9424,0.0,0.0,0.0,0.0,0.0,0.0,0.0,0.0,0.0,0.0,0.0,0.0,0.0,0.0,0.0,0.0,0.0,0.0,0.0,-3.3489,-3.29,-3.2312,-3.1813,-3.1629,-3.185,-3.0956,-3.0797,-3.1384,-3.0797,-3.1054,-3.2173,-3.2981,-3.3513,-3.3807,-3.355,-3.3437,-3.34,-3.2642,-3.2486,-3.2741,-3.2427,-3.3257,0.0,0.0,0.0,0.0,0.0,0.0,0.0,0.0,-3.4344,-3.3923,-3.3619,-3.2372,-3.0936,-3.0475,-2.9816,-2.8969,-2.7701,-2.6853,-2.6574,-2.7657,-2.5664,0.0,0.0,-2.6127,-2.4094,-2.8882,-2.5798,-2.2205,-2.2076,-2.1597,-2.1439,-2.2268,-2.1771,-2.1208,-2.1004,-2.0187,-1.9657,-1.9702,-1.9715,-2.0359,-2.1859,-2.1943,-2.2306,-2.3047,-2.3135,-2.3135,-2.3135,-2.3135,-2.3135,-2.3135,-2.3551,-2.4638,-2.6472,-2.6883,-2.8039,-2.9792,-2.9792,-2.9792,-2.9792,-2.9792,-2.9792,-2.9792,-2.9792,-2.9792,-2.9882,-3.065,-3.088,-3.0958,-3.3111,-3.5107,-3.6978,-3.7838,-3.8167,-3.8227,0.0,0.0,0.0,0.0,0.0,0.0,0.0,0.0,0.0,0.0,0.0,0.0,0.0,0.0,0.0,0.0,0.0,0.0,-3.42,-3.3621,-3.3155,-3.2981,-3.2449,-3.2522,-3.3321,-3.2198,-3.1777,-3.2155,-3.2033,-3.2127,-3.2411,-3.3084,-3.339,-3.339,-3.3105,-3.2983,-3.2916,-3.2111,-3.1956,-3.2263,-3.1901,-3.2892,0.0,0.0,0.0,0.0,0.0,0.0,0.0,0.0,-3.4318,-3.3854,-3.3243,-3.2188,-3.105,-3.0387,-2.9861,-2.9142,-2.7597,-2.6417,-2.5915,-2.7159,0.0,0.0,-2.775,-2.5595,-2.3804,-2.8197,-2.5535,-2.1903,-2.0349,-2.04,-2.0773,-2.0907,-2.097,-2.0791,-2.0497,-1.9885,-1.9496,-1.9534,-1.9536,-2.0101,-2.1682,-2.1845,-2.2217,-2.3047,-2.3135,-2.3135,-2.3135,-2.3135,-2.3135,-2.3135,-2.3135,-2.4221,-2.6483,-2.6483,-2.7637,-2.9792,-2.9792,-2.9792,-2.9792,-2.9792,-2.9792,-2.9792,-2.9792,-2.9792,-2.9869,-3.0482,-3.0696,-3.0836,-3.2489,-3.4365,-3.6234,-3.6733,-3.7183,-3.7479,0.0,0.0,0.0,0.0,0.0,0.0,0.0,0.0,0.0,0.0,0.0,0.0,0.0,0.0,0.0,0.0,0.0,0.0,-3.42,-3.3935,-3.3807,-3.3807,-3.3807,-3.4174,-3.4954,-3.3063,-3.2599,-3.3807,-3.339,-3.2805,-3.2036,-3.2357,-3.2484,-3.2502,-3.2484,-3.2484,-3.2484,-3.2484,-3.2196,-3.1808,-3.2298,-3.3143,-3.4185,0.0,0.0,0.0,0.0,0.0,0.0,0.0,-3.3406,-3.3271,-3.2527,-3.1782,-3.1072,-3.0493,-2.9329,-2.8056,-2.7476,-2.4895,-2.2925,-2.4905,0.0,0.0,-2.6101,-2.4205,-2.2376,-2.5785,-2.6327,-2.548,-2.2953,-2.1186,-2.0012,-1.9679,-1.9064,-1.9102,-2.0381,-2.0566,-2.0889,-2.1777,-2.1802,-2.2133,-2.2969,-2.3057,-2.3047,-2.3135,-2.3135,-2.3135,-2.3135,-2.3135,-2.3135,-2.3135,-2.3135,-2.4221,-2.6483,-2.6472,-2.7557,-2.9792,-2.9792,-2.9792,-2.9792,-2.9792,-2.9792,-2.9792,-2.9792,-2.9792,-2.9792,-2.9792,-3.0921,-3.2519,-3.2278,-3.3982,-3.6403,-3.6108,-3.6553,-3.7389,0.0,0.0,0.0,0.0,0.0,0.0,0.0,0.0,0.0,0.0,0.0,0.0,0.0,0.0,0.0,0.0,0.0,0.0,-3.3928,-3.3842,-3.3807,-3.3807,-3.3807,-3.3917,-3.4156,-3.4359,-3.3926,-3.284,-3.3214,-3.3575,-3.3892,-3.294,-3.2767,-3.3228,-3.2441,-3.2091,-3.2056,-3.1731,-3.1524,-3.1287,-3.0413,-3.149,-3.3571,0.0,0.0,0.0,0.0,0.0,0.0,0.0,0.0,0.0,-3.2617,-3.1556,-3.0634,-3.0959,-3.0113,-2.8914,-2.8306,-2.6408,-2.4627,-2.4802,-2.3649,-2.2547,0.0,-2.2756,0.0,0.0,-2.3301,-2.1647,-2.0335,-2.0323,-2.0122,-1.9062,-1.9541,-1.9889,-1.9552,-1.8789,-1.8263,-1.8153,-1.747,-1.8001,-2.0326,-2.0584,-2.1311,-2.296,-2.3135,-2.3135,-2.3135,-2.3135,-2.3135,-2.3135,-2.3135,-2.38,-2.5294,-2.5294,-2.6449,-2.8597,-2.8597,-2.9028,-2.9792,-2.9792,-2.9792,-2.9792,-2.9792,-2.9792,-2.9792,-2.9792,-3.0152,-3.0722,-3.2031,-3.3026,-3.3915,-3.519,-3.5844,-3.6133,0.0,0.0,0.0,0.0,0.0,0.0,0.0,0.0,0.0,0.0,0.0,0.0,0.0,0.0,0.0,0.0,0.0,0.0,0.0,-3.3807,-3.3807,-3.3807,-3.3807,-3.3634,-3.3284,-3.4074,-3.3811,-3.2366,-3.3296,-3.386,-3.4019,-3.2929,-3.2682,-3.3045,-3.2076,-3.1617,-3.16,-3.0985,-3.0617,-3.0319,-2.9487,-3.0406,-3.216,0.0,0.0,0.0,0.0,0.0,0.0,0.0,0.0,0.0,-3.1909,-3.1238,-3.0668,-3.0355,-2.9848,-2.9265,-2.8396,-2.6856,-2.5726,-2.6414,-2.4896,-2.3009,-2.2119,-2.217,-2.2959,-2.4672,-2.3117,-2.1352,-2.0906,-2.071,-2.0312,-1.9531,-2.0059,-2.0245,-1.9116,-1.8789,-1.8447,-1.7863,-1.773,-1.848,-2.0483,-2.0864,-2.1498,-2.296,-2.3135,-2.3135,-2.3135,-2.3135,-2.3135,-2.3135,-2.3135,-2.3627,-2.4787,-2.521,-2.6119,-2.7441,-2.7924,-2.8438,-2.9118,-2.9611,-2.9792,-2.9792,-2.9792,-2.9792,-2.9792,-2.9792,-2.9998,-3.0419,-3.1193,-3.2177,-3.3241,-3.4041,-3.4854,-3.5564,0.0,0.0,0.0,0.0,0.0,0.0,0.0,0.0,0.0,0.0,0.0,0.0,0.0,0.0,0.0,0.0,0.0,0.0,0.0,0.0,-3.3734,-3.3734,-3.3707,-3.3321,-3.2557,-3.2859,-3.2788,-3.2374,-3.3544,-3.3761,-3.3031,-3.2463,-3.2222,-3.2198,-3.1432,-3.1095,-3.0982,-3.0393,-2.9732,-2.9149,-2.914,-2.9658,-3.0443,-2.9672,0.0,0.0,0.0,0.0,0.0,0.0,0.0,0.0,-3.0638,-3.0736,-3.0799,-2.9119,-2.9049,-2.9269,-2.8182,-2.6841,-2.6348,-2.8652,-2.5908,-2.2849,-2.3519,-2.2763,-2.2736,-2.5892,-2.4755,-2.3229,-2.3481,-2.1897,-2.0566,-2.0566,-2.0566,-2.0245,-1.9283,-1.9923,-2.0232,-1.9652,-2.0761,-2.1791,-2.2291,-2.2708,-2.296,-2.3047,-2.3135,-2.3135,-2.3135,-2.3135,-2.3135,-2.3135,-2.3135,-2.3637,-2.4628,-2.563,-2.6224,-2.6389,-2.7441,-2.8016,-2.8176,-2.9197,-2.9702,-2.9792,-2.9792,-2.9792,-2.9792,-2.9792,-3.0279,-3.097,-3.0203,-3.1563,-3.3808,-3.3031,-3.3905,-3.5504,0.0,0.0,0.0,0.0,0.0,0.0,0.0,0.0,0.0,0.0,0.0,0.0,0.0,0.0,0.0,0.0,0.0,0.0,0.0,0.0,-3.3332,-3.3332,-3.2983,-3.2834,-3.2891,-3.2954,-3.3046,-3.3169,-3.3447,-3.3471,-3.3284,-3.2049,-3.1496,-3.1546,-3.0833,-3.0208,-2.9793,-3.0243,-2.9696,-2.8527,-2.7953,-2.8817,-3.0378,-2.9111,-3.0293,0.0,0.0,0.0,0.0,0.0,0.0,0.0,-2.9973,-2.9482,-2.9149,-2.9325,-2.9448,-2.9629,-2.9828,-2.8532,-2.7036,-2.6572,-2.4452,-2.3427,-2.7187,-2.6336,-2.5046,-2.6214,-2.3526,-2.1463,-2.3162,-2.1897,-2.0566,-2.0566,-2.0566,-2.0489,-2.0323,-1.9766,-1.9341,-1.9407,-1.93,-1.9685,-2.0948,-2.1429,-2.212,-2.3047,-2.3135,-2.3135,-2.3135,-2.3135,-2.3135,-2.3135,-2.3135,-2.3222,-2.3464,-2.3724,-2.4307,-2.521,-2.6295,-2.729,-2.8084,-2.8347,-2.8937,-2.9792,-2.9792,-2.9792,-2.9792,-2.9792,-2.9934,-3.0139,-3.0696,-3.1756,-3.2961,-3.3518,-3.4476,-3.5504,0.0,0.0,0.0,0.0,0.0,0.0,0.0,0.0,0.0,0.0,0.0,0.0,0.0,0.0,0.0,0.0,0.0,0.0,0.0,0.0,-3.284,-3.284,-3.2435,-3.2284,-3.2431,-3.2259,-3.2077,-3.1934,-3.1934,-3.2101,-3.2436,-3.1667,-3.1189,-3.0945,-3.0201,-2.9673,-2.9406,-2.9422,-2.8873,-2.7908,-2.7545,-2.8074,-2.8979,-2.7938,-2.9077,-3.1,-2.9964,0.0,0.0,0.0,0.0,0.0,0.0,0.0,-2.8981,-2.8696,-2.9071,-2.9579,-2.9594,-2.9295,-2.8696,-2.7577,-2.6484,-2.6121,-2.7603,-2.7383,-2.6892,-2.7193,-2.4507,-2.2358,-2.3014,-2.1747,-2.0566,-2.0566,-2.0566,-2.0401,-1.9923,-1.9756,-1.9669,-1.9489,-1.9811,-2.0471,-2.1483,-2.1886,-2.2403,-2.3047,-2.3135,-2.3135,-2.3135,-2.3135,-2.3135,-2.3135,-2.3135,-2.3135,-2.3135,-2.3637,-2.3963,-2.4049,-2.5724,-2.7046,-2.8096,-2.8688,-2.9275,-2.9792,-2.9792,-2.9792,-2.9792,-2.9792,-2.9792,-2.9869,-3.0343,-3.1119,-3.2033,-3.2961,-3.3973,-3.4839,0.0,0.0,0.0,0.0,0.0,0.0,0.0,0.0,0.0,0.0,0.0,0.0,0.0,0.0,0.0,0.0,0.0,0.0,0.0,0.0,0.0,-3.2282,-3.1949,-3.1746,-3.174,-3.1269,-3.0807,-3.0346,-3.0231,-3.0506,-3.1263,-3.1352,-3.1083,-3.0496,-2.983,-2.9402,-2.9057,-2.8426,-2.784,-2.7257,-2.7334,-2.7466,-2.755,-2.6841,-2.7777,-2.9354,-2.8701,-2.9143,-2.9889,-2.8785,0.0,0.0,0.0,0.0,-2.9011,-2.7955,-2.8532,-2.946,-2.8921,-2.9501,-3.0115,-2.9543,-2.9053,-2.8441,-2.724,-2.7519,-2.7974,-2.8089,-2.6174,-2.4149,-2.3235,-2.1863,-2.0791,-2.0791,-2.0791,-2.0545,-1.9654,-2.0229,-2.0591,-2.0025,-2.1205,-2.2129,-2.248,-2.2891,-2.3135,-2.3135,-2.3135,-2.3135,-2.3135,-2.3135,-2.3135,-2.3135,-2.3135,-2.3135,-2.3135,-2.4049,-2.4125,-2.3377,-2.5724,-2.7371,-2.8426,-2.9365,-2.9792,-2.9792,-2.9792,-2.9792,-2.9792,-2.9792,-2.9792,-2.9792,-2.9792,-3.0343,-3.1315,-3.2249,-3.3171,-3.4163,0.0,0.0,0.0,0.0,0.0,0.0,0.0,0.0,0.0,0.0,0.0,0.0,0.0,0.0,0.0,0.0,0.0,0.0,0.0,0.0,0.0,-3.1389,-3.1329,-3.1325,-3.144,-3.0775,-3.0461,-3.047,-2.983,-2.9893,-3.0639,-3.1165,-3.1068,-3.0503,-3.041,-2.9412,-2.7845,-2.7754,-2.7293,-2.6733,-2.6717,-2.7075,-2.755,-2.6841,-2.7475,-2.8658,-2.797,-2.7855,-2.7966,-2.7775,-2.7709,0.0,0.0,0.0,-2.785,-2.767,-2.8532,-2.9564,-2.9475,0.0,-2.9468,0.0,-2.8352,-2.683,-2.8908,-2.8346,-2.7566,-2.8011,-2.641,-2.4892,-2.4737,-2.3067,-2.1709,-2.1709,-2.1709,-2.1709,-2.1535,-2.1627,-2.1728,-2.1613,-2.2084,-2.2451,-2.251,-2.2891,-2.3135,-2.3135,-2.3135,-2.3135,-2.3135,-2.3135,-2.3135,-2.3135,-2.3135,-2.3135,-2.3135,-2.3212,-2.3714,-2.4628,-2.686,-2.8518,-2.9611,-2.9702,-2.9792,-2.9792,-2.9792,-2.9792,-2.9792,-2.9792,-2.9792,-2.9792,-2.9792,-3.0343,-3.1315,-3.2249,-3.3171,-3.4163,0.0,0.0,0.0,0.0,0.0,0.0,0.0,0.0,0.0,0.0,0.0,0.0,0.0,0.0,0.0,0.0,0.0,0.0,0.0,0.0,0.0,-3.119,-3.0878,-3.0709,-3.0797,-3.0141,-2.964,-2.9407,-2.9061,-2.9645,-3.1071,-3.1328,-3.0914,-3.0061,-3.0737,-2.9758,-2.767,-2.8382,-2.8098,-2.7141,-2.7141,-2.754,-2.8097,-2.7435,-2.775,-2.8484,-2.7855,-2.7625,-2.7625,-2.7625,-2.7625,-2.7625,-2.7625,0.0,0.0,0.0,-2.8045,-2.8666,-2.9606,-2.8927,-2.8441,0.0,-2.83,-2.6429,-2.9164,-2.8486,-2.7601,-2.8774,-2.7818,-2.6279,-2.4814,-2.3612,-2.2574,-2.1967,-2.1885,-2.1885,-2.1885,-2.1885,-2.1973,-2.2207,-2.2402,-2.2607,-2.2842,-2.3027,-2.3135,-2.3135,-2.3135,-2.3135,-2.3135,-2.3135,-2.3135,-2.3135,-2.3135,-2.3135,-2.3135,-2.3135,-2.3973,-2.5797,-2.6707,-2.8119,-2.9792,-2.9792,-2.9792,-2.9792,-2.9792,-2.9792,-2.9792,-2.9792,-2.9792,-2.9792,-2.9792,-3.0075,-3.0558,-3.1462,-3.2393,-3.338,0.0,0.0,0.0,0.0,0.0,0.0,0.0,0.0,0.0,0.0,0.0,0.0,0.0,0.0,0.0,0.0,0.0,0.0,0.0,0.0,0.0,-3.0975,-3.0518,-3.0166,-2.9848,-2.9406,-2.8873,-2.8271,-2.8271,-2.9194,-3.1046,-3.1375,-3.1016,-3.0118,-3.1106,-3.0432,-2.8622,-2.9295,-2.8996,-2.8135,-2.8135,-2.8207,-2.8283,-2.778,-2.7906,-2.8283,-2.778,-2.7625,-2.7625,-2.7625,-2.7625,-2.7625,-2.7625,-2.7625,0.0,0.0,0.0,-2.7691,-2.9232,0.0,-2.7114,-2.9555,-2.742,-2.5423,-2.7946,-2.7557,-2.713,-2.8812,-2.8823,-2.7817,-2.5562,-2.448,-2.3453,-2.2365,-2.2207,-2.2207,-2.2207,-2.2207,-2.2324,-2.2637,-2.2676,-2.2793,-2.3105,-2.3135,-2.3135,-2.3135,-2.3135,-2.3135,-2.3135,-2.3135,-2.3135,-2.3135,-2.3135,-2.3135,-2.3135,-2.3387,-2.4392,-2.6058,-2.6389,-2.7545,-2.9365,-2.9365,-2.9534,-2.9792,-2.9792,-2.9792,-2.9792,-2.9792,-2.9792,-2.9792,-2.9792,-2.9792,-2.9934,-3.0833,-3.1815,-3.2749,0.0,0.0,0.0,0.0,0.0,0.0,0.0,0.0,0.0,0.0,0.0,0.0,-3.3214,-3.24,-3.1825,-3.1789,0.0,0.0,0.0,0.0,0.0,-3.0393,-3.0309,0.0,-2.8606,-2.8559,-2.8238,-2.7675,-2.7675,-2.8344,-2.9714,-3.0941,-3.1437,-3.1377,-3.1437,-3.1392,-3.1198,-3.0073,-2.9549,-2.9475,-2.9475,-2.8779,-2.7655,-2.7625,-2.764,-2.7655,-2.7625,-2.7625,-2.7625,-2.7625,-2.7625,-2.7625,-2.7625,-2.7625,-2.7625,0.0,0.0,0.0,-2.815,-2.6865,0.0,-2.6963,-2.4848,-2.2937,-2.4682,-2.5008,-2.5423,-2.7067,-2.8674,-2.9353,-2.814,-2.6135,-2.4385,-2.3231,-2.3076,-2.3076,-2.3076,-2.3076,-2.3086,-2.3105,-2.3105,-2.3115,-2.3135,-2.3135,-2.3135,-2.3135,-2.3135,-2.3135,-2.3135,-2.3135,-2.3135,-2.3135,-2.3135,-2.3135,-2.3135,-2.4211,-2.4787,-2.4872,-2.5964,-2.7128,-2.8176,-2.8176,-2.8767,-2.9792,-2.9792,-2.9792,-2.9792,-2.9792,-2.9792,-2.9792,-2.9792,-2.9792,-2.9934,-3.0833,-3.1815,-3.2749,0.0,0.0,0.0,0.0,0.0,0.0,0.0,0.0,0.0,0.0,0.0,0.0,0.0,-3.2081,-3.1411,-3.1411,-3.1291,0.0,0.0,0.0,0.0,-2.9761,-2.9361,-2.8966,-2.8511,-2.814,-2.781,-2.7625,-2.7625,-2.8314,-2.9594,-3.0058,-3.0731,-3.1556,-3.332,-3.2662,-3.0357,-3.1569,-3.0627,-2.8442,-3.0148,-2.9778,-2.8278,-2.8726,-2.9113,-2.9277,-2.8047,-2.8128,-2.8727,-2.791,-2.7625,-2.7625,-2.7625,-2.7625,-2.7625,-2.7625,-2.7408,-2.7158,-2.7018,0.0,0.0,-2.5456,-2.345,-2.1882,-2.428,-2.482,-2.4996,-2.5586,-2.7883,-2.9133,-2.6864,-2.6143,-2.5546,-2.4382,-2.3551,-2.3135,-2.3135,-2.3135,-2.3135,-2.3135,-2.3135,-2.3135,-2.3135,-2.3135,-2.3135,-2.3135,-2.1855,-2.168,-2.3066,-2.1826,-2.1709,-2.3096,-2.3135,-2.3135,-2.3135,-2.3464,-2.4049,-2.4787,-2.521,-2.5964,-2.7128,-2.7775,-2.8347,-2.8767,-2.9456,-2.9792,-2.9792,-2.9792,-2.9792,-2.9792,-2.9792,-2.9792,-2.9869,-3.0216,-3.1267,-3.2664,0.0,0.0,0.0,0.0,0.0,0.0,0.0,0.0,0.0,-3.5544,0.0,0.0,0.0,0.0,-3.119,-3.119,-3.119,-3.0918,-3.0335,-3.0293,-2.9935,-2.9134,-2.8685,-2.8431,-2.8189,-2.781,-2.7625,-2.7625,-2.7625,-2.809,-2.8921,-2.937,-3.0043,-3.0971,-3.3185,-3.2961,-3.1001,-3.2751,-3.1973,-2.9669,-3.1001,-3.0702,-2.9582,-2.9604,-2.9849,-3.0088,-2.922,-2.9182,-2.954,-2.9086,-2.8607,-2.8248,-2.8248,-2.7934,-2.756,-2.7306,-2.6924,-2.6356,-2.5508,-2.4243,-2.3243,-2.3365,-2.1895,-2.0865,-2.2723,-2.4004,-2.482,-2.482,-2.7482,-2.921,-2.7381,-2.7015,-2.6543,-2.5041,-2.4125,-2.3551,-2.3135,-2.3135,-2.3135,-2.3135,-2.3135,-2.3135,-2.3135,-2.3135,-2.3135,-2.3135,-2.1807,-2.1621,-2.3066,-2.1777,-2.165,-2.3096,-2.3135,-2.3135,-2.3135,-2.3135,-2.3464,-2.4211,-2.4211,-2.4798,-2.5964,-2.6696,-2.7429,-2.8176,-2.8937,-2.9456,-2.9792,-2.9792,-2.9792,-2.9792,-2.9792,-2.9792,-2.9792,-2.9792,-3.0996,-3.2593,0.0,0.0,0.0,0.0,0.0,0.0,0.0,0.0,-3.7016,-3.571,0.0,0.0,0.0,0.0,0.0,-3.119,-3.119,-3.0935,-3.0293,-3.0251,-2.9717,-2.8511,0.0,0.0,-2.761,-2.7625,-2.7625,-2.7625,-2.7625,-2.7625,-2.7655,-2.8906,-2.952,-2.9579,-3.0881,-3.2183,-3.338,-3.3469,-3.3425,-3.323,-3.2093,-3.153,-3.1249,-3.0157,-2.9697,-2.9771,-3.1035,-3.0738,-2.9867,-3.1051,-3.0672,-2.9579,-2.9535,-2.8607,-2.7429,-2.6692,-2.5519,-2.431,0.0,0.0,0.0,-2.0693,-2.0213,-1.9798,-1.9798,-2.2372,-2.4745,-2.4745,-2.7394,-2.9716,-2.9716,-2.8821,-2.7429,-2.5284,-2.4872,-2.4457,-2.3387,-2.3135,-2.3135,-2.3222,-2.3135,-2.3135,-2.3135,-2.3135,-2.3135,-2.3135,-2.3076,-2.3066,-2.3135,-2.3135,-2.3135,-2.3135,-2.3135,-2.3135,-2.3135,-2.3135,-2.3135,-2.3135,-2.3135,-2.3714,-2.4787,-2.4787,-2.6025,-2.8084,-2.8072,-2.8743,-2.9767,-2.9779,-2.9792,-2.9792,-2.9792,-2.9792,-2.9792,-2.9792,-3.0996,-3.2593,0.0,0.0,0.0,0.0,0.0,0.0,-3.8395,-3.753,-3.6883,0.0,0.0,0.0,-3.3304,-3.2032,-3.119,-3.119,-3.119,-3.0757,-2.9717,-2.9629,-2.9134,-2.7894,-2.786,-2.776,-2.7625,-2.7625,-2.7625,-2.7625,-2.7625,-2.7625,-2.7625,-2.8,-2.8128,-2.8188,-2.952,-3.0328,-3.0791,-3.2691,-3.1839,-2.9505,-3.3006,-3.2109,-2.8964,-3.1495,-3.1225,-2.9798,-3.1061,-3.1273,-3.1006,-3.1377,-3.0273,-2.8545,-2.7657,-2.7122,-2.6758,-2.6061,-2.5293,-2.4275,-2.2654,0.0,0.0,0.0,0.0,0.0,-1.9798,-2.1468,-2.3,-2.3,-2.5661,-2.7971,-2.7971,-2.8724,-2.8858,-2.7429,-2.6532,-2.5891,-2.5641,-2.4882,-2.4628,-2.5473,-2.4145,-2.3377,-2.4211,-2.3551,-2.3135,-2.3135,-2.1689,-2.1484,-2.3057,-2.3135,-2.3135,-2.3135,-2.3135,-2.3135,-2.3135,-2.3135,-2.3135,-2.3135,-2.3135,-2.3299,-2.3637,-2.4457,-2.5546,-2.6942,-2.7375,-2.8106,-2.9202,-2.9616,-2.9792,-2.9792,-2.9792,-2.9792,-2.9792,-2.9792,-3.0996,-3.2593,0.0,0.0,0.0,0.0,0.0,-3.8627,-3.8382,-3.7718,-3.7129,0.0,0.0,0.0,-3.2534,-3.1715,-3.1112,-3.0838,-3.0821,-3.0293,-2.9088,-2.8996,-2.8591,-2.761,-2.7625,-2.7625,-2.7625,-2.7625,-2.7625,-2.7625,-2.7625,-2.7625,-2.7625,-2.7625,-2.7625,-2.7655,-2.8449,-2.8742,-2.8876,-3.0971,-3.115,-3.0268,-3.2826,-3.2662,-3.1076,-3.2826,-3.2557,-3.1366,-3.2222,-3.222,-3.1777,-3.1917,-3.0506,-2.8533,-2.7651,-2.68,-2.6044,-2.5838,-2.484,-2.3525,-2.2121,-2.1328,-2.0759,-1.9977,0.0,0.0,-1.9798,-2.1644,-2.3351,-2.3351,-2.6013,-2.8047,-2.7118,-2.7733,-2.8238,-2.7505,-2.6888,-2.6488,-2.6524,-2.5975,-2.5797,-2.6389,-2.5305,-2.4808,-2.5462,-2.4893,-2.4307,-2.38,-2.2675,-2.2279,-2.3076,-2.3135,-2.3135,-2.3135,-2.3135,-2.3135,-2.3135,-2.3135,-2.3135,-2.3135,-2.3135,-2.3135,-2.3135,-2.38,-2.4851,-2.6136,-2.6485,-2.7346,-2.8612,-2.895,-2.9089,-2.9089,-2.9089,-2.9227,-2.9428,-2.9428,-3.0773,-3.2593,0.0,0.0,-3.8707,-3.8707,-3.8707,-3.8515,-3.798,-3.7859,-3.7488,0.0,-3.5059,-3.336,-3.1421,-3.119,-3.0975,-3.0335,-3.0293,-2.9805,-2.8559,-2.8511,-2.8238,-2.7625,-2.7625,-2.7625,-2.7625,-2.7625,-2.7625,-2.7625,-2.7625,-2.7625,-2.7625,-2.7625,-2.7625,-2.7625,0.0,0.0,-2.77,-2.8846,-3.0791,-3.2991,-3.2108,-3.308,-3.4966,-3.4053,-3.3544,-3.3347,-3.3951,-3.3353,-3.2249,-3.2388,-3.1045,-2.9218,-2.8561,-2.7037,-2.5494,-2.5584,-2.4106,-2.2353,-2.1615,-2.063,-1.9798,-1.9798,-1.9798,0.0,-1.9798,-2.2121,-2.4318,-2.4506,-2.6892,-2.8398,-2.6527,-2.6189,-2.6231,-2.6101,-2.6088,-2.6196,-2.6428,-2.6583,-2.664,-2.6506,-2.6501,-2.6554,-2.6648,-2.6565,-2.6058,-2.5041,-2.4872,-2.4296,-2.3135,-2.3135,-2.3135,-2.3135,-2.3135,-2.3135,-2.3135,-2.3135,-2.3135,-2.3135,-2.3135,-2.3135,-2.3135,-2.3135,-2.405,-2.563,-2.5574,-2.6457,-2.8009,-2.7946,-2.7996,-2.8109,-2.8109,-2.8398,-2.8837,-2.8837,-3.0341,-3.24,0.0,-3.8707,-3.8707,-3.8707,-3.8707,-3.8515,-3.798,-3.7578,-3.7097,-3.6498,-3.4751,-3.2954,-3.136,-3.119,-3.0975,-3.0335,-3.0293,-2.9805,-2.8559,-2.8511,-2.8238,-2.7625,-2.7625,-2.7625,-2.7625,-2.7625,-2.7625,-2.7625,-2.7625,-2.7625,-2.7625,-2.7625,-2.7625,-2.7625,-2.7625,-2.7625,-2.764,-2.791,-2.8891,-3.0507,-3.2362,-3.2796,-3.2512,-3.4397,-3.3784,-3.2169,-3.4431,-3.4352,-3.3051,-3.1744,-3.1373,-3.0899,-2.7512,-2.6209,-2.5543,-2.3782,-2.2565,-2.155,-2.0463,-1.9989,-1.9798,-1.9798,-1.9798,0.0,-1.9798,-2.0313,-2.1167,-2.2523,-2.3326,-2.3916,-2.4393,-2.4481,-2.433,-2.3853,-2.3778,-2.4416,-2.6263,-2.728,-2.7477,-2.6637,-2.6543,-2.6801,-2.7683,-2.7046,-2.6389,-2.6224,-2.5294,-2.4296,-2.3135,-2.3135,-2.3135,-2.3135,-2.3135,-2.3135,-2.3135,-2.3135,-2.3135,-2.3135,-2.3135,-2.3135,-2.3135,-2.3135,-2.405,-2.5608,-2.5138,-2.5931,-2.7406,-2.6967,-2.7306,-2.8109,-2.8109,-2.8172,-2.8273,-2.8273,-2.9489,-3.1157,-3.8707,-3.8707,-3.8707,-3.8707,-3.8707,-3.8428,-3.7662,-3.7005,-3.6306,-3.5555,-3.3913,-3.2425,-3.1309,-3.119,-3.0975,-3.0335,-3.0021,-2.9451,-2.8559,-2.8238,-2.791,-2.761,-2.7625,-2.7625,-2.7625,-2.7625,-2.7625,-2.7625,-2.7625,-2.7625,-2.7625,-2.7625,-2.7625,-2.7625,-2.7625,-2.7625,-2.7625,-2.7625,-2.8353,-2.9759,-3.1734,-3.2512,-3.2736,-3.4741,-3.4681,-3.3617,-3.4448,-3.3705,-3.2159,-3.0733,-3.0201,-2.9848,-2.8199,-2.6656,-2.5161,-2.3747,-2.2502,-2.135,-2.054,-2.0055,-1.9798,-1.9798,-1.9798,0.0,0.0,-2.0451,-2.1292,-2.2133,-2.2975,-2.3314,-2.2485,-2.2334,-2.2146,-2.1568,-2.1468,-2.1857,-2.2987,-2.5568,-2.7484,-2.8049,-2.8135,-2.8371,-2.8858,-2.8462,-2.7879,-2.736,-2.5786,-2.4542,-2.3963,-2.3387,-2.3135,-2.3135,-2.3135,-2.3135,-2.3135,-2.3135,-2.3135,-2.3135,-2.3135,-2.3135,-2.3135,-2.3135,-2.3842,-2.5171,-2.4937,-2.5627,-2.6854,-2.6647,-2.6791,-2.7281,-2.7281,-2.7457,-2.7767,-2.8145,-2.9395,-3.0865,-3.8469,-3.8597,-3.8707,-3.8707,-3.8596,-3.8245,-3.7344,-3.6557,-3.5657,-3.4432,-3.3237,-3.2273,-3.1681,-3.136,-3.1036,-3.0603,-3.0077,-2.9373,-2.8383,-2.8102,-2.7895,-2.7625,-2.7625,-2.7625,-2.7625,-2.7625,-2.7625,-2.7625,-2.7625,-2.7625,-2.7625,-2.7625,-2.7625,-2.7625,-2.7625,-2.776,-2.8015,-2.8015,-2.8727,-3.0073,-3.139,-3.2392,-3.329,-3.4891,-3.534,-3.5001,-3.4522,-3.331,-3.1784,-3.0454,-2.9521,-2.8944,-2.9257,-2.73,-2.4747,-2.4347,-2.2819,-2.1214,-2.0732,-2.0194,-1.9798,-1.9798,-1.9798,-1.9798,0.0,0.0,0.0,-2.1832,-2.2912,-2.31,-2.0652,-2.024,-1.9999,-1.9422,-1.9246,-1.9359,-1.9886,-2.2975,-2.585,-2.7657,-2.8247,-2.8473,-2.836,-2.8737,-2.8706,-2.814,-2.6438,-2.5284,-2.4787,-2.3963,-2.3299,-2.3144,-2.3135,-2.3135,-2.3135,-2.3135,-2.3135,-2.3135,-2.3135,-2.3135,-2.3135,-2.3135,-2.3645,-2.4513,-2.4748,-2.5338,-2.6245,-2.6383,-2.6533,-2.6533,-2.6533,-2.6728,-2.7258,-2.789,-2.9093,-3.0585,-3.7624,-3.8212,-3.8707,-3.8707,-3.8325,-3.7791,-3.7273,-3.6735,-3.5687,-3.3778,-3.3389,-3.3237,-3.3169,-3.1985,-3.1274,-3.1433,-3.1262,-3.016,-2.7836,-2.8734,-2.8816,-2.767,-2.7625,-2.7625,-2.7625,-2.7625,-2.7625,-2.7625,-2.7625,-2.7625,-2.7625,-2.7625,-2.7625,-2.7625,-2.7625,-2.8284,-2.9355,-2.9355,-3.0103,-3.142,-3.2736,-3.2662,-3.2033,-3.4547,-3.4756,-3.3873,-3.4927,-3.5213,-3.4662,-3.2507,-3.1738,-3.1344,-2.9605,-2.7247,-2.5004,-2.4651,-2.2773,-2.0668,-2.0078,-1.985,-1.9798,-1.9798,-1.9798,-1.9798,-1.9798,0.0,-2.0087,-2.0087,0.0,-1.9987,-1.8719,0.0,0.0,-1.7752,-1.7225,-1.7752,-2.0225,-2.0564,-2.0652,-2.0916,-2.2686,-2.369,-2.3213,-2.4933,-2.6643,-2.7997,-2.7844,-2.6849,-2.4872,-2.4713,-2.4125,-2.3135,-2.3135,-2.3135,-2.3135,-2.3135,-2.3135,-2.3135,-2.3135,-2.3135,-2.3135,-2.3135,-2.3233,-2.3562,-2.4434,-2.4963,-2.5229,-2.6094,-2.6533,-2.6533,-2.6533,-2.6571,-2.6622,-2.6678,-2.7815,-2.921,-3.8102,-3.8083,-3.8046,-3.8206,-3.7697,-3.6988,-3.6229,-3.5652,-3.4968,-3.4159,-3.4032,-3.437,-3.5267,-3.3974,-3.3452,-3.443,-3.3673,-3.2687,-3.1601,-3.1031,-3.0462,-2.9894,-2.8771,-2.8173,-2.8173,-2.7784,-2.7625,-2.7625,-2.7625,-2.7625,-2.7625,-2.7625,-2.7625,-2.7625,-2.7625,-2.8323,-2.9579,-2.9579,-3.0342,-3.1526,-3.2138,-3.2018,-3.1765,-3.4487,-3.516,-3.4573,-3.3923,-3.4126,-3.4236,-3.1927,-3.1689,-3.2061,-3.0375,-2.8181,-2.6224,-2.6094,-2.3501,-2.0752,-2.1154,-2.1255,-2.1255,-2.1255,-2.1255,-2.1255,-2.1255,-2.0501,-1.9798,-1.9798,0.0,0.0,0.0,0.0,0.0,0.0,-1.6918,-1.7377,-1.8577,-1.8786,-1.953,-2.1473,-2.2502,-2.3552,-2.4619,-2.4092,-2.4501,-2.6478,-2.6056,-2.5308,-2.4397,-2.4626,-2.4617,-2.4125,-2.3474,-2.3135,-2.3135,-2.3135,-2.3135,-2.3135,-2.3135,-2.3135,-2.3135,-2.38,-2.4127,-2.4187,-2.5304,-2.5808,-2.5873,-2.6314,-2.6533,-2.6533,-2.6533,-2.6533,-2.6589,-2.704,-2.7986,-2.9066,-3.7869,-3.7558,-3.7216,-3.7436,-3.696,-3.6365,-3.5813,-3.5535,-3.5425,-3.5436,-3.525,-3.5622,-3.6941,-3.5302,-3.4725,-3.6241,-3.5292,-3.4543,-3.4206,-3.2809,-3.2078,-3.2078,-3.0013,-2.9041,-2.94,-2.8562,-2.809,-2.7859,-2.7859,-2.7754,-2.7625,-2.7625,-2.7625,-2.7625,-2.7625,-2.8323,-2.9609,-2.9968,-3.0866,-3.2108,-3.2482,-3.2617,-3.2796,-3.4352,-3.519,-3.5305,-3.378,-3.3755,-3.406,-3.1973,-3.1997,-3.2628,-3.1613,-2.9671,-2.7851,-2.8255,-2.562,-2.2721,-2.3205,-2.3541,-2.3612,-2.2757,-2.263,-2.2572,-2.2,-2.0784,-1.9798,-1.9798,-1.9798,0.0,0.0,0.0,-1.8147,-1.732,0.0,-1.7557,-1.7731,-1.7963,-1.899,-2.1442,-2.1987,-2.2921,-2.4709,-2.3207,-2.2811,-2.4556,-2.4572,-2.4276,-2.4001,-2.5105,-2.5452,-2.4787,-2.4296,-2.3724,-2.3144,-2.3387,-2.3551,-2.3551,-2.3212,-2.3299,-2.3551,-2.4258,-2.4498,-2.4423,-2.5715,-2.6214,-2.6094,-2.6383,-2.6533,-2.6533,-2.6533,-2.6658,-2.6905,-2.7484,-2.8247,-2.9129,-3.6211,-3.6358,-3.6352,-3.6347,-3.6121,-3.6123,-3.6672,-3.7313,-3.7778,-3.7821,-3.7161,-3.7009,-3.7787,-3.5188,-3.4072,-3.5616,-3.5529,-3.4873,-3.3607,-3.3455,-3.344,-3.344,-3.0941,-3.0148,-3.1362,-3.0178,-2.9205,-2.8562,-2.8562,-2.8233,-2.7625,-2.7625,-2.7625,-2.7625,-2.7625,-2.8323,-2.9669,-3.0941,-3.2228,-3.3544,-3.4861,-3.537,-3.525,-3.4023,-3.4367,-3.5504,-3.5394,-3.5394,-3.5215,-3.3826,-3.3423,-3.3468,-3.3393,-3.1589,-2.9754,-3.1047,-2.9571,-2.729,-2.6351,-2.6799,-2.6856,-2.3973,-2.3437,-2.3151,-2.1257,-2.0296,-1.9798,-1.9798,-1.9798,-1.9635,-1.9095,-1.896,-1.8976,-1.895,-1.8421,0.0,0.0,-1.8425,-1.8121,-1.8233,-1.9208,-2.0139,-2.0716,-2.1253,-2.1769,-2.2372,-2.4393,-2.5105,-2.407,-2.6517,-2.7012,-2.4872,-2.5797,-2.5305,-2.3135,-2.4211,-2.4787,-2.4702,-2.3637,-2.3714,-2.4692,-2.4273,-2.3813,-2.345,-2.4933,-2.5419,-2.5158,-2.6094,-2.6533,-2.6533,-2.6533,-2.6973,-2.767,-2.767,-2.8247,-2.9129,-3.5617,-3.5002,-3.4877,-3.5647,-3.5042,-3.4465,-3.455,-3.5588,-3.6936,-3.8439,-3.8386,-3.9089,-4.1305,-3.9692,-3.8616,-3.9145,-3.9007,-3.8306,-3.6868,-3.6321,-3.6088,-3.6088,-3.3978,-3.2617,-3.2198,-3.1315,-3.0342,-2.925,-2.8816,-2.8487,-2.8248,-2.7784,-2.7625,-2.7625,-2.7625,-2.8323,-2.9669,-3.0986,-3.2287,-3.3529,-3.3993,-3.4173,-3.4218,-3.4651,-3.5115,-3.5504,-3.5504,-3.5504,-3.531,-3.3948,-3.4083,-3.4666,-3.3784,-3.2344,-3.1224,-3.2717,-3.0583,-2.7886,-2.8581,-2.8607,-2.815,-2.7099,-2.5608,-2.4282,-2.3611,-2.1559,-1.9798,-1.9798,-1.9798,-1.9648,-1.912,-1.9365,-1.9397,-1.8587,-1.892,-1.918,0.0,-1.906,-1.9169,-1.9169,-1.8847,-1.9314,-2.0965,-1.9672,-1.9112,-2.006,-2.0824,-2.0779,-1.9687,-2.3305,-2.5066,-2.4317,-2.57,-2.6141,-2.5389,-2.5724,-2.5975,-2.5891,-2.5557,-2.5301,-2.5387,-2.596,-2.5665,-2.4869,-2.6142,-2.6448,-2.6025,-2.6383,-2.6533,-2.6521,-2.7095,-2.7484,-2.767,-2.767,-2.862,-2.995,-3.4889,-3.4146,-3.4028,-3.4754,-3.444,-3.4359,-3.5229,-3.6208,-3.7733,-4.0239,-4.0104,-4.0612,-4.2777,-4.1636,-4.0763,-4.0976,-4.0421,-3.9833,-3.9307,-3.746,-3.6878,-3.8063,-3.5549,-3.4173,-3.4247,-3.2931,-3.1928,-3.1315,-2.9939,-2.928,-2.9265,-2.8353,-2.7814,-2.7625,-2.7625,-2.8053,-2.8981,-3.0776,-3.2018,-3.2841,-3.3305,-3.3784,-3.4247,-3.4637,-3.5085,-3.5504,-3.5504,-3.5504,-3.537,-3.4502,-3.4786,-3.5355,-3.4487,-3.3639,-3.3206,-3.4244,-3.26,-3.061,-3.1273,-3.1335,-3.0782,-2.9403,-2.7881,-2.6401,-2.5371,-2.3305,-2.1581,-2.1581,-2.1581,-2.1297,-2.036,-2.0555,-2.0362,-1.8967,-1.9339,-1.9666,0.0,-1.9479,-1.969,-1.969,-1.9606,-1.9809,-2.0429,-1.9266,-1.8467,-1.8417,-1.9133,-1.9087,-1.8054,-2.2551,-2.4788,-2.4001,-2.637,-2.7313,-2.6472,-2.6883,-2.7046,-2.7046,-2.6719,-2.6377,-2.6188,-2.6734,-2.6498,-2.568,-2.6618,-2.6791,-2.6533,-2.6533,-2.6658,-2.6973,-2.7484,-2.8051,-2.862,-2.862,-2.9504,-3.0777,-3.4109,-3.3825,-3.3862,-3.3917,-3.4449,-3.5802,-3.8556,-3.9025,-4.0078,-4.2841,-4.2074,-4.1525,-4.2236,-4.1119,-4.0505,-4.0941,-3.967,-3.9402,-4.0504,-3.6956,-3.6198,-3.9316,-3.5854,-3.4985,-3.736,-3.4966,-3.3963,-3.4532,-3.1898,-3.0582,-3.0522,-2.922,-2.8233,-2.7625,-2.7625,-2.7625,-2.779,-3.0402,-3.1511,-3.1676,-3.2916,-3.4203,-3.5265,-3.3978,-3.4337,-3.5504,-3.5504,-3.5504,-3.5504,-3.5504,-3.5504,-3.5504,-3.5504,-3.5504,-3.5504,-3.5504,-3.5504,-3.5279,-3.4312,-3.4758,-3.4558,-3.0811,-3.0034,-2.938,-2.6572,-2.5422,-2.4885,-2.4885,-2.4885,-2.4405,-2.2841,-2.2508,-2.1883,-2.0158,-1.9794,-1.969,-1.969,-1.969,-1.969,-1.969,-2.1122,-2.1238,-1.9123,-1.9894,-1.9649,-1.7487,-1.9264,-2.0048,-1.9061,-2.3943,-2.5958,-2.4139,-2.7521,-2.8524,-2.6637,-2.7566,-2.8044,-2.8176,-2.7128,-2.6944,-2.7377,-2.68,-2.6277,-2.5742,-2.6247,-2.6533,-2.6533,-2.6521,-2.704,-2.7736,-2.7802,-2.8876,-3.0329,-3.0329,-3.0837,-3.1482,-3.4109,-3.4283,-3.4825,-3.5294,-3.6435,-3.7515,-3.8102,-3.9126,-4.0091,-4.0866,-4.1562,-4.21,-4.2277,-4.2985,-4.2621,-4.0486,-4.0365,-4.0091,-3.9347,-3.877,-3.9031,-4.0286,-3.9364,-3.8421,-3.7419,-3.6746,-3.6028,-3.5235,-3.3066,-3.1749,-3.1168,-2.9445,-2.8233,-2.7625,-2.7625,-2.7625,-2.779,-3.0402,-3.2093,-3.2931,-3.2302,-3.2826,-3.3978,-3.3619,-3.4337,-3.5504,-3.5504,-3.5504,-3.5504,-3.5504,-3.5504,-3.5504,-3.5504,-3.5504,-3.5504,-3.5504,-3.5504,-3.5424,-3.5213,-3.4758,-3.4129,-3.3139,-3.1495,-2.9711,-2.8292,-2.6854,-2.5857,-2.5857,-2.5857,-2.5919,-2.6263,-2.5078,-2.3769,-2.2838,-2.1009,-1.969,-1.969,-1.969,-1.969,-1.969,-2.0086,-2.0106,-1.9553,-1.975,-1.9357,-1.7993,-1.8398,-1.8834,-1.8969,-2.0345,-2.2347,-2.5128,-2.4179,-2.5319,-2.8924,-2.7163,-2.7321,-2.9365,-2.9118,-2.8823,-2.8498,-2.7891,-2.742,-2.6875,-2.6621,-2.6533,-2.6521,-2.7162,-2.7484,-2.7868,-2.9129,-3.0269,-3.1219,-3.1219,-3.1351,-3.1482,-3.5678,-3.6362,-3.7151,-3.7235,-3.8887,-3.9899,-3.8989,-3.9867,-4.094,-4.1963,-4.2465,-4.2925,-4.33,-4.4069,-4.391,-4.2219,-4.1188,-4.0636,-4.0762,-3.9349,-3.9333,-4.1154,-4.0302,-3.9252,-3.7983,-3.7594,-3.706,-3.6342,-3.4053,-3.2751,-3.2347,-3.0073,-2.8502,-2.7625,-2.7625,-2.7625,-2.779,-3.0402,-3.2287,-3.3425,-3.2691,-3.3185,0.0,-3.3724,-3.4337,-3.5504,-3.5504,-3.5504,-3.5504,-3.5504,-3.5504,-3.5504,-3.5504,-3.5504,-3.5504,-3.5504,-3.5504,-3.5504,-3.5504,-3.5067,-3.4543,-3.4095,-3.2872,-3.1559,-3.0609,-2.9686,-2.9021,-2.9021,-2.9021,-2.8954,-2.8796,-2.6911,-2.463,-2.2308,-2.0694,-1.969,-1.969,-2.0662,-2.0961,-1.9861,-2.0692,-2.0946,-1.9794,-1.969,-1.9453,-1.8853,-1.8788,-1.8757,-1.8618,-2.0849,-2.2295,-2.27,-2.3528,-2.4692,-2.6151,-2.4594,-2.5209,-2.7959,-2.7959,-2.8298,-2.8925,-2.8612,-2.8034,-2.7339,-2.7334,-2.7246,-2.7095,-2.792,-2.8492,-2.9002,-3.0329,-3.1087,-3.1482,-3.1482,-3.1482,-3.1482,-3.7664,-3.8637,-3.9509,-3.9239,-4.1011,-4.2026,-4.0729,-4.1143,-4.2295,-4.4069,-4.3866,-4.3732,-4.4231,-4.4485,-4.4502,-4.4299,-4.188,-4.1177,-4.3039,-3.9599,-3.8909,-4.2012,-4.0324,-3.9232,-3.9103,-3.8427,-3.7971,-3.7971,-3.5238,-3.3849,-3.3713,-3.0925,-2.8929,-2.771,-2.7625,-2.7769,-2.8233,-3.0372,-3.2138,-3.3499,-3.3499,-3.4203,-3.513,-3.4143,-3.4487,-3.5504,-3.5504,-3.5504,-3.5504,-3.5504,-3.5504,-3.5504,-3.5504,-3.5504,-3.5504,-3.5504,-3.5504,-3.5504,-3.5504,-3.5504,-3.5279,-3.4394,-3.4177,-3.3959,-3.3031,-3.282,-3.282,-3.282,-3.282,-3.2373,-3.1037,-2.8369,-2.504,-2.0876,-1.9914,-1.969,-1.969,-2.1934,-2.2622,-1.9989,-2.1994,0.0,-1.9929,-1.969,-1.969,-1.969,-1.969,-1.939,-1.8664,-2.2758,-2.3504,-1.9879,-2.3936,-2.5005,-2.2477,-2.1919,-2.3276,-2.6316,-2.5841,-2.6804,-2.9038,-2.9101,-2.8619,-2.7766,-2.852,-2.8478,-2.804,-2.8922,-2.9761,-3.0524,-3.1219,-3.1482,-3.1482,-3.1482,-3.1482,-3.1482,-3.766,-3.7742,-3.8373,-3.9829,-4.0349,-4.104,-4.2503,-4.3446,-4.367,-4.2808,-4.3681,-4.3961,-4.2864,-4.3844,-4.4062,-4.2794,-4.2202,-4.2064,-4.2479,-4.1772,-4.1882,-4.3026,-4.268,-4.2148,-4.1438,-4.1309,-4.1164,-4.1164,-3.7809,-3.5878,-3.5245,-3.1343,-2.9104,-2.8319,-2.781,-2.8786,-3.0806,-3.0178,-3.13,-3.3499,-3.3499,-3.3634,-3.3948,-3.4816,-3.531,-3.5504,-3.5504,-3.5504,-3.5504,-3.5504,-3.5504,-3.5504,-3.5504,-3.5504,-3.5504,-3.5504,-3.5504,-3.5504,-3.5504,-3.5504,-3.5439,-3.5279,-3.5213,-3.4986,-3.3959,-3.3739,-3.3739,-3.3739,-3.3739,-3.3897,-3.4475,-3.0594,-2.6396,-2.3415,-2.1096,-1.969,-1.969,-2.1934,-2.2622,-1.9989,-2.1994,-2.2562,-1.9929,-1.969,-1.969,-1.969,-1.969,-2.0215,-2.1437,-2.0251,-2.0809,-2.3594,-2.233,-2.3468,-2.739,-2.4233,-2.5176,-3.0171,-2.7079,-2.7017,-2.9628,-3.0012,-3.004,-2.9889,-3.0392,-3.0154,-2.9669,-3.0488,-3.1035,-3.1278,-3.1409,-3.1482,-3.1482,-3.1482,-3.1482,-3.1482,-4.0075,-3.9648,-3.9538,-3.9991,-4.1147,-4.2232,-4.2846,-4.4144,-4.471,-4.3637,-4.412,-4.4311,-4.3586,-4.4136,-4.4282,-4.3538,-4.2743,-4.2625,-4.342,-4.2726,-4.2783,-4.3939,-4.3562,-4.2764,-4.1662,-4.1882,-4.1453,-4.0411,-3.7934,-3.6134,-3.5016,-3.1589,-2.9627,-2.8997,-2.9467,-2.9986,-3.0567,-3.1723,-3.2728,-3.3559,-3.4262,-3.4532,-3.4607,-3.525,-3.5504,-3.5504,-3.5504,-3.5504,-3.5504,-3.5504,-3.5504,-3.5504,-3.5504,-3.5504,-3.5504,-3.5504,-3.5504,-3.5504,-3.5504,-3.5504,-3.5504,-3.5504,-3.5504,-3.5359,-3.4905,-3.4758,-3.4758,-3.4758,-3.4758,-3.4493,-3.3555,-3.1345,-2.8757,-2.6093,-2.3445,-2.171,-2.171,-2.2802,-2.3131,-2.1859,-2.4044,-2.4612,-2.1979,-2.171,-2.1156,-1.9794,-1.969,-2.0042,-2.0869,-2.094,-2.167,-2.3259,-2.3279,-2.4319,-2.6385,-2.4537,-2.5699,-2.9794,-2.7967,-2.8571,-3.1267,-3.1473,-3.1392,-3.1151,-3.1828,-3.1749,-3.1233,-3.2072,-3.2418,-3.2557,-3.2557,-3.2557,-3.2601,-3.2998,-3.3157,-3.3066,-4.2545,-4.2045,-4.1521,-4.1231,-4.2601,-4.3688,-4.3638,-4.4652,-4.523,-4.4856,-4.4694,-4.4587,-4.4587,-4.4587,-4.4451,-4.4113,-4.3284,-4.3014,-4.3589,-4.3098,-4.3166,-4.4045,-4.3614,-4.2841,-4.1777,-4.1929,-4.1286,-3.9641,-3.797,-3.6465,-3.5007,-3.216,-3.0521,-2.9902,-3.1405,-3.1662,-3.1097,-3.362,-3.4509,-3.4226,-3.5135,-3.5504,-3.5504,-3.5504,-3.5504,-3.5504,-3.5504,-3.5504,-3.5504,-3.5504,-3.5504,-3.5504,-3.5504,-3.5504,-3.5504,-3.5504,-3.5504,-3.5504,-3.5504,-3.5504,-3.5504,-3.5504,-3.5504,-3.5504,-3.5504,-3.5504,-3.5504,-3.5504,-3.5504,-3.4861,-3.2766,-3.1872,-3.0643,-2.8055,-2.5369,-2.3404,-2.2862,-2.3251,-2.3595,-2.3595,-2.545,-2.5899,-2.3804,-2.3086,-2.1919,-1.9839,-1.969,-1.9929,-2.0483,-2.1949,-2.2646,-2.2364,-2.4391,-2.5316,-2.4969,-2.4805,-2.6372,-2.9685,-2.89,-2.9937,-3.2593,-3.282,-3.2695,-3.2317,-3.3255,-3.3238,-3.2742,-3.3283,-3.3499,-3.3499,-3.3668,-3.3789,-3.3834,-3.4616,-3.4961,-3.4804,-4.3397,-4.3336,-4.372,-4.509,-4.4333,-4.4313,-4.6599,-4.589,-4.516,-4.5391,-4.4953,-4.4587,-4.4587,-4.4587,-4.4012,-4.2625,-4.3639,-4.3267,-4.0663,-4.2929,-4.3809,-4.2557,-4.3094,-4.3327,-4.3209,-4.2597,-4.2156,-4.2008,-3.98,-3.8016,-3.6518,-3.3653,-3.1984,-3.1454,-3.2933,-3.4217,-3.5202,-3.4851,-3.5329,-3.6261,-3.5737,-3.5504,-3.5504,-3.5504,-3.5504,-3.5504,-3.5504,-3.5504,-3.5504,-3.5504,-3.5504,-3.5504,-3.5504,-3.5504,-3.5504,-3.5504,-3.5504,-3.5504,-3.5504,-3.5504,-3.5504,-3.5504,-3.5504,-3.5504,-3.5504,-3.5504,-3.5504,-3.5504,-3.5504,-3.5429,-3.5175,-3.3156,-3.0625,-2.8008,-2.5348,-2.276,-2.04,-2.2099,-2.3595,-2.3595,-2.3819,-2.3879,-2.3625,-2.1455,-1.9944,-1.9705,-1.969,-2.0722,-2.3101,-2.1216,-2.1111,-2.3387,-2.3701,-2.4955,-2.725,-2.6335,-2.8378,-3.3403,-3.0114,-2.9937,-3.2593,-3.3449,-3.3848,-3.3873,-3.4832,-3.4882,-3.4259,-3.3739,-3.3499,-3.3546,-3.4296,-3.4589,-3.469,-3.5419,-3.5678,-3.577,-4.5295,-4.4325,-4.3554,-4.3701,-4.4023,-4.4418,-4.4962,-4.504,-4.5071,-4.5169,-4.4785,-4.4456,-4.4456,-4.3752,-4.2963,-4.2337,-4.2844,-4.2692,-4.1491,-4.254,-4.2929,-4.232,-4.2574,-4.2743,-4.2743,-4.2439,-4.2066,-4.1644,-3.8971,-3.7127,-3.6045,-3.4001,-3.32,-3.3548,-3.5414,-3.6071,-3.5835,-3.6812,-3.6975,-3.6554,-3.6275,-3.5894,-3.5504,-3.5504,-3.5504,-3.5504,-3.5504,-3.5504,-3.5504,-3.5504,-3.5504,-3.5504,-3.5504,-3.5504,-3.5504,-3.5504,-3.5504,-3.5504,-3.5504,-3.5504,-3.5504,-3.5504,-3.5504,-3.5504,-3.5504,-3.5504,-3.5504,-3.5504,-3.5504,-3.5504,-3.5504,-3.4608,-3.3054,-3.0387,-2.9019,-2.7414,-2.479,-2.5331,-2.6572,-2.8173,-2.6961,-2.6617,-2.8203,-2.4522,-2.2039,-2.2039,-2.0572,-2.0154,-2.1186,-2.1754,-2.3251,-2.5899,-2.5989,-2.8023,-3.2287,-3.0324,-3.119,-3.489,-3.3401,-3.3252,-3.4341,-3.4706,-3.4905,-3.4905,-3.5359,-3.5355,-3.507,-3.4816,-3.4982,-3.5401,-3.5704,-3.6123,-3.6632,-3.7388,-3.766,-3.7768,-4.6489,-4.5311,-4.4142,-4.3467,-4.4291,-4.471,-4.3651,-4.4508,-4.5109,-4.4638,-4.4369,-4.4215,-4.4078,-4.3149,-4.2326,-4.169,-4.203,-4.1914,-4.1052,-4.1813,-4.21,-4.166,-4.1847,-4.1965,-4.1965,-4.1745,-4.139,-4.0882,-3.8768,-3.7246,-3.6265,-3.5216,-3.5043,-3.5738,-3.7663,-3.797,-3.7126,-3.8372,-3.8173,-3.6904,-3.6737,-3.6165,-3.5504,-3.5504,-3.5504,-3.5504,-3.5504,-3.5504,-3.5504,-3.5504,-3.5504,-3.5504,-3.5504,-3.5504,-3.5504,-3.5504,-3.5504,-3.5504,-3.5504,-3.5504,-3.5504,-3.5504,-3.5504,-3.5504,-3.5504,-3.5504,-3.5504,-3.5504,-3.5504,-3.5504,-3.5504,-3.5504,-3.4608,-3.1954,-3.1494,-3.0608,-2.7955,-2.7618,-2.8254,-3.0108,-2.8023,-2.7455,-3.0118,-2.6258,-2.3595,-2.3595,-2.1874,-2.0842,-2.0842,-2.1859,-2.3655,-2.6318,-2.5706,-2.7799,-3.3125,-3.1315,-3.2108,-3.5504,-3.5504,-3.5504,-3.5504,-3.5504,-3.5504,-3.5504,-3.5504,-3.5504,-3.5504,-3.5504,-3.5943,-3.66,-3.6843,-3.744,-3.8206,-3.8978,-3.9262,-3.9315,-4.6485,-4.6379,-4.6265,-4.592,-4.5862,-4.5342,-4.3734,-4.4865,-4.5324,-4.3734,-4.376,-4.371,-4.3279,-4.3217,-4.2364,-4.0301,-4.1435,-4.1052,-3.8142,-4.0679,-4.1644,-4.0172,-4.0815,-4.1221,-4.1221,-4.0493,-4.0104,-4.0087,-4.0054,-3.9292,-3.7872,-3.7855,-3.7855,-3.7939,-3.9394,-4.0054,-3.9986,-3.9246,-3.8469,-3.769,-3.6904,-3.6165,-3.5504,-3.5504,-3.5504,-3.5504,-3.5504,-3.5504,-3.5504,-3.5504,-3.5504,-3.5504,-3.5504,-3.5504,-3.5504,-3.5504,-3.5504,-3.5504,-3.5504,-3.5504,-3.5504,-3.5504,-3.5504,-3.5504,-3.5504,-3.5504,-3.5504,-3.5504,-3.5504,-3.5504,-3.5504,-3.5504,-3.4608,-3.1954,-3.15,-3.0599,-2.7988,-2.7593,-2.7592,-2.7658,-2.527,-2.4687,-2.7415,-2.5181,-2.3595,-2.3595,-2.3565,-2.355,-2.355,-2.1126,-2.0932,-2.3565,-2.1126,-2.2364,-2.767,-2.7685,-3.0268,-3.5504,-3.5504,-3.5504,-3.5504,-3.5504,-3.5504,-3.5504,-3.5504,-3.5504,-3.5504,-3.5504,-3.5943,-3.6661,-3.7456,-3.8246,-3.8962,-3.9782,-4.007,-4.007,-4.4,-4.5171,-4.5819,-4.4036,-4.4457,-4.4702,-4.366,-4.3934,-4.4062,-4.3587,-4.3573,-4.3451,-4.2904,-4.2114,-4.1375,-4.0697,-3.9815,-3.9323,-3.9377,-3.9326,-3.9529,-4.0054,-3.936,-3.8954,-3.8954,-3.8717,-3.8599,-3.8599,-3.8599,-3.8362,-3.7905,-3.7905,-3.8447,-3.9411,-3.9868,-4.007,-4.007,-3.985,-3.9262,-3.8469,-3.7732,-3.6919,-3.6228,-3.5668,-3.5504,-3.5504,-3.5504,-3.5504,-3.5504,-3.5504,-3.5504,-3.5504,-3.5504,-3.5504,-3.5504,-3.5504,-3.5504,-3.5504,-3.5504,-3.5504,-3.5504,-3.5504,-3.5504,-3.5504,-3.5504,-3.5504,-3.5504,-3.5504,-3.5504,-3.5504,-3.5504,-3.5504,-3.4608,-3.1954,-3.3006,-3.3284,-3.0596,-3.0265,-3.0268,-3.0268,-2.7919,-2.735,-3.0013,-2.7874,-2.6303,-2.6303,-2.4627,-2.3595,-2.3595,-2.4522,-2.6482,-2.9579,-2.8861,-3.0313,-3.4233,-3.2063,-3.2706,-3.6178,-3.5714,-3.5504,-3.5504,-3.5504,-3.5504,-3.5504,-3.6054,-3.6275,-3.6275,-3.6829,-3.7499,-3.8213,-3.8453,-3.9032,-3.9731,-4.002,-4.007,-4.007,-4.3701,-4.4791,-4.5331,-4.3512,-4.3892,-4.4026,-4.2787,-4.3114,-4.3296,-4.266,-4.3114,-4.3369,-4.3041,-4.2136,-4.14,-4.0949,-3.9727,-3.9333,-4.0046,-3.9221,-3.9123,-4.0037,-3.9208,-3.8717,-3.8717,-3.8717,-3.8717,-3.8717,-3.8717,-3.8717,-3.8717,-3.8717,-3.9208,-4.007,-4.007,-4.007,-4.007,-4.007,-3.961,-3.8854,-3.8414,-3.7557,-3.6615,-3.6415,-3.6022,-3.5569,-3.5846,-3.5733,-3.5504,-3.5504,-3.5504,-3.5504,-3.5504,-3.5504,-3.5504,-3.5504,-3.5504,-3.5504,-3.5504,-3.5504,-3.5504,-3.5504,-3.5504,-3.5504,-3.5504,-3.5504,-3.5504,-3.5504,-3.5504,-3.5504,-3.5504,-3.5504,-3.4931,-3.326,-3.4425,-3.4901,-3.3245,-3.215,-3.1488,-3.1507,-2.919,-2.8622,-3.1285,-3.0028,-2.9056,-2.9056,-2.6587,-2.5525,-2.6527,-2.6258,-2.7604,-3.0941,-3.1046,-3.2617,-3.5908,-3.3903,-3.4218,-3.6821,-3.6178,-3.5744,-3.5504,-3.5782,-3.5879,-3.5943,-3.6753,-3.7024,-3.71,-3.7573,-3.8246,-3.8908,-3.8908,-3.9368,-4.007,-4.007,-4.007,-4.007,-4.4876,-4.4944,-4.4844,-4.3989,-4.3939,-4.3385,-4.157,-4.2532,-4.2951,-4.1462,-4.2569,-4.3497,-4.3497,-4.3059,-4.2294,-4.1123,-4.0864,-4.059,-4.0173,-4.0046,-3.9969,-4.007,-3.9986,-3.9935,-3.9935,-3.9935,-3.9969,-4.007,-4.007,-4.007,-4.007,-4.007,-4.007,-4.007,-4.007,-4.007,-4.007,-4.007,-3.9662,-3.8962,-3.8908,-3.7987,-3.6737,-3.7456,-3.6768,-3.5619,-3.6275,-3.6054,-3.5504,-3.5504,-3.5504,-3.5504,-3.5504,-3.5504,-3.5504,-3.5504,-3.5504,-3.5504,-3.5504,-3.5504,-3.5504,-3.5504,-3.5504,-3.5504,-3.5504,-3.5504,-3.5504,-3.5504,-3.5504,-3.5504,-3.5504,-3.5504,-3.5504,-3.5504,-3.5504,-3.5394,-3.5225,-3.3073,-3.1449,-3.124,-2.925,-2.8839,-3.1228,-3.1646,-3.1676,-3.1482,-2.9304,-2.9042,-3.1447,-2.689,-2.5736,-2.9041,-2.919,-3.0702,-3.3799,-3.3829,-3.504,-3.7404,-3.6843,-3.6214,-3.5679,-3.6352,-3.6661,-3.6737,-3.7515,-3.7863,-3.7863,-3.7937,-3.8358,-3.8962,-3.8962,-3.9437,-4.007,-4.007,-4.007,-4.007,-4.1871,-4.3484,-4.4532,-4.2787,-4.3322,-4.3767,-4.3039,-4.3243,-4.3369,-4.3004,-4.3243,-4.3497,-4.3497,-4.3387,-4.3012,-4.2334,-4.0412,-3.9631,-4.0626,-3.9287,-3.892,-4.002,-3.9005,-3.8413,-3.8413,-3.8413,-3.8954,-4.007,-4.007,-4.007,-4.007,-4.007,-4.007,-4.007,-4.007,-4.007,-4.007,-4.007,-4.002,-3.9782,-3.9139,-3.8342,-3.7456,-3.704,-3.629,-3.5504,-3.5733,-3.5668,-3.5504,-3.5504,-3.5504,-3.5504,-3.5504,-3.5504,-3.5504,-3.5504,-3.5504,-3.5504,-3.5504,-3.5504,-3.5504,-3.5504,-3.5504,-3.5504,-3.5504,-3.5504,-3.5504,-3.5504,-3.5504,-3.5504,-3.5504,-3.5504,-3.5504,-3.5504,-3.5504,-3.4762,-3.2695,-3.1913,-3.0758,-2.8739,-2.9739,-3.0815,-3.145,-3.338,-3.3724,-3.1631,-3.148,-3.1774,-3.2376,-3.1221,-3.1779,-3.4517,-3.507,-3.5938,-3.7225,-3.7225,-3.7285,-3.7404,-3.7349,-3.7259,-3.7075,-3.7395,-3.7515,-3.7573,-3.8302,-3.8635,-3.869,-3.9332,-3.9679,-3.9833,-3.9833,-3.9952,-4.007,-4.007,-4.007,-4.007,-4.3017,-4.4174,-4.4911,-4.3634,-4.3879,-4.4165,-4.3772,-4.3597,-4.3497,-4.3497,-4.3497,-4.3497,-4.3497,-4.3497,-4.3387,-4.3096,-4.1256,-4.0363,-4.0848,-3.9662,-3.9242,-4.0054,-3.9326,-3.8903,-3.8903,-3.8903,-3.9292,-4.007,-4.007,-4.007,-4.007,-4.007,-4.007,-4.007,-4.007,-4.007,-4.007,-4.007,-4.007,-4.007,-3.961,-3.8978,-3.8302,-3.823,-3.7499,-3.66,-3.6935,-3.6829,-3.6492,-3.6133,-3.6243,-3.643,-3.5733,-3.5704,-3.5954,-3.5629,-3.5504,-3.5504,-3.5504,-3.5504,-3.5504,-3.5504,-3.5504,-3.5504,-3.5504,-3.5239,-3.5108,-3.5415,-3.524,-3.5165,-3.5474,-3.5504,-3.5504,-3.5504,-3.4454,-3.3137,-3.1695,-3.048,-2.9627,-2.9432,-3.0638,-3.1971,-3.3216,-3.4958,-3.5398,-3.3938,-3.3467,-3.3754,-3.4951,-3.3878,-3.4369,-3.6888,-3.7633,-3.8287,-3.8956,-3.9724,-3.9725,-3.906,-3.9108,-3.8827,-3.8185,-3.8643,-3.8675,-3.8375,-3.9135,-3.9437,-3.9489,-3.9901,-4.007,-4.007,-4.007,-4.007,-4.007,-4.007,-4.007,-4.007,-4.5586,-4.5586,-4.5495,-4.5159,-4.4872,-4.4527,-4.4058,-4.3763,-4.3569,-4.3497,-4.3497,-4.3497,-4.3497,-4.3497,-4.3497,-4.3497,-4.2532,-4.1669,-4.1083,-4.0544,-4.0189,-4.007,-4.007,-4.007,-4.007,-4.007,-4.007,-4.007,-4.007,-4.007,-4.007,-4.007,-4.007,-4.007,-4.007,-4.007,-4.007,-4.007,-4.007,-4.007,-4.007,-3.961,-3.8962,-3.9662,-3.9049,-3.7863,-3.8525,-3.8302,-3.7706,-3.7024,-3.7144,-3.7397,-3.607,-3.6118,-3.6474,-3.5872,-3.5759,-3.5814,-3.5534,-3.5504,-3.5504,-3.5504,-3.54,-3.5359,-3.534,-3.4856,-3.4497,-3.5075,-3.4738,-3.4549,-3.507,-3.5365,-3.5365,-3.4901,-3.3108,-3.1618,-3.1224,-2.9594,-2.9281,-3.1604,-3.2204,-3.3361,-3.5657,-3.6436,-3.6782,-3.6758,-3.543,-3.553,-3.785,-3.5788,-3.5583,-3.7728,-3.8404,-3.9072,-3.985,-4.1149,-4.1597,-4.1164,-4.1146,-4.0526,-3.9434,-4.0017,-3.9896,-3.9254,-3.9831,-4.007,-4.007,-4.007,-4.007,-4.007,-4.007,-4.007,-4.007,-4.007,-4.007,-4.007,-4.5586,-4.5586,-4.5495,-4.5159,-4.5052,-4.4806,-4.4117,-4.3948,-4.3807,-4.3516,-4.3497,-4.3497,-4.3497,-4.3497,-4.3497,-4.3497,-4.2915,-4.2307,-4.1711,-4.1086,-4.0578,-4.0138,-4.007,-4.007,-4.007,-4.007,-4.007,-4.007,-4.007,-4.007,-4.007,-4.007,-4.007,-4.007,-4.007,-4.007,-4.007,-4.007,-4.007,-4.007,-4.007,-3.961,-3.8908,-3.9032,-3.8525,-3.7806,-3.7921,-3.7921,-3.7764,-3.7632,-3.7279,-3.6722,-3.6492,-3.6492,-3.6569,-3.6476,-3.6907,-3.7151,-3.5844,-3.5504,-3.5504,-3.5504,-3.5097,-3.468,-3.4655,-3.417,-3.366,-3.3818,-3.3724,-3.3688,-3.3812,-3.4762,-3.4762,-3.2256,-3.2515,-3.2243,-3.0048,-3.1295,-3.266,-3.3351,-3.5416,-3.6982,-3.7388,-3.7575,-3.7621,-3.7587,-3.7904,-3.8263,-3.8689,-3.8319,-3.8303,-3.8714,-3.8746,-3.9402,-4.0706,-4.096,-4.131,-4.1821,-4.1979,-4.1912,-4.17,-4.1238,-4.0985,-4.0815,-4.0341,-4.007,-4.007,-4.007,-4.007,-4.007,-4.007,-4.007,-4.007,-4.007,-4.007,-4.007,-4.5586,-4.5586,-4.555,-4.54,-4.5222,-4.4988,-4.4638,-4.4248,-4.3939,-4.3791,-4.3612,-4.3497,-4.3497,-4.3497,-4.3497,-4.3497,-4.3277,-4.2887,-4.2311,-4.17,-4.1285,-4.1047,-4.0703,-4.0417,-4.0138,-4.007,-4.007,-4.007,-4.007,-4.007,-4.007,-4.007,-4.007,-4.007,-4.007,-4.007,-4.007,-4.007,-4.007,-4.007,-4.007,-3.9901,-3.9542,-3.9542,-3.9332,-3.9049,-3.9049,-3.9049,-3.8995,-3.8541,-3.8414,-3.8342,-3.7499,-3.7541,-3.7767,-3.7355,-3.7186,-3.6979,-3.6295,-3.5534,-3.4986,-3.4943,-3.4448,-3.4042,-3.444,-3.3984,-3.3693,-3.4496,-3.4346,-3.4106,-3.403,-3.4577,-3.4425,-3.2722,-3.2098,-3.1566,-3.0742,-3.1995,-3.3203,-3.3752,-3.6178,-3.7792,-3.7792,-3.8148,-3.8383,-3.8422,-3.9103,-3.9519,-3.9553,-3.9562,-3.9564,-3.9564,-3.9517,-4.0181,-4.1651,-4.1667,-4.1807,-4.2144,-4.2187,-4.2062,-4.1634,-4.1318,-4.1001,-4.0595,-4.0239,-4.007,-4.007,-4.007,-4.007,-4.007,-4.007,-4.007,-4.007,-4.007,-4.007,-4.0121,-4.5009,-4.5009,-4.5009,-4.5009,-4.4825,-4.4588,-4.4505,-4.4171,-4.3895,-4.3741,-4.3652,-4.3605,-4.3497,-4.3497,-4.3497,-4.3497,-4.3497,-4.3332,-4.2896,-4.2441,-4.2003,-4.1621,-4.1059,-4.0528,-4.0121,-4.007,-4.007,-4.007,-4.007,-4.007,-4.007,-4.007,-4.007,-4.007,-4.007,-4.007,-4.007,-4.007,-4.007,-4.007,-4.007,-4.007,-4.007,-4.007,-4.007,-4.007,-4.007,-4.007,-4.002,-3.9385,-3.9489,-3.961,-3.843,-3.83,-3.8558,-3.797,-3.7208,-3.66,-3.6599,-3.5689,-3.4782,-3.4742,-3.4254,-3.3907,-3.441,-3.402,-3.3818,-3.4904,-3.4731,-3.4341,-3.4288,-3.4581,-3.4394,-3.3161,-3.2,-3.1446,-3.2019,-3.2529,-3.3315,-3.459,-3.6737,-3.807,-3.807,-3.8774,-3.9194,-3.9194,-3.9767,-4.007,-4.007,-4.007,-4.007,-4.007,-4.011,-4.0745,-4.2018,-4.2018,-4.2151,-4.229,-4.2303,-4.1966,-4.1455,-4.1301,-4.0896,-4.0375,-4.0189,-4.007,-4.007,-4.007,-4.007,-4.007,-4.007,-4.007,-4.007,-4.007,-4.0154,-4.0319,-4.3278,-4.3278,-4.3278,-4.3278,-4.3261,-4.3116,-4.2752,-4.333,-4.3591,-4.2978,-4.3513,-4.3826,-4.3516,-4.3497,-4.3497,-4.3497,-4.3497,-4.3479,-4.3442,-4.3391,-4.2659,-4.1041,-4.0449,-4.0121,-4.007,-4.007,-4.007,-4.007,-4.007,-4.007,-4.007,-4.007,-4.007,-4.007,-4.007,-4.007,-4.007,-4.007,-4.007,-4.007,-4.007,-4.007,-4.007,-4.007,-4.007,-4.007,-4.007,-4.007,-4.007,-4.002,-3.9558,-3.8962,-3.8854,-3.841,-3.7867,-3.7797,-3.7263,-3.6708,-3.6692,-3.614,-3.5501,-3.5502,-3.5017,-3.4551,-3.4601,-3.4053,-3.3626,-3.3742,-3.3706,-3.3646,-3.3661,-3.4705,-3.4674,-3.1905,-3.2451,-3.3208,-3.325,-3.3304,-3.441,-3.7286,-3.8405,-3.8891,-3.8891,-3.9581,-4.0003,-4.0003,-4.0054,-4.007,-4.007,-4.007,-4.007,-4.007,-4.0121,-4.0477,-4.1257,-4.1257,-4.1612,-4.229,-4.2289,-4.2278,-4.2211,-4.1525,-4.1171,-4.1069,-4.0408,-4.007,-4.007,-4.007,-4.007,-4.007,-4.007,-4.007,-4.007,-4.007,-4.04,-4.0874,-4.3104,-4.3104,-4.3104,-4.3104,-4.3104,-4.3052,-4.2889,-4.2923,-4.2848,-4.2417,-4.2462,-4.237,-4.2043,-4.2006,-4.2223,-4.2732,-4.2768,-4.2951,-4.3461,-4.3497,-4.3069,-4.2062,-4.1464,-4.0984,-4.0625,-4.0286,-4.007,-4.007,-4.007,-4.007,-4.007,-4.007,-4.007,-4.007,-4.007,-4.007,-4.007,-4.007,-4.007,-4.007,-4.007,-4.007,-4.007,-4.007,-4.007,-4.007,-4.007,-4.007,-4.0003,-3.9546,-3.9227,-3.8874,-3.8422,-3.8104,-3.7869,-3.7869,-3.7315,-3.6766,-3.6759,-3.5868,-3.4988,-3.4985,-3.4504,-3.4101,-3.4511,-3.4397,-3.4333,-3.4752,-3.4864,-3.4731,-3.4316,-3.4643,-3.453,-3.2966,-3.3508,-3.4317,-3.4767,-3.5207,-3.6092,-3.7712,-3.8129,-3.8292,-3.8305,-3.8992,-3.9413,-3.9413,-3.9834,-4.007,-4.007,-4.007,-4.007,-4.007,-4.007,-4.0222,-4.0544,-4.0544,-4.0646,-4.0949,-4.0929,-4.0927,-4.091,-4.0663,-4.0544,-4.0476,-4.0222,-4.007,-4.007,-4.007,-4.007,-4.007,-4.007,-4.007,-4.0121,-4.0497,-4.075,-4.0995,-4.2297,-4.2277,-4.2277,-4.2277,-4.2277,-4.2277,-4.228,-4.2278,-4.2183,-4.1886,-4.1804,-4.1629,-4.1302,-4.1159,-4.1321,-4.1882,-4.1922,-4.2161,-4.2705,-4.2727,-4.2739,-4.2675,-4.1937,-4.1313,-4.0903,-4.0368,-4.007,-4.007,-4.007,-4.007,-4.007,-4.007,-4.007,-4.007,-4.007,-4.007,-4.007,-4.007,-4.007,-4.007,-4.007,-4.007,-4.007,-4.007,-4.007,-4.0054,-3.9817,-3.9732,-3.9631,-3.8903,-3.865,-3.8565,-3.8075,-3.7736,-3.7499,-3.7263,-3.681,-3.6409,-3.6417,-3.5694,-3.4919,-3.4919,-3.4578,-3.4347,-3.4783,-3.4913,-3.5052,-3.5515,-3.5622,-3.5476,-3.4987,-3.4919,-3.4745,-3.4292,-3.4611,-3.5099,-3.5622,-3.6084,-3.661,-3.7137,-3.7387,-3.7558,-3.753,-3.8231,-3.877,-3.8975,-3.9463,-3.9851,-4.007,-4.007,-4.007,-4.007,-4.007,-4.007,-4.007,-4.007,-4.007,-4.007,-4.007,-4.007,-4.007,-4.007,-4.007,-4.007,-4.007,-4.007,-4.007,-4.007,-4.007,-4.007,-4.007,-4.007,-4.0154,-4.0703,-4.1041,-4.1313,-4.0543,-4.0489,-4.0489,-4.0489,-4.0489,-4.0489,-4.0489,-4.1232,-4.1671,-4.1328,-4.175,-4.194,-4.1613,-4.1268,-4.1071,-4.1071,-4.1088,-4.1098,-4.1117,-4.1107,-4.1588,-4.2659,-4.156,-4.0886,-4.0903,-4.0368,-4.0121,-4.007,-4.007,-4.007,-4.007,-4.007,-4.007,-4.007,-4.007,-4.007,-4.007,-4.007,-4.007,-4.0054,-4.0054,-4.0054,-4.0054,-4.0054,-4.0054,-3.9969,-3.9242,-3.8988,-3.887,-3.8142,-3.7889,-3.7889,-3.7889,-3.7381,-3.662,-3.5842,-3.5622,-3.5622,-3.5622,-3.5622,-3.5622,-3.5622,-3.5622,-3.5622,-3.5622,-3.5622,-3.5622,-3.5622,-3.5622,-3.5622,-3.5622,-3.5622,-3.5622,-3.5622,-3.5622,-3.5622,-3.5622,-3.5622,-3.5622,-3.5622,-3.6282,-3.6791,-3.6791,-3.7483,-3.8201,-3.8942,-3.8992,-3.9345,-4.0054,-4.007,-4.007,-4.007,-4.007,-4.007,-4.007,-4.007,-4.007,-4.007,-4.007,-4.007,-4.007,-4.007,-4.007,-4.007,-4.007,-4.007,-4.007,-4.007,-4.007,-4.007,-4.007,-4.0121,-4.0154,-4.0703,-4.1313,-4.1895,-4.0543,-4.0489,-4.0489,-4.0489,-4.0489,-4.0489,-4.0489,-4.0716,-4.0773,-4.0489,-4.039,-4.0204,-3.9878,-3.959,-3.9632,-4.0207,-4.0249,-4.0506,-4.1038,-4.1111,-4.1247,-4.157,-4.1389,-4.1067,-4.0699,-4.0643,-4.0497,-4.007,-4.007,-4.007,-4.007,-4.007,-4.007,-4.007,-4.007,-3.9783,-3.9326,-3.9326,-3.9022,-3.8565,-3.8565,-3.8565,-3.8565,-3.8565,-3.8565,-3.8531,-3.8311,-3.8227,-3.8125,-3.7364,-3.711,-3.7026,-3.6468,-3.6146,-3.5926,-3.569,-3.5622,-3.5622,-3.5622,-3.5622,-3.5622,-3.5622,-3.5622,-3.5622,-3.5622,-3.5622,-3.5622,-3.5622,-3.5622,-3.5622,-3.5622,-3.5622,-3.5622,-3.5622,-3.5622,-3.5622,-3.5622,-3.5622,-3.5622,-3.5622,-3.5819,-3.5983,-3.5983,-3.6644,-3.72,-3.7454,-3.8434,-3.9345,-4.0054,-4.007,-4.007,-4.007,-4.007,-4.007,-4.007,-4.007,-4.007,-4.007,-4.007,-4.007,-4.007,-4.007,-4.007,-4.007,-4.007,-4.007,-4.007,-4.007,-4.007,-4.007,-4.007,-4.0336,-4.075,-4.1313,-4.1895,-4.2519,-4.06,-4.0543,-4.0489,-4.0489,-4.0489,-4.0489,-4.0489,-4.0489,-4.0431,-4.0277,-3.9977,-3.9727,-3.9509,-3.911,-3.905,-3.9545,-3.9485,-3.963,-4.0139,-4.0157,-4.0157,-4.0157,-4.0571,-4.0709,-4.0463,-4.033,-4.0019,-3.9529,-3.9529,-3.9401,-3.9225,-3.9225,-3.9225,-3.9225,-3.9225,-3.8971,-3.8565,-3.8565,-3.8311,-3.7905,-3.7905,-3.7905,-3.7905,-3.7905,-3.7905,-3.7872,-3.7567,-3.7449,-3.7347,-3.6569,-3.6315,-3.6231,-3.5774,-3.5622,-3.5622,-3.5622,-3.5622,-3.5622,-3.5622,-3.5622,-3.5622,-3.5622,-3.5622,-3.5622,-3.5622,-3.5622,-3.5622,-3.5622,-3.5622,-3.5622,-3.5622,-3.5622,-3.5622,-3.5622,-3.5622,-3.5622,-3.5622,-3.5622,-3.5622,-3.5622,-3.5622,-3.5622,-3.5622,-3.6034,-3.6576,-3.7188,-3.8345,-3.9345,-4.0054,-4.007,-4.007,-4.007,-4.007,-4.007,-4.007,-4.007,-4.007,-4.007,-4.007,-4.007,-4.007,-4.007,-4.007,-4.007,-4.007,-4.007,-4.0138,-4.0358,-4.0406,-4.0429,-4.0666,-4.0948,-4.1313,-4.1937,-4.24,-4.2788,-4.0485,-4.0427,-4.0392,-4.0392,-4.045,-4.0489,-4.0489,-4.0489,-4.0489,-4.0489,-4.0277,-4.0111,-4.0097,-3.9489,-3.9111,-3.9107,-3.8855,-3.8707,-3.8707,-3.8707,-3.8707,-3.8707,-3.9405,-3.9889,-4.0077,-3.9679,-3.9188,-3.8607,-3.8607,-3.8345,-3.7905,-3.7905,-3.7905,-3.7905,-3.7905,-3.7872,-3.7804,-3.7804,-3.777,-3.7702,-3.7702,-3.7702,-3.7702,-3.7702,-3.7702,-3.7618,-3.6924,-3.6671,-3.6569,-3.5859,-3.5622,-3.5622,-3.5622,-3.5622,-3.5622,-3.5622,-3.5622,-3.5622,-3.5622,-3.5622,-3.5622,-3.5622,-3.5622,-3.5622,-3.5622,-3.5622,-3.5622,-3.5622,-3.5622,-3.5622,-3.5622,-3.5622,-3.5622,-3.5622,-3.5622,-3.5622,-3.5622,-3.5622,-3.5622,-3.5622,-3.5622,-3.5622,-3.5622,-3.5622,-3.6231,-3.7768,-3.8529,-3.9244,-4.0054,-4.007,-4.0104,-4.0153,-4.0186,-4.0187,-4.0189,-4.0189,-4.0172,-4.007,-4.007,-4.0155,-4.0189,-4.0189,-4.0206,-4.0239,-4.0239,-4.0239,-4.0273,-4.0798,-4.0965,-4.1042,-4.1587,-4.1815,-4.1955,-4.2498,-4.2711,-4.2864,-3.87,-3.9142,-3.9546,-3.9546,-4.0065,-4.0489,-4.0489,-4.0489,-4.0489,-4.0489,-4.0277,-4.0111,-4.0109,-3.949,-3.9088,-3.908,-3.8855,-3.8707,-3.8707,-3.8707,-3.8707,-3.8707,-3.8872,-3.8975,-3.9026,-3.9679,-3.9576,-3.8607,-3.8607,-3.8345,-3.7905,-3.7905,-3.7905,-3.7905,-3.7905,-3.7584,-3.7026,-3.7026,-3.6671,-3.6113,-3.6113,-3.6113,-3.6113,-3.6113,-3.6113,-3.6096,-3.5926,-3.5876,-3.5842,-3.5673,-3.5622,-3.5622,-3.5622,-3.5622,-3.5622,-3.5622,-3.5622,-3.5622,-3.5622,-3.5622,-3.5622,-3.5622,-3.5622,-3.5622,-3.5622,-3.5622,-3.5622,-3.5622,-3.5622,-3.5622,-3.5622,-3.5622,-3.5622,-3.5622,-3.5622,-3.5622,-3.5622,-3.5622,-3.5622,-3.5622,-3.5622,-3.5622,-3.5622,-3.5622,-3.6231,-3.7768,-3.8029,-3.869,-4.002,-4.007,-4.0295,-4.0726,-4.0726,-4.073,-4.0747,-4.0747,-4.0544,-4.007,-4.007,-4.0341,-4.0747,-4.0747,-4.1001,-4.1443,-4.1443,-4.1443,-4.1443,-4.1528,-4.1611,-4.1633,-4.1741,-4.2096,-4.2539,-4.2638,-4.2955,-4.3321,-3.8202,-3.8464,-3.8681,-3.8681,-3.9373,-3.9915,-3.9915,-4.0258,-4.0489,-4.0489,-4.0373,-4.0249,-4.0116,-3.9656,-3.9231,-3.8933,-3.8773,-3.8707,-3.8707,-3.8707,-3.8707,-3.8707,-3.8707,-3.8707,-3.8707,-3.9203,-3.9067,-3.8263,-3.8263,-3.7895,-3.7182,-3.7182,-3.7064,-3.6806,-3.6806,-3.6603,-3.6231,-3.6231,-3.5994,-3.5622,-3.5622,-3.5622,-3.5622,-3.5622,-3.5622,-3.5622,-3.5622,-3.5622,-3.5622,-3.5622,-3.5622,-3.5622,-3.5622,-3.5622,-3.5622,-3.5622,-3.5622,-3.5622,-3.5622,-3.5622,-3.5622,-3.5622,-3.5622,-3.5622,-3.5622,-3.5622,-3.5622,-3.5622,-3.5622,-3.5622,-3.5622,-3.5622,-3.5622,-3.5622,-3.5622,-3.5622,-3.5622,-3.5622,-3.5622,-3.5622,-3.5622,-3.5622,-3.5622,-3.5622,-3.6084,-3.7302,-3.7728,-3.8405,-3.9547,-3.9935,-4.0234,-4.0481,-4.0787,-4.0889,-4.0879,-4.1202,-4.1209,-4.0891,-4.0619,-4.0637,-4.092,-4.1174,-4.1513,-4.1803,-4.1803,-4.1803,-4.1821,-4.2111,-4.2225,-4.226,-4.2514,-4.2813,-4.3085,-4.3085,-4.3269,-4.3497,-3.7855,-3.7824,-3.7796,-3.7777,-3.8493,-3.9131,-3.9285,-3.9858,-4.0335,-4.0469,-4.0489,-4.0411,-4.0115,-3.9743,-3.9301,-3.875,-3.8707,-3.8707,-3.8707,-3.8707,-3.8707,-3.8707,-3.8707,-3.8707,-3.8707,-3.8707,-3.8433,-3.7893,-3.7893,-3.7415,-3.6539,-3.6539,-3.6249,-3.5739,-3.5739,-3.5711,-3.5622,-3.5622,-3.5622,-3.5622,-3.5622,-3.5622,-3.5622,-3.5622,-3.5622,-3.5622,-3.5622,-3.5622,-3.5622,-3.5622,-3.5622,-3.5622,-3.5622,-3.5622,-3.5622,-3.5622,-3.5622,-3.5622,-3.5622,-3.5622,-3.5622,-3.5622,-3.5622,-3.5622,-3.5622,-3.5622,-3.5622,-3.5622,-3.5622,-3.5622,-3.5622,-3.5622,-3.5622,-3.5622,-3.5622,-3.5622,-3.5622,-3.5622,-3.5622,-3.5622,-3.5622,-3.5656,-3.5723,-3.5656,-3.6017,-3.6973,-3.7689,-3.8403,-3.9206,-3.9982,-4.0436,-4.0514,-4.0983,-4.1209,-4.1209,-4.1697,-4.1895,-4.181,-4.1386,-4.1209,-4.1226,-4.172,-4.1975,-4.2079,-4.2079,-4.2079,-4.215,-4.2624,-4.2842,-4.2878,-4.3332,-4.3497,-4.3497,-4.3497,-4.3497,-4.3497,-3.606,-3.6579,-3.7016,-3.6892,-3.7603,-3.8416,-3.9169,-3.9381,-3.9704,-4.0412,-4.0489,-4.0411,-4.0115,-3.9537,-3.9054,-3.8719,-3.8707,-3.8707,-3.8707,-3.8707,-3.8707,-3.8707,-3.8707,-3.8707,-3.8707,-3.8707,-3.8433,-3.7893,-3.7893,-3.7614,-3.7097,-3.7097,-3.6803,-3.6308,-3.6308,-3.6011,-3.5622,-3.5622,-3.5622,-3.5622,-3.5622,-3.5622,-3.5622,-3.5622,-3.5622,-3.5622,-3.5622,-3.5622,-3.5622,-3.5622,-3.5622,-3.5622,-3.5622,-3.5622,-3.5622,-3.5622,-3.5622,-3.5622,-3.5622,-3.5622,-3.5622,-3.5622,-3.5622,-3.5622,-3.5622,-3.5622,-3.5622,-3.5622,-3.5622,-3.5622,-3.5622,-3.5622,-3.5622,-3.5622,-3.5622,-3.5622,-3.5622,-3.5622,-3.5622,-3.5622,-3.5622,-3.5802,-3.6248,-3.587,-3.6282,-3.7968,-3.838,-3.9105,-4.0333,-4.1153,-4.1789,-4.232,-4.2422,-4.2444,-4.2444,-4.2559,-4.2302,-4.181,-4.223,-4.2462,-4.245,-4.2555,-4.2829,-4.3277,-4.3277,-4.3277,-4.3296,-4.3369,-4.3387,-4.3406,-4.3461,-4.3497,-4.3497,-4.3497,-4.3497,-4.3497,-3.5724,-3.5956,-3.6136,-3.6045,-3.6719,-3.7406,-3.7777,-3.8266,-3.8885,-3.9723,-3.9819,-3.9895,-4.0081,-3.95,-3.8999,-3.8719,-3.8707,-3.8707,-3.8707,-3.8707,-3.8707,-3.8707,-3.8707,-3.8707,-3.8707,-3.8707,-3.8578,-3.835,-3.835,-3.8083,-3.7578,-3.7578,-3.7305,-3.6843,-3.6539,-3.6266,-3.6028,-3.5739,-3.5622,-3.5622,-3.5622,-3.5622,-3.5622,-3.5622,-3.5622,-3.5622,-3.5622,-3.5622,-3.5622,-3.5622,-3.5622,-3.5622,-3.5622,-3.5622,-3.5622,-3.5622,-3.5622,-3.5622,-3.5622,-3.5622,-3.5622,-3.5622,-3.5622,-3.5622,-3.5622,-3.5622,-3.5622,-3.5622,-3.5622,-3.5622,-3.5622,-3.5622,-3.5622,-3.5622,-3.5622,-3.5622,-3.5622,-3.5622,-3.5622,-3.5622,-3.5853,-3.6163,-3.6395,-3.6469,-3.6829,-3.7624,-3.8611,-3.9387,-3.9978,-4.1127,-4.192,-4.2192,-4.2508,-4.2711,-4.2711,-4.3014,-4.2995,-4.2772,-4.3032,-4.2975,-4.2724,-4.2992,-4.3287,-4.3497,-4.3497,-4.3497,-4.3497,-4.3497,-4.3497,-4.3497,-4.3497,-4.3497,-4.3497,-4.3497,-4.3497,-4.3497]}]]